[[{"header":{"parameterUnit":"m.s-1","parameterCategory":1,"la1":30.6,"la2":29.2853,"lo1":-89.7004,"lo2":-87.6739,"dy":0.0162,"dx":0.0183,"nx":112,"ny":82,"refTime":"2023-05-07T12:00:00:Z","depth":0,"parameterNumber":2,"parameterNumberName":"U-component_of_WINDS"},"data":[0.0,0.0,0.0,0.0,0.0,0.0,0.0,0.0,0.0,0.0,0.0,0.0,0.0,0.0,0.0,0.0,0.0,0.0,0.0,0.0,0.0,0.0,0.0,0.0,0.0,0.0,0.0,0.0,0.0,0.0,0.0,0.0,0.0,0.0,0.0,0.0,0.0,0.0,0.0,0.0,0.0,0.0,0.0,0.0,0.0,0.0,0.0,0.0,0.0,0.0,0.0,0.0,0.0,0.0,0.0,0.0,0.0,0.0,0.0,0.0,0.0,0.0,0.0,0.0,0.0,0.0,0.0,0.0,0.0,0.0,0.0,0.0,0.0,0.0,0.0,0.0,0.0,0.0,0.0,0.0,0.0,0.0,0.0,0.0,0.0,0.0,0.0,0.0,0.0,0.0,0.0,-3.9453,-4.1025,-4.0618,-3.7821,-3.5661,-3.4975,-3.6152,0.0,0.0,0.0,0.0,0.0,0.0,0.0,0.0,0.0,0.0,0.0,0.0,0.0,0.0,0.0,0.0,0.0,0.0,0.0,0.0,0.0,0.0,0.0,0.0,0.0,0.0,0.0,0.0,0.0,0.0,0.0,0.0,0.0,0.0,0.0,0.0,0.0,0.0,0.0,0.0,0.0,0.0,0.0,0.0,0.0,0.0,0.0,0.0,0.0,0.0,0.0,0.0,0.0,0.0,0.0,0.0,0.0,0.0,0.0,0.0,0.0,0.0,0.0,0.0,0.0,0.0,0.0,0.0,0.0,0.0,0.0,0.0,0.0,0.0,0.0,0.0,0.0,0.0,0.0,0.0,0.0,0.0,0.0,0.0,0.0,0.0,0.0,0.0,0.0,0.0,0.0,0.0,0.0,0.0,0.0,0.0,0.0,0.0,0.0,0.0,0.0,0.0,0.0,0.0,-3.4544,-3.872,-3.9209,-3.8894,-3.8005,-3.4295,-3.34,-3.6659,0.0,0.0,0.0,0.0,0.0,0.0,0.0,0.0,0.0,0.0,0.0,0.0,0.0,0.0,0.0,0.0,0.0,0.0,0.0,0.0,0.0,0.0,0.0,0.0,0.0,0.0,0.0,0.0,0.0,0.0,0.0,0.0,0.0,0.0,0.0,0.0,0.0,0.0,0.0,0.0,0.0,0.0,0.0,0.0,0.0,0.0,0.0,0.0,0.0,0.0,0.0,0.0,0.0,0.0,0.0,0.0,0.0,0.0,0.0,0.0,0.0,0.0,0.0,0.0,0.0,0.0,0.0,0.0,0.0,0.0,0.0,0.0,0.0,0.0,0.0,0.0,0.0,0.0,0.0,0.0,0.0,0.0,0.0,0.0,0.0,0.0,0.0,0.0,0.0,0.0,0.0,0.0,0.0,0.0,0.0,0.0,0.0,0.0,0.0,0.0,0.0,0.0,0.0,-3.6263,-3.79,-3.8929,-3.8851,-3.823,-3.7062,-3.3638,-3.3127,-3.6877,-3.4218,0.0,0.0,0.0,0.0,0.0,0.0,0.0,0.0,0.0,0.0,0.0,0.0,0.0,0.0,0.0,0.0,0.0,0.0,0.0,0.0,0.0,0.0,0.0,0.0,0.0,0.0,0.0,0.0,0.0,0.0,0.0,0.0,0.0,0.0,0.0,0.0,0.0,0.0,0.0,0.0,0.0,0.0,0.0,0.0,0.0,0.0,0.0,0.0,0.0,0.0,0.0,0.0,0.0,0.0,0.0,0.0,0.0,0.0,0.0,0.0,0.0,0.0,0.0,0.0,0.0,0.0,0.0,0.0,0.0,0.0,0.0,0.0,0.0,0.0,0.0,0.0,0.0,0.0,0.0,0.0,0.0,0.0,0.0,0.0,0.0,0.0,0.0,0.0,0.0,0.0,0.0,0.0,0.0,0.0,0.0,0.0,0.0,0.0,0.0,0.0,0.0,0.0,-3.8511,-3.9797,-3.8577,-3.8601,-3.7952,-3.6103,-3.3108,-3.2996,-3.6895,-3.3724,0.0,0.0,0.0,0.0,0.0,0.0,0.0,0.0,0.0,0.0,0.0,0.0,0.0,0.0,0.0,0.0,0.0,0.0,0.0,0.0,0.0,0.0,0.0,0.0,0.0,0.0,0.0,0.0,0.0,0.0,0.0,0.0,0.0,0.0,0.0,0.0,0.0,0.0,0.0,0.0,0.0,0.0,0.0,0.0,0.0,0.0,0.0,0.0,0.0,0.0,0.0,0.0,0.0,0.0,0.0,0.0,0.0,0.0,0.0,0.0,0.0,0.0,0.0,0.0,0.0,0.0,0.0,0.0,0.0,0.0,0.0,0.0,0.0,0.0,0.0,0.0,0.0,0.0,0.0,0.0,0.0,0.0,0.0,0.0,0.0,0.0,0.0,0.0,0.0,0.0,0.0,0.0,0.0,0.0,0.0,0.0,0.0,0.0,0.0,0.0,0.0,0.0,-3.5763,-3.6813,-3.654,-3.7823,-3.7841,-3.5726,-3.2422,-3.2355,-3.6734,-3.3168,0.0,0.0,0.0,0.0,0.0,0.0,0.0,0.0,0.0,0.0,0.0,0.0,0.0,0.0,0.0,0.0,0.0,0.0,0.0,0.0,0.0,0.0,0.0,0.0,0.0,0.0,0.0,0.0,0.0,0.0,0.0,0.0,0.0,0.0,0.0,0.0,0.0,0.0,0.0,0.0,0.0,0.0,0.0,0.0,0.0,0.0,0.0,0.0,0.0,0.0,0.0,0.0,0.0,0.0,0.0,0.0,0.0,0.0,0.0,0.0,0.0,0.0,0.0,0.0,0.0,0.0,0.0,0.0,0.0,0.0,0.0,0.0,0.0,0.0,0.0,0.0,0.0,0.0,0.0,0.0,0.0,0.0,0.0,0.0,0.0,0.0,0.0,0.0,0.0,0.0,0.0,0.0,0.0,0.0,0.0,0.0,0.0,0.0,0.0,0.0,0.0,0.0,-3.5712,-3.6431,0.0,-3.5874,-3.517,-3.4158,-3.1306,-3.1064,-3.4545,0.0,0.0,0.0,0.0,0.0,0.0,0.0,0.0,0.0,0.0,0.0,0.0,0.0,0.0,0.0,0.0,0.0,0.0,0.0,0.0,0.0,0.0,0.0,0.0,0.0,0.0,0.0,0.0,0.0,0.0,0.0,0.0,0.0,0.0,0.0,0.0,0.0,0.0,0.0,0.0,0.0,0.0,0.0,0.0,0.0,0.0,0.0,0.0,0.0,0.0,0.0,0.0,0.0,0.0,0.0,0.0,0.0,0.0,0.0,0.0,0.0,0.0,0.0,0.0,0.0,0.0,0.0,0.0,0.0,0.0,0.0,0.0,0.0,0.0,0.0,0.0,0.0,0.0,0.0,0.0,0.0,0.0,0.0,0.0,0.0,0.0,0.0,0.0,0.0,0.0,0.0,0.0,0.0,0.0,0.0,0.0,0.0,0.0,0.0,0.0,0.0,0.0,-3.4331,-3.4852,-3.5179,0.0,-3.4522,-3.3797,-3.3013,-3.037,-3.0238,-3.3747,0.0,0.0,0.0,0.0,0.0,0.0,0.0,0.0,0.0,0.0,0.0,0.0,0.0,0.0,0.0,0.0,0.0,0.0,0.0,0.0,0.0,0.0,0.0,0.0,0.0,0.0,0.0,0.0,0.0,0.0,0.0,0.0,0.0,0.0,0.0,0.0,0.0,0.0,0.0,0.0,0.0,0.0,0.0,0.0,0.0,0.0,0.0,0.0,0.0,0.0,0.0,0.0,0.0,0.0,0.0,0.0,0.0,0.0,0.0,0.0,0.0,0.0,0.0,0.0,0.0,0.0,0.0,0.0,0.0,0.0,0.0,0.0,0.0,0.0,0.0,0.0,0.0,0.0,0.0,0.0,0.0,0.0,0.0,0.0,0.0,0.0,0.0,0.0,0.0,0.0,0.0,0.0,0.0,0.0,0.0,0.0,0.0,0.0,0.0,0.0,0.0,0.0,-3.2693,-3.2672,-3.2583,-3.2583,-3.4009,-3.4251,-3.2506,-2.9669,-3.0034,0.0,0.0,0.0,0.0,0.0,0.0,0.0,0.0,0.0,0.0,0.0,0.0,0.0,0.0,0.0,0.0,0.0,0.0,0.0,0.0,0.0,0.0,0.0,0.0,0.0,0.0,0.0,0.0,0.0,0.0,0.0,0.0,0.0,0.0,0.0,0.0,0.0,0.0,0.0,0.0,0.0,0.0,0.0,0.0,0.0,0.0,0.0,0.0,0.0,0.0,0.0,0.0,0.0,0.0,0.0,0.0,0.0,0.0,0.0,0.0,0.0,0.0,0.0,0.0,0.0,0.0,0.0,0.0,0.0,0.0,0.0,0.0,0.0,0.0,0.0,0.0,0.0,0.0,0.0,0.0,0.0,0.0,0.0,0.0,0.0,0.0,0.0,0.0,0.0,0.0,0.0,0.0,0.0,0.0,0.0,0.0,0.0,0.0,0.0,0.0,0.0,0.0,0.0,-3.3386,-3.2004,-3.1102,-3.1633,-3.208,-3.1801,-3.0473,-2.8307,-2.8916,-3.3367,0.0,0.0,0.0,0.0,0.0,0.0,0.0,0.0,0.0,0.0,0.0,0.0,0.0,0.0,0.0,0.0,0.0,0.0,0.0,0.0,0.0,0.0,0.0,0.0,0.0,0.0,0.0,0.0,0.0,0.0,0.0,0.0,0.0,0.0,0.0,0.0,0.0,0.0,0.0,0.0,0.0,0.0,0.0,0.0,0.0,0.0,0.0,0.0,0.0,0.0,0.0,0.0,0.0,0.0,0.0,0.0,0.0,0.0,0.0,0.0,0.0,0.0,0.0,0.0,0.0,0.0,0.0,0.0,0.0,0.0,0.0,0.0,0.0,0.0,0.0,0.0,0.0,0.0,0.0,0.0,0.0,0.0,0.0,0.0,0.0,0.0,0.0,0.0,0.0,0.0,0.0,0.0,0.0,0.0,0.0,0.0,0.0,0.0,0.0,0.0,0.0,0.0,-3.3679,-3.1728,-3.0241,-3.0344,-3.0562,-3.0306,-2.9268,-2.729,-2.7705,-3.1462,0.0,0.0,0.0,0.0,0.0,0.0,0.0,0.0,0.0,0.0,0.0,0.0,0.0,0.0,0.0,0.0,0.0,0.0,0.0,0.0,0.0,0.0,0.0,0.0,0.0,0.0,0.0,0.0,0.0,0.0,0.0,0.0,0.0,0.0,0.0,0.0,0.0,0.0,0.0,0.0,0.0,0.0,0.0,0.0,0.0,0.0,0.0,0.0,0.0,0.0,0.0,0.0,0.0,0.0,0.0,0.0,0.0,0.0,0.0,0.0,0.0,0.0,0.0,0.0,0.0,0.0,0.0,0.0,0.0,0.0,0.0,0.0,0.0,0.0,0.0,0.0,0.0,0.0,0.0,0.0,0.0,0.0,0.0,0.0,0.0,0.0,0.0,0.0,0.0,0.0,0.0,0.0,0.0,0.0,0.0,0.0,0.0,0.0,0.0,0.0,0.0,0.0,-3.3918,-3.1826,-2.9898,-2.9088,-2.9594,-2.9642,-2.8767,-2.6754,-2.6752,-2.9602,0.0,0.0,0.0,0.0,0.0,0.0,0.0,0.0,0.0,0.0,0.0,0.0,0.0,0.0,0.0,0.0,0.0,0.0,0.0,0.0,0.0,0.0,0.0,0.0,0.0,0.0,0.0,0.0,0.0,0.0,0.0,0.0,0.0,0.0,0.0,0.0,0.0,0.0,0.0,0.0,0.0,0.0,0.0,0.0,0.0,0.0,0.0,0.0,0.0,0.0,0.0,0.0,0.0,0.0,0.0,0.0,0.0,0.0,0.0,0.0,-3.18,0.0,0.0,0.0,0.0,0.0,0.0,0.0,0.0,0.0,0.0,0.0,0.0,0.0,0.0,0.0,0.0,0.0,0.0,0.0,0.0,0.0,0.0,0.0,0.0,0.0,0.0,0.0,0.0,0.0,0.0,0.0,0.0,0.0,0.0,0.0,0.0,0.0,0.0,0.0,0.0,0.0,-3.5579,-3.2465,-3.0027,-2.9795,-2.9866,-2.9572,-2.8697,-2.7407,-2.7714,-3.018,0.0,0.0,0.0,0.0,0.0,0.0,0.0,0.0,0.0,0.0,0.0,0.0,0.0,0.0,0.0,0.0,0.0,0.0,0.0,0.0,0.0,0.0,0.0,0.0,0.0,0.0,0.0,0.0,0.0,0.0,0.0,0.0,0.0,0.0,0.0,0.0,0.0,0.0,0.0,0.0,0.0,0.0,0.0,0.0,0.0,0.0,0.0,0.0,0.0,0.0,0.0,0.0,0.0,0.0,0.0,0.0,0.0,0.0,0.0,0.0,0.0,-3.3449,0.0,0.0,0.0,0.0,0.0,0.0,0.0,0.0,0.0,0.0,0.0,0.0,0.0,0.0,0.0,0.0,0.0,0.0,0.0,0.0,0.0,0.0,0.0,0.0,0.0,0.0,0.0,0.0,0.0,0.0,0.0,0.0,0.0,0.0,0.0,0.0,0.0,0.0,0.0,0.0,-3.589,-3.2574,-3.0038,-2.9957,-2.9924,-2.9546,-2.8672,-2.7607,-2.729,-2.7993,-2.7929,0.0,0.0,0.0,0.0,0.0,0.0,0.0,0.0,0.0,0.0,0.0,0.0,0.0,0.0,0.0,0.0,0.0,0.0,0.0,0.0,0.0,0.0,0.0,0.0,0.0,0.0,0.0,0.0,0.0,0.0,0.0,0.0,0.0,0.0,0.0,0.0,0.0,0.0,0.0,0.0,0.0,0.0,0.0,0.0,0.0,0.0,0.0,0.0,0.0,0.0,0.0,0.0,0.0,0.0,-4.3293,-4.4395,-4.4558,-4.3206,-4.0669,-3.9131,-3.6605,-3.3722,0.0,0.0,0.0,0.0,0.0,0.0,0.0,0.0,0.0,0.0,0.0,0.0,0.0,0.0,0.0,0.0,0.0,0.0,0.0,0.0,0.0,0.0,0.0,0.0,0.0,-3.6707,-3.5688,0.0,0.0,0.0,0.0,0.0,0.0,0.0,0.0,0.0,0.0,0.0,0.0,-3.5568,-3.2639,-3.0339,-3.0129,-3.0098,-2.9678,-2.869,-2.779,-2.6817,-2.5738,-2.744,-2.7841,0.0,0.0,0.0,0.0,0.0,0.0,0.0,0.0,0.0,0.0,0.0,0.0,0.0,0.0,0.0,0.0,0.0,0.0,0.0,0.0,0.0,0.0,0.0,0.0,0.0,0.0,0.0,0.0,0.0,0.0,0.0,0.0,-3.1477,-3.1967,0.0,0.0,0.0,0.0,0.0,0.0,0.0,0.0,0.0,0.0,0.0,0.0,0.0,0.0,-4.2736,-4.3143,-4.3533,-4.3906,-4.3378,-4.2861,-4.2418,-4.3171,-4.3196,-4.264,-4.2439,0.0,-3.6895,-3.4887,0.0,0.0,0.0,0.0,0.0,0.0,0.0,0.0,0.0,0.0,0.0,0.0,0.0,0.0,0.0,0.0,0.0,0.0,0.0,0.0,0.0,0.0,-3.6182,-3.4564,-3.4179,-3.3967,0.0,-3.4715,-3.5926,-3.4966,0.0,0.0,0.0,0.0,0.0,0.0,0.0,0.0,-3.5092,-3.3249,-3.1729,-3.1015,-3.0889,-3.0237,-2.8726,-2.8466,-2.7923,-2.6866,-2.6865,-2.7971,-3.0392,-2.9775,0.0,0.0,0.0,0.0,0.0,0.0,0.0,0.0,0.0,0.0,0.0,0.0,0.0,0.0,0.0,0.0,0.0,0.0,0.0,0.0,0.0,0.0,0.0,0.0,0.0,0.0,0.0,0.0,0.0,-3.2153,-3.504,-3.5163,-3.6701,-3.7536,0.0,0.0,0.0,0.0,0.0,0.0,0.0,0.0,0.0,-3.9875,-4.1583,-4.266,-4.2963,-4.3459,-4.436,-4.5701,-4.5422,-4.533,-4.5438,-4.5823,-4.5946,-4.586,-4.5736,-4.4249,-4.1742,-3.9445,-3.8622,-3.8776,0.0,0.0,0.0,0.0,0.0,-3.6851,-3.597,0.0,0.0,0.0,0.0,0.0,0.0,0.0,0.0,0.0,0.0,0.0,0.0,0.0,0.0,-3.6919,-3.6973,-3.7253,-3.6304,-3.6941,-3.7337,0.0,-3.683,-3.7795,-3.8522,0.0,0.0,0.0,0.0,0.0,-3.4662,-3.3281,-3.1932,-3.113,-3.1012,-3.0351,-2.8744,-2.86,-2.8137,-2.7079,-2.6881,-2.7168,-2.7956,-2.9195,-3.0612,0.0,0.0,0.0,0.0,0.0,0.0,0.0,0.0,0.0,0.0,0.0,0.0,0.0,0.0,0.0,0.0,0.0,0.0,0.0,0.0,0.0,0.0,0.0,0.0,0.0,0.0,0.0,0.0,-3.4983,-3.7612,-3.7269,-3.9244,-4.04,0.0,0.0,0.0,0.0,0.0,0.0,-4.1215,-4.298,-4.3375,-4.2155,-4.3329,-4.3906,-4.3737,-4.4033,-4.5298,-4.7449,-4.7456,-4.7794,-4.8384,-4.8596,-4.8558,-4.8289,-4.8089,-4.7152,-4.5571,-4.3281,-4.1293,-3.9768,-4.044,-4.032,-3.9714,-3.9364,-3.959,-4.0059,-3.9823,-3.9972,-4.0439,-4.1557,0.0,-4.0308,-3.9305,0.0,0.0,0.0,0.0,-4.015,-3.9676,0.0,-4.1117,-3.941,-3.976,-4.0202,-3.9043,-3.9278,-3.9132,0.0,-3.846,-4.0058,-4.0619,0.0,0.0,0.0,0.0,-3.3176,-3.4187,-3.3263,-3.2198,-3.1397,-3.1125,-3.0423,-2.9016,-2.8726,-2.8252,-2.7456,-2.7342,-2.6925,-2.6122,-2.8396,-2.9465,-2.8995,0.0,0.0,0.0,0.0,0.0,0.0,0.0,0.0,0.0,0.0,0.0,0.0,0.0,0.0,0.0,0.0,0.0,0.0,0.0,0.0,0.0,0.0,0.0,0.0,0.0,0.0,0.0,0.0,0.0,-3.6736,-3.968,0.0,0.0,0.0,0.0,-4.2583,-4.4233,-4.4957,-4.4494,-4.6064,-4.6659,-4.5955,-4.5876,-4.6613,-4.8161,-4.7137,-4.7479,-4.9171,-4.9055,-4.9039,-4.9168,-4.9935,-4.9762,-4.8865,-4.8846,-4.8243,-4.703,-4.3758,-4.2728,-4.3095,-4.1568,-4.2214,-4.383,-4.2498,-4.1977,-4.1776,-4.0371,-3.9407,-3.9258,-4.1951,-4.3133,-4.3116,-4.1175,-4.0854,0.0,0.0,-3.9408,-4.0218,-3.8321,-3.905,-4.031,-4.0377,-4.0456,-4.0474,-4.0401,-4.2194,-4.223,0.0,-3.5385,-3.4938,-3.4844,0.0,-3.47,-3.478,-3.4612,-3.4259,-3.364,-3.3437,-3.3031,-3.2234,-3.1469,-3.0672,-2.9802,-2.9047,-2.8582,-2.8533,-2.8214,-2.8013,-2.7964,-2.746,-2.8517,-3.138,-3.1099,0.0,0.0,0.0,0.0,0.0,0.0,0.0,0.0,0.0,0.0,0.0,0.0,0.0,0.0,0.0,0.0,0.0,0.0,0.0,0.0,0.0,0.0,0.0,0.0,0.0,0.0,0.0,0.0,-4.2055,-4.4028,0.0,0.0,-4.331,-4.3227,-4.5537,-4.5332,-4.5511,-4.6392,-4.7508,-4.7928,-4.7556,-4.7514,-4.7923,-4.8889,-4.8452,-4.8739,-4.9751,-4.9801,-4.9832,-4.9843,-5.0142,-5.0087,-4.9718,-4.9594,-4.9048,-4.8111,-4.6335,-4.5136,-4.4291,-4.3175,-4.3214,-4.3851,-4.3359,-4.2803,-4.23,-4.2321,-4.1787,-4.1158,-4.1642,-4.1946,-4.1844,-4.0568,-4.0695,-4.1105,-4.0354,-4.0414,-4.072,-4.089,-4.0821,-4.0942,-4.1814,-4.2031,-4.2031,-4.2031,-4.2719,-4.2429,-3.9406,-3.8591,-3.8521,-3.8904,-3.6102,-3.4829,-3.7802,-3.6154,-3.4697,-3.4945,-3.4513,-3.3864,-3.3067,-3.2252,-3.1437,-3.0636,-2.9826,-2.9373,-2.9373,-2.8763,-2.8422,-2.8422,-2.7666,-2.8013,-2.9642,-2.8788,-3.0001,0.0,0.0,0.0,0.0,0.0,0.0,0.0,0.0,0.0,0.0,0.0,0.0,0.0,0.0,0.0,0.0,0.0,0.0,0.0,0.0,0.0,0.0,0.0,0.0,0.0,0.0,-4.4488,-4.6024,-4.731,-4.8231,-4.8628,-4.6481,-4.5892,-4.7966,-4.7393,-4.7475,-4.8645,-4.9151,-4.9342,-4.9213,-4.8821,-4.8899,-4.952,-4.9174,-4.933,-5.0005,-5.0089,-5.0114,-5.0089,-5.0089,-5.0089,-5.0089,-4.9965,-4.9438,-4.8661,-4.8079,-4.7169,-4.607,-4.4971,-4.4535,-4.4611,-4.5179,-4.4668,-4.372,-4.4004,-4.3739,-4.3114,-4.2318,-4.2052,-4.1882,-4.0999,-4.115,-4.1575,-4.1463,-4.15,-4.17,-4.2353,-4.1975,-4.1653,-4.2649,-4.2683,-4.2574,-4.2847,-4.2901,-4.2484,-4.1144,-4.0691,-4.0384,-4.0041,-3.7002,-3.5989,-4.0095,-3.7457,-3.5661,-3.7493,-3.5897,-3.4407,-3.3864,-3.2832,-3.1872,-3.1071,-3.127,-3.0853,-2.9481,-2.9916,-2.9722,-2.8636,-2.8833,-2.9199,-2.9741,-2.8694,-2.963,-3.2611,0.0,0.0,0.0,0.0,0.0,0.0,0.0,0.0,0.0,0.0,0.0,0.0,0.0,0.0,0.0,0.0,0.0,0.0,0.0,0.0,0.0,0.0,0.0,-4.1294,-4.533,-4.8118,-4.8078,-4.9177,-4.9852,-4.9699,-4.9056,-4.9038,-4.9941,-5.0782,-5.1274,-5.1304,-5.1147,-5.1043,-5.1018,-4.9879,-4.964,-5.0421,-4.9507,-4.934,-5.0005,-5.0005,-4.9965,-4.9912,-4.9912,-4.9912,-4.9912,-4.9912,-4.9457,-4.8736,-4.8717,-4.8698,-4.8547,-4.6904,-4.6259,-4.643,-4.8073,-4.7599,-4.6032,-4.5198,-4.4895,-4.4762,-4.3985,-4.3739,-4.3587,-4.2723,-4.2477,-4.2411,-4.2083,-4.2554,-4.3049,-4.2398,-4.2214,-4.2311,-4.2795,-4.2303,-4.194,-4.2719,-4.2901,-4.2647,-4.185,-4.1071,-3.9804,-3.7466,-3.7049,-3.8032,-4.096,-3.8253,0.0,-4.0923,-3.7458,-3.47,-3.4808,-3.3396,-3.2111,-3.1329,-3.3342,-3.2944,-2.8925,-3.155,-3.184,-2.8726,-3.0694,-3.1845,-3.183,-3.0868,-3.0151,-2.9674,0.0,0.0,0.0,0.0,0.0,0.0,0.0,0.0,0.0,0.0,0.0,0.0,0.0,0.0,0.0,0.0,0.0,0.0,0.0,0.0,0.0,0.0,-4.5759,-4.625,-4.755,-4.8863,-4.9975,-5.1596,-5.235,-5.1635,-5.1987,-5.2318,-5.2419,-5.262,-5.2403,-5.17,-5.2126,-5.2037,-5.1308,-5.0975,-5.0841,-5.0982,-5.0094,-4.9737,-4.9939,-4.9939,-4.9925,-4.9912,-4.9912,-4.9912,-4.9912,-4.9912,-4.9779,-4.9533,-4.8945,-4.8698,-4.8661,-4.8187,-4.7624,-4.7131,-4.7586,-4.6695,-4.5217,-4.499,-4.4895,-4.4857,-4.4649,-4.4573,-4.4535,-4.4289,-4.4213,-4.4133,-4.3807,-4.3292,-4.2861,-4.303,-4.2465,-4.2014,-4.2739,-4.2719,-4.2629,-4.2865,-4.2901,-4.2647,-4.185,-4.1524,-4.08,-3.9043,-3.8263,-3.8156,-3.8973,0.0,0.0,-3.8973,-3.7487,-3.713,-3.9229,-3.8546,-3.7594,-3.6804,-3.6265,-3.4353,0.0,-3.0079,-2.9523,-2.8636,-2.8647,-2.847,-2.8007,-2.9505,-2.9768,0.0,0.0,0.0,0.0,0.0,0.0,0.0,0.0,0.0,0.0,0.0,0.0,0.0,0.0,0.0,0.0,0.0,0.0,0.0,0.0,0.0,0.0,-4.675,-4.9188,-5.0633,-5.0724,-5.1131,-5.2384,-5.3517,-5.4102,-5.3867,-5.3979,-5.4177,-5.4434,-5.3984,-5.3475,-5.2916,-5.2864,-5.259,-5.1997,-5.1898,-5.1654,-5.1206,-5.0721,-5.0299,-4.9912,-4.9912,-4.9912,-4.9912,-4.9912,-4.9912,0.0,-4.9912,-4.9912,-4.9855,-4.94,-4.921,0.0,0.0,0.0,0.0,0.0,-4.6563,-4.5388,-4.5028,-4.4895,-4.4895,-4.4895,-4.4895,-4.4895,-4.4895,-4.4802,-4.461,-4.4285,-4.362,-4.3014,-4.3156,-4.2687,-4.2321,-4.2792,-4.2901,-4.2901,-4.2901,-4.2901,-4.2647,-4.185,0.0,0.0,-3.9659,-3.9007,-3.9008,-3.995,-3.9008,-3.8663,0.0,-3.8284,-3.7635,-3.9319,-3.878,-3.7826,-3.6693,-3.698,0.0,0.0,0.0,-3.0794,-3.0053,-2.9583,0.0,0.0,0.0,-3.0486,0.0,0.0,0.0,0.0,-3.065,-3.103,0.0,0.0,0.0,0.0,0.0,0.0,0.0,0.0,0.0,0.0,0.0,0.0,0.0,0.0,0.0,0.0,-4.925,-5.1133,-5.4197,-5.411,-5.3978,-5.4654,-5.4893,-5.5199,-5.5756,-5.5131,-5.4997,-5.5769,-5.4946,-5.4383,-5.4312,0.0,0.0,0.0,0.0,-5.2261,-5.1476,-5.1445,-5.0952,-5.005,-5.005,-5.0006,-4.9912,-4.9912,-4.9912,-4.9912,-4.9912,-4.9912,-4.9912,-4.9912,-4.9912,-4.9817,-4.9021,-4.8698,-4.8585,-4.7605,-4.6809,0.0,0.0,0.0,0.0,-4.4895,-4.4895,-4.4895,-4.4895,-4.4668,-4.4327,-4.4004,-4.3656,-4.3319,-4.2995,-4.2901,-4.2901,-4.2901,-4.2901,-4.2901,-4.2901,-4.2901,-4.2683,-4.1958,-4.1831,-4.1361,-3.9912,-3.9514,-4.004,-4.1917,-3.9896,0.0,-4.1863,-3.9244,-3.725,-3.7579,0.0,0.0,-3.4289,-3.6693,-3.6256,-3.1451,-3.3067,-3.3511,-3.1946,-3.1892,-3.2187,-3.2832,-3.2306,-3.1487,-3.0439,-3.0143,-3.0243,-3.074,-3.2914,-3.3497,0.0,0.0,0.0,0.0,0.0,0.0,0.0,0.0,0.0,0.0,0.0,0.0,0.0,0.0,0.0,-4.9861,-5.2088,-5.3995,-5.5363,-5.5288,-5.4916,-5.4367,-5.5102,-5.5344,-5.4619,-5.502,-5.5336,-5.5326,-5.5142,-5.4689,-5.3876,-5.4249,0.0,-5.3542,-5.3485,-5.34,-5.3215,-5.2528,-5.1769,-5.0959,0.0,0.0,-4.9912,-4.9912,-4.9912,-4.9912,-4.9912,-4.9912,-4.9912,-4.9912,-4.9912,-4.9817,-4.9021,-4.8698,-4.8528,-4.698,-4.6316,-4.607,-4.5198,-4.4895,-4.4895,-4.4895,-4.4895,-4.4895,-4.4895,-4.4668,0.0,-4.4004,-4.3656,-4.3319,-4.2995,-4.2901,-4.2901,-4.2901,-4.2901,-4.2901,-4.2901,-4.2901,-4.2865,-4.2701,-4.2665,-4.2375,-4.1415,-4.022,-3.9315,-3.9116,-3.8572,-3.8409,-3.9008,-3.8427,-3.8865,-4.1189,-4.1314,-4.0558,-3.8941,-3.878,-3.6818,-3.2256,-3.1799,-3.1546,-3.121,-3.1192,-3.1002,-3.0631,-3.0772,-3.0581,-3.0096,-3.0031,-3.0647,-3.1877,-3.1707,-3.1201,0.0,0.0,0.0,0.0,0.0,0.0,0.0,0.0,0.0,0.0,0.0,-4.4429,0.0,0.0,-5.051,-5.2099,-5.381,-5.5078,-5.5439,-5.5849,-5.578,-5.4936,-5.5352,-5.5481,-5.4921,-5.5181,-5.5345,-5.521,-5.5107,-5.4843,-5.4333,-5.4693,-5.4731,-5.4314,-5.4295,-5.4105,-5.3707,-5.3271,-5.2627,-5.1798,-5.1798,-5.1566,-5.1149,-5.1149,-5.1149,-5.113,-5.0732,-5.0542,-5.0523,-5.0069,-4.9912,-4.9855,-4.9457,-4.9059,-4.8547,-4.7264,-4.6544,-4.607,-4.5198,-4.4895,-4.4895,-4.4895,-4.4895,-4.487,-4.4694,-4.4416,-4.408,-4.3754,-4.3423,-4.3124,-4.2939,-4.2901,-4.2901,-4.2901,-4.2901,-4.2901,-4.2901,-4.2901,-4.2901,-4.2901,-4.2901,-4.2629,-4.1831,-4.1053,-4.0148,-3.8971,-3.8462,-3.8209,-3.8209,-3.8209,-3.8755,-4.0185,-4.0347,-3.986,-3.8635,-3.7446,-3.5459,-3.2397,-3.1818,-3.1433,-3.1034,-3.0998,-3.1041,-3.1112,-3.0896,-3.0917,-3.1158,-3.094,-3.1317,-3.2242,-3.2017,-3.1585,0.0,0.0,0.0,0.0,0.0,0.0,0.0,0.0,-4.2086,-4.2957,-4.5821,-4.8411,-4.9182,-5.1148,-5.2984,-5.4021,-5.4976,-5.5574,-5.5458,-5.5957,-5.6053,-5.5261,-5.5362,-5.5493,-5.5389,-5.5295,-5.5198,-5.5149,-5.4985,-5.4901,-5.4901,-5.4901,-5.4901,-5.4901,-5.4901,-5.4598,-5.3935,-5.3935,-5.3499,-5.2651,-5.2651,-5.2651,-5.2632,-5.231,-5.2253,-5.2347,-5.1376,-5.0959,-5.0903,-5.0182,-4.9912,-4.9912,-4.9912,-4.9495,-4.8812,-4.7776,-4.698,-4.6278,-4.5255,-4.4895,-4.4933,-4.5103,-4.5141,-4.5092,-4.4742,-4.4412,-4.4037,-4.3545,-4.316,-4.2901,-4.2901,-4.2901,-4.2901,-4.2901,-4.2901,-4.2901,-4.2901,-4.2901,-4.2901,-4.2901,-4.2901,-4.2683,-4.2049,-4.1795,-4.1216,-3.9822,-3.8934,-3.8444,-3.8444,-3.8299,-3.8209,-3.8209,-3.8209,-3.781,-3.685,-3.5439,-3.3991,-3.2524,-3.2433,-3.2144,-3.1492,-3.1469,-3.1735,-3.2311,-3.1728,-3.1719,-3.23,-3.1896,-3.195,-3.2384,-3.2601,-3.2527,-2.9656,-3.1715,-3.535,-3.9272,-4.0058,-4.1647,0.0,0.0,-4.7763,-4.9335,-5.1312,-5.229,-5.0789,-5.3118,-5.5269,-5.5231,-5.583,-5.6278,-5.627,-5.5584,-5.4804,-5.3988,-5.4697,-5.517,-5.4985,-5.4956,-5.4941,-5.4927,-5.4916,-5.4901,-5.4901,-5.4901,-5.4901,-5.4901,-5.4901,-5.4863,-5.4769,-5.4769,-5.4371,-5.3556,-5.3556,-5.3556,-5.3499,-5.2006,-5.1722,-5.231,-5.0732,-5.0063,-5.0044,-4.995,-4.9912,-4.9912,-4.9912,-4.9836,-4.957,-4.7965,-4.734,-4.7036,-4.5445,-4.4895,-4.5028,-4.5805,-4.6051,-4.5994,-4.5659,-4.532,-4.483,-4.371,-4.316,-4.2901,-4.2901,-4.2901,-4.2901,-4.2901,-4.2901,-4.2901,-4.2901,-4.2901,-4.2901,-4.2901,-4.2901,-4.2883,-4.2774,-4.2176,-4.1397,-4.051,-3.9749,-3.9278,-3.9278,-3.8644,-3.8209,-3.8209,-3.8209,-3.7576,-3.6073,-3.5098,-3.4226,-3.3321,-3.3266,-3.323,-3.314,-3.314,-3.3006,-3.2733,-3.2654,-3.2514,-3.23,-3.1896,-3.2056,-3.2731,-3.2468,-3.2307,-3.4423,-3.6467,-3.9182,0.0,-4.4112,-4.6272,-4.9515,-4.9942,-4.9995,-5.1201,-5.2858,-5.3812,-5.2901,-5.4584,-5.604,0.0,-5.693,-5.7403,-5.6415,-5.5909,-5.4977,-5.3158,-5.3319,-5.3746,-5.4158,-5.42,-5.4408,-5.4863,-5.4901,-5.4901,-5.4901,-5.4901,-5.4901,-5.4901,-5.4901,-5.4901,-5.4901,-5.4901,-5.4731,-5.4408,-5.4901,-5.4882,-5.4389,-5.42,-5.348,-5.2329,-5.1168,-5.0372,-4.9912,-4.9912,-4.9912,-4.9912,-4.9912,-4.9912,-4.976,-4.8604,-4.7845,-4.7226,-4.6051,-4.5312,-4.4952,-4.5312,-4.5445,-4.5351,-4.4813,-4.4556,-4.4246,-4.3358,-4.3013,-4.2901,-4.2901,-4.2901,-4.2901,-4.2901,-4.2901,-4.2901,-4.2901,-4.2901,-4.2901,-4.2901,-4.2901,-4.2901,-4.2901,-4.2611,-4.2285,-4.194,-4.0836,-4.0039,-4.0039,-3.9369,-3.8717,-3.8263,-3.8209,-3.7756,-3.6598,-3.6182,-3.5439,-3.419,-3.4099,-3.39,-3.3429,-3.3178,-3.2972,-3.2795,-3.2384,-3.2092,-3.195,-3.16,-3.1675,-3.2162,-3.2266,-3.2392,-3.7324,-3.9652,0.0,-4.4773,-4.768,-5.0092,-5.0894,-5.1597,-5.2271,-5.2907,-5.3822,-5.4416,-5.4165,-5.5193,-5.6106,-5.6197,-5.7403,-5.7914,-5.6702,-5.6133,-5.4996,-5.267,-5.2196,-5.2324,-5.2949,-5.3423,-5.4029,-5.4844,-5.5129,-5.5261,-5.5261,-5.547,-5.5583,-5.5583,-5.5583,-5.5583,-5.5583,-5.5583,-5.5489,-5.528,-5.6114,-5.6076,-5.528,-5.5659,-5.4465,-5.2025,-5.1438,-5.0713,-4.9912,-4.9912,-4.9912,-4.9912,-4.9912,-4.9912,-4.9836,-4.9248,-4.8338,-4.7283,-4.6468,-4.5634,-4.4933,-4.5179,-4.5357,-4.5297,-4.449,-4.435,-4.4231,-4.3196,-4.2901,-4.2901,-4.2901,-4.2901,-4.2973,-4.3172,-4.3226,-4.33,-4.3498,-4.339,-4.3226,-4.3226,-4.3064,-4.2901,-4.2901,-4.2901,-4.2992,-4.3209,-4.2248,-4.1252,-4.0583,-3.9659,-3.8861,-3.8263,-3.8209,-3.7865,-3.7067,-3.6995,-3.6415,-3.5023,-3.4917,-3.4555,-3.3755,-3.3456,-3.3187,-3.2972,-3.2231,-3.186,-3.186,-3.1632,-3.1575,-3.1695,-3.2229,-3.2579,-3.6466,0.0,-4.3368,-4.7914,-5.0343,-5.2361,-5.5168,-5.5663,-5.5574,-5.5671,-5.5045,-5.4376,-5.3976,-5.4644,-5.544,-5.6084,-5.6891,-5.7422,-5.7365,-5.5962,-5.4314,-5.2594,-5.1703,-5.1249,0.0,-5.276,-5.4029,-5.4844,-5.5678,-5.6152,-5.6152,-5.6891,-5.7308,-5.7308,-5.7308,-5.7308,-5.7308,-5.7308,-5.6929,-5.6171,-5.6967,-5.6929,-5.6133,-5.5318,-5.3594,-5.123,-5.1211,-5.0713,-4.9912,-4.9912,-4.9912,-4.9912,-4.9912,-4.9912,-4.9912,-4.9874,-4.8831,-4.7283,-4.6468,-4.5634,-4.5047,-4.588,-4.6474,-4.6634,-4.5506,-4.548,-4.5425,-4.3449,-4.2901,-4.2901,-4.2901,-4.2901,-4.31,-4.3878,-4.4059,-4.4277,-4.5055,-4.4603,-4.4059,-4.4059,-4.3425,-4.2901,-4.2901,-4.2901,-4.3173,-4.3951,-4.4023,-4.3154,-4.08,-3.917,-3.8227,-3.8209,-3.8209,-3.7865,-3.7067,-3.6995,-3.6651,-3.5822,-3.575,-3.5388,-3.4606,-3.4555,-3.4193,-3.3396,-3.2669,-3.2283,-3.2283,-3.2263,-3.2068,-3.1712,-3.2507,-3.2843,-3.89,0.0,-4.7741,-5.1097,-5.357,-5.5465,-5.6444,-5.6505,-5.6046,-5.4962,-5.3962,-5.3099,-5.2361,-5.2848,-5.3775,-5.5125,-5.6493,-5.7403,-5.7403,-5.691,-5.5337,-5.1987,-5.1836,0.0,0.0,0.0,0.0,-5.4048,-5.5413,-5.619,-5.619,-5.6948,-5.7403,-5.7403,-5.7403,-5.7403,-5.7403,-5.6872,-5.6474,-5.619,-5.5887,-5.5906,-5.6152,-5.475,-5.3328,-5.1969,-5.1419,-5.0713,-4.9912,-4.9912,-4.9912,-4.9855,-4.9305,-4.9097,-4.904,-4.8452,-4.787,-4.7359,-4.7093,-4.607,-4.4952,-4.5236,-4.5636,-4.5817,-4.4675,-4.467,-4.4747,-4.3304,-4.2901,-4.2901,-4.2901,-4.2901,-4.2973,-4.3245,-4.3697,-4.4023,-4.3751,-4.4331,-4.4584,-4.3517,-4.3516,-4.3516,-4.2992,-4.2901,-4.2992,-4.3263,-4.3299,-4.3009,-4.2194,-4.0274,-3.9006,-3.9006,-3.8517,-3.81,-3.7828,-3.781,-3.7448,-3.6653,-3.6598,-3.6001,-3.4661,-3.4873,-3.4485,-3.3417,-3.3421,-3.3291,-3.3034,-3.3043,-3.271,-3.2119,-3.3144,-3.3363,-4.2815,-4.7119,-5.1376,-5.4342,-5.6237,-5.7365,-5.7346,-5.6748,-5.5606,-5.3609,-5.2386,-5.13,-5.0127,-5.0234,-5.1163,-5.3171,-5.448,-5.5742,-5.7241,-5.6672,-5.5443,-5.3631,-5.3101,0.0,0.0,0.0,0.0,-5.4086,-5.5678,-5.6626,-5.6626,-5.7687,-5.8293,-5.8293,-5.8293,-5.8161,-5.7858,-5.7346,-5.6929,-5.6607,-5.5773,-5.5659,-5.6152,-5.5072,-5.3802,-5.2366,-5.1836,-5.0978,-4.9912,-4.9912,-4.9912,-4.9855,-4.9343,-4.9134,-4.904,-4.8187,-4.7662,-4.7359,-4.7074,-4.6259,-4.5312,-4.5009,-4.5343,-4.5611,-4.4293,-4.4331,-4.4582,-4.3266,-4.2901,-4.2901,-4.2901,-4.3118,-4.3389,-4.3679,-4.4367,-4.4892,-4.4657,-4.52,-4.5417,-4.4385,-4.4132,-4.3932,-4.3407,-4.31,-4.301,-4.33,-4.3063,-4.2702,-4.2122,-4.0727,-3.9586,-3.9025,-3.8517,-3.8209,-3.8209,-3.8209,-3.7991,-3.7466,-3.743,-3.685,-3.5512,-3.5549,-3.51,-3.4041,-3.4001,-3.3868,-3.3615,-3.3723,-3.349,-3.2926,-3.3775,-3.3945,-4.777,-5.1105,-5.4166,-5.7518,-5.8166,-5.7972,-5.7933,-5.6384,-5.4255,-5.1701,-5.0272,-4.8967,-4.7235,0.0,-4.7881,-5.0492,-5.122,-5.2897,-5.6983,-5.5574,-5.4933,0.0,0.0,0.0,0.0,0.0,0.0,-5.5015,0.0,-5.7422,-5.746,-5.9014,-5.9902,-5.9902,-5.9902,-5.9522,-5.8726,-5.8597,-5.8123,-5.7251,-5.6531,-5.619,-5.619,-5.619,-5.4825,-5.2475,-5.2419,-5.1452,-4.9912,-4.9912,-4.9912,-4.9912,-4.9855,-4.9836,-4.9741,-4.8926,-4.8149,-4.734,-4.6474,-4.6152,-4.5994,-4.516,-4.5505,-4.5943,-4.4379,-4.4524,-4.491,-4.339,-4.2955,-4.2973,-4.3009,-4.3588,-4.4349,-4.511,-4.5906,-4.6703,-4.7428,-4.7047,-4.6522,-4.6413,-4.511,-4.4041,-4.4058,-4.3406,-4.3154,-4.3895,-4.3425,-4.2411,-4.0872,-4.0601,-4.0003,-3.848,-3.8281,-3.8245,-3.8209,-3.8209,-3.8209,-3.8209,-3.8209,-3.783,-3.6998,-3.6591,-3.5954,-3.5118,-3.4443,-3.4103,-3.4083,-3.4393,-3.4406,-3.4061,-3.4397,-3.4579,-5.0134,-5.3827,-5.7345,-5.8877,-5.8513,-5.7625,-5.7027,-5.4268,-5.1158,-4.8705,-4.6708,-4.4913,-4.3324,0.0,0.0,-4.9318,-5.2118,0.0,-5.7984,-5.8363,0.0,-5.7479,0.0,-5.6304,-5.5906,-5.5868,0.0,0.0,-5.7156,-5.7668,-5.8331,-5.9352,-5.9902,-5.9902,-5.9902,-5.9522,-5.8726,-5.746,-5.6398,-5.5546,-5.5981,-5.619,-5.619,-5.619,-5.5166,-5.3328,-5.267,-5.1452,-4.9912,-4.9912,-4.9912,-4.9836,-4.9248,-4.9021,-4.8907,-4.8054,-4.7984,-4.8123,-4.6415,-4.5563,-4.5198,-4.4971,-4.5129,-4.522,-4.4212,-4.4139,-4.4313,-4.3896,-4.3788,-4.3914,-4.453,-4.4838,-4.5037,-4.5254,-4.5906,-4.6395,-4.5997,-4.6703,-4.6866,-4.5055,-4.3896,-4.3275,-4.3532,-4.3172,-4.2781,-4.2705,-4.328,-4.3583,-4.3244,-4.214,-4.0999,-4.0021,-3.9423,-3.8861,-3.8263,-3.8209,-3.8209,-3.8209,-3.8209,-3.7676,-3.6538,-3.6952,-3.6535,-3.5131,-3.5503,-3.5543,-3.5179,-3.5294,-3.5168,-3.491,-3.518,-3.5215,-5.3694,-5.656,-5.8963,-5.9365,-5.8311,-5.6652,-5.4632,-5.1533,-4.8181,-4.4963,-4.3154,0.0,-4.0125,-4.1721,0.0,0.0,0.0,0.0,-5.7127,-5.8037,-5.8628,0.0,-5.8635,0.0,-5.8331,-5.7706,-5.763,0.0,-5.8161,-5.818,-5.8669,-5.9466,-5.9902,-5.9902,-5.9902,-5.9317,-5.8142,-5.6474,-5.5375,-5.492,-5.5773,-5.6,-5.564,-5.6019,-5.5072,-5.3101,0.0,-5.1452,-4.9912,-4.9912,-4.9912,-4.9855,-4.94,-4.9229,-4.9115,-4.8268,-4.817,-4.8216,-4.6746,-4.6036,-4.5636,-4.4761,-4.4744,-4.4925,-4.398,-4.4125,-4.4548,-4.4186,-4.4349,-4.4729,-4.5182,-4.5562,-4.5834,-4.5834,-4.645,-4.6902,-4.645,-4.7065,-4.7171,-4.5411,-4.4507,-4.3975,-4.3768,-4.3326,-4.2896,-4.2562,-4.3129,-4.3593,-4.3528,-4.2773,-4.1796,-4.0619,-3.984,-3.9078,-3.8281,-3.8209,-3.8209,-3.8209,-3.802,-3.7577,-3.6863,-3.6923,-3.6549,-3.5642,-3.5865,-3.5849,-3.56,-3.56,-3.5645,-3.5683,-3.564,-3.5628,-5.7287,-5.888,-5.9604,-5.9332,-5.7588,-5.5097,-5.1778,-4.8461,-4.4993,-4.1108,0.0,-3.8866,-3.7426,-3.8824,-4.1128,-4.3951,0.0,-5.0792,-5.5822,-5.6668,-5.8186,-6.1951,-6.0492,-5.9734,-6.1136,-5.9904,-5.9314,-5.9999,-5.9314,-5.8859,-5.8859,-5.9506,-5.9902,-5.9902,-5.9807,-5.8976,-5.7422,-5.5849,-5.5015,-5.492,-5.5773,-5.5792,-5.511,-5.5849,-5.4939,-5.2707,0.0,0.0,-5.0063,-4.995,-4.9912,-4.9912,-4.9912,-4.9912,-4.9817,-4.9115,-4.8649,-4.8202,-4.7305,-4.7024,-4.6727,-4.4712,-4.4546,-4.4893,-4.3747,-4.4236,-4.5019,-4.4421,-4.4838,-4.549,-4.5599,-4.6142,-4.6667,-4.6667,-4.7192,-4.7717,-4.7717,-4.7606,-4.731,-4.6509,-4.5819,-4.5065,-4.4212,-4.3622,-4.3165,-4.2863,-4.2957,-4.3003,-4.2843,-4.2948,-4.2411,-4.0818,-4.0076,-3.9315,-3.8444,-3.8263,-3.8209,-3.8209,-3.7827,-3.7542,-3.7432,-3.6741,-3.6343,-3.6216,-3.5805,-3.56,-3.56,-3.56,-3.5827,-3.6301,-3.5805,-3.5849,-5.8299,-5.9458,-5.9931,-5.9234,-5.6059,-5.2575,-5.0501,-4.5552,0.0,0.0,-3.7168,-3.5914,-3.5038,-3.7525,-4.0779,-4.3952,0.0,0.0,0.0,0.0,-6.0053,0.0,0.0,0.0,0.0,0.0,0.0,0.0,0.0,0.0,-5.9677,-5.9826,-5.9902,-5.9902,-5.9241,-5.8407,-5.7403,-5.6455,-5.5602,-5.492,-5.5773,-5.6114,-5.5981,-5.6133,-5.5564,-5.4389,0.0,0.0,-5.0921,-5.0201,-4.9912,-4.9912,-4.9912,-4.9912,-4.9893,-4.9741,-4.9644,-4.9381,-4.7975,-4.7644,-4.7552,-4.5534,-4.501,-4.496,-4.3764,-4.3835,-4.4421,-4.4928,-4.5671,-4.645,-4.712,-4.7391,-4.75,-4.75,-4.7609,-4.7717,-4.7717,-4.7192,-4.6702,-4.665,-4.5467,-4.4382,-4.3922,-4.3465,-4.2947,-4.2405,-4.2617,-4.2891,-4.2949,-4.3407,-4.3166,-4.165,-4.1323,-4.0655,-3.9315,-3.8589,-3.8209,-3.8209,-3.8123,-3.7757,-3.7036,-3.686,-3.6474,-3.5734,-3.5644,-3.56,-3.56,-3.56,-3.5827,-3.6301,-3.5805,-3.5849,-5.8535,-5.9584,-5.9908,-5.863,-5.5337,-5.1467,-4.7847,0.0,0.0,0.0,-3.4764,-3.3983,-3.3639,-3.6162,0.0,0.0,0.0,0.0,0.0,0.0,0.0,0.0,0.0,0.0,0.0,0.0,0.0,0.0,0.0,0.0,-5.9902,-5.9902,-5.9902,-5.9902,-5.9124,-5.8274,-5.7403,-5.6588,-5.5754,-5.492,-5.5318,-5.5527,-5.5546,-5.5981,-5.5716,-5.4863,-5.4048,0.0,-5.24,-5.1111,-5.058,-5.0523,-5.0082,-4.9912,-4.9912,-4.9912,-4.9783,-4.9506,-4.8555,-4.834,-4.8168,-4.6414,-4.5404,-4.4752,-4.3998,-4.4213,-4.4802,-4.5182,-4.6178,-4.721,-4.7609,-4.7717,-4.7717,-4.7717,-4.7636,-4.7593,-4.7511,-4.7183,-4.683,-4.6566,-4.5646,-4.4756,-4.4241,-4.3383,-4.2647,-4.227,-4.2098,-4.1973,-4.1925,-4.2516,-4.2661,-4.1888,-4.1618,-4.0869,-3.9373,-3.8672,-3.8223,-3.8039,-3.7804,-3.742,-3.6876,-3.6853,-3.6461,-3.5639,-3.56,-3.56,-3.56,-3.56,-3.5711,-3.5937,-3.5694,-3.5734,-5.8058,-5.9367,-5.9725,-5.8044,-5.4591,-5.0373,-4.5593,-4.1152,0.0,0.0,-3.3129,-3.2884,-3.29,-3.5008,-3.7142,0.0,-4.1696,0.0,0.0,0.0,0.0,0.0,0.0,0.0,0.0,0.0,0.0,0.0,0.0,0.0,0.0,-5.9902,-5.9902,-5.9902,-5.9279,-5.8445,-5.7403,-5.6758,-5.5925,-5.4901,-5.4901,-5.4901,-5.492,-5.5602,-5.564,-5.5166,-5.4977,0.0,0.0,-5.2608,-5.1893,-5.1661,-5.077,-5.0315,-5.0144,-4.9969,-4.9741,-4.9442,-4.8952,-4.8799,-4.8564,-4.7204,-4.5911,-4.4802,-4.4466,-4.4802,-4.5345,-4.5508,-4.6595,-4.7678,-4.7657,-4.7657,-4.7657,-4.7615,-4.7533,-4.7428,-4.7323,-4.7302,-4.7062,-4.6286,-4.5775,-4.525,-4.4429,-4.3301,-4.2425,-4.2237,-4.1662,-4.1137,-4.0748,-4.1345,-4.1737,-4.1525,-4.1357,-4.0864,-3.9762,-3.8915,-3.8396,-3.824,-3.779,-3.7396,-3.7078,-3.7107,-3.6706,-3.5808,-3.5853,-3.5769,-3.56,-3.5769,-3.5752,-3.56,-3.5769,-3.5752,-5.6455,-5.8627,-5.9536,-5.7848,-5.3205,-4.824,-4.5194,0.0,0.0,-3.3745,-3.3119,-3.2821,-3.2884,-3.4355,-3.6353,-3.8739,-4.1618,-4.5456,0.0,0.0,0.0,0.0,0.0,0.0,0.0,0.0,0.0,0.0,0.0,0.0,0.0,-5.9902,-5.9902,-5.9902,-5.9845,-5.9014,-5.7422,-5.7327,-5.6493,-5.4901,-5.4901,-5.4901,-5.4901,-5.4977,-5.5413,-5.6038,0.0,0.0,0.0,-5.4958,-5.4124,-5.3385,-5.2513,-5.1717,-5.0978,-5.0182,-4.9866,-4.975,-4.9052,-4.8799,-4.8657,-4.784,-4.6787,-4.57,-4.532,-4.5236,-4.5454,-4.6178,-4.7029,-4.7657,-4.7554,-4.7511,-4.749,-4.7363,-4.7341,-4.732,-4.7302,-4.7302,-4.6954,-4.58,-4.552,-4.5117,-4.3889,-4.3044,-4.2425,-4.2237,-4.1583,-4.0874,-4.0163,-4.0573,-4.0728,-4.0228,-4.0651,-4.1119,-4.1517,-3.9777,-3.8874,-3.931,-3.8852,-3.8397,-3.7997,-3.8094,-3.7603,-3.6427,-3.6584,-3.6332,-3.56,-3.6332,-3.6315,-3.5616,-3.6349,-3.6299,-5.4961,-5.7609,-5.8783,-5.7099,-5.2646,-4.7791,-4.4327,0.0,-3.4596,-3.3445,-3.2932,-3.2706,-3.2821,-3.4285,-3.599,-3.7614,-3.9907,0.0,-4.777,0.0,0.0,0.0,0.0,0.0,0.0,0.0,0.0,0.0,0.0,0.0,0.0,-5.9902,-5.9902,-5.9902,-5.9447,-5.8597,-5.7403,-5.691,-5.6076,-5.4901,-5.4901,-5.4901,-5.492,-5.5451,-5.5868,-5.6171,0.0,0.0,0.0,-5.5261,-5.4427,-5.3613,-5.2741,-5.1912,-5.1078,-5.022,-4.9769,-4.9518,-4.8986,-4.8676,-4.8402,-4.7868,-4.7062,-4.6217,-4.6076,-4.6015,-4.6087,-4.6413,-4.7021,-4.7572,-4.7511,-4.7428,-4.7363,-4.7249,-4.7227,-4.7205,-4.7138,-4.7138,-4.6765,-4.5614,-4.5381,-4.4984,-4.3802,-4.2986,-4.2311,-4.1788,-4.1126,-4.0418,-3.9666,-3.9773,-3.9993,-4.0227,-4.1,-4.1404,-4.1151,-4.0128,-3.9501,-3.9507,-3.8898,-3.8357,-3.7993,-3.8292,-3.8063,-3.7235,-3.7306,-3.7226,-3.6969,-3.6857,-3.6643,-3.6315,-3.6146,-3.591,-5.1476,-5.4825,-5.6794,-5.5364,-5.1054,-4.6365,0.0,0.0,-3.408,-3.3163,-3.277,-3.2639,-3.2805,-3.4282,-3.5838,-3.689,-3.9179,-4.214,-4.5983,0.0,0.0,0.0,0.0,0.0,0.0,0.0,0.0,0.0,0.0,0.0,0.0,-5.9674,-5.9639,-5.9885,-5.9124,-5.8274,-5.7403,-5.6588,-5.5754,-5.4901,-5.4901,-5.4901,-5.492,-5.5546,-5.5962,0.0,0.0,0.0,0.0,-5.6171,-5.5394,-5.4389,-5.3764,-5.2722,-5.1438,-5.0464,-4.9818,-4.9318,-4.8834,-4.8495,-4.8229,-4.7845,-4.7319,-4.6866,-4.6866,-4.6703,-4.6538,-4.6752,-4.7078,-4.7403,-4.7403,-4.7316,-4.7187,-4.7156,-4.7133,-4.7111,-4.702,-4.6865,-4.6459,-4.5485,-4.5188,-4.4756,-4.3789,-4.2986,-4.2307,-4.1794,-4.1143,-4.0431,-3.973,-3.963,-3.9746,-4.0044,-4.0905,-4.1272,-4.0857,-4.0189,-3.9758,-3.9638,-3.9034,-3.8554,-3.831,-3.8673,-3.8547,-3.791,-3.7967,-3.7964,-3.7834,-3.7584,-3.7354,-3.7094,-3.6552,-3.6039,-4.5364,-4.9714,-5.325,-5.2435,-4.7865,-4.3281,0.0,0.0,-3.2996,-3.2914,-3.2737,-3.2655,-3.2868,-3.4315,-3.5869,-3.7009,-4.0052,-4.3342,-4.6361,0.0,0.0,0.0,0.0,0.0,0.0,0.0,0.0,0.0,0.0,0.0,0.0,0.0,-5.9086,-5.9883,-5.9124,-5.8274,-5.7403,-5.6588,-5.5754,-5.4901,-5.4901,-5.4901,-5.4901,-5.492,0.0,0.0,0.0,0.0,0.0,-5.8312,-5.7668,-5.6171,-5.6152,-5.4617,-5.2243,-5.1042,-5.0091,-4.9286,-4.8569,-4.8306,-4.8229,-4.7845,-4.7678,-4.7699,-4.7699,-4.7138,-4.6646,-4.7298,-4.7338,-4.7219,-4.7219,-4.7111,-4.7002,-4.6998,-4.6998,-4.6998,-4.6998,-4.659,-4.602,-4.5425,-4.4882,-4.4305,-4.37,-4.2986,-4.2489,-4.2473,-4.1844,-4.116,-4.0475,-4.0393,-4.0111,-3.9398,-3.9962,-4.0594,-4.1041,-4.0,-3.9504,-3.9978,-3.9566,-3.9282,-3.9282,-3.9432,-3.9135,-3.8411,-3.864,-3.8437,-3.7696,-3.8567,-3.8599,-3.7889,-3.7889,-3.7077,-4.1464,-4.4231,-4.5883,-4.5034,-4.2119,-3.9032,-3.7375,-3.4108,-3.1556,-3.1985,-3.1973,-3.2053,-3.2761,-3.4415,-3.62,-3.7869,-4.1088,-4.3963,0.0,0.0,0.0,0.0,0.0,0.0,0.0,0.0,0.0,0.0,0.0,0.0,0.0,0.0,-5.8821,-5.9086,-5.7706,-5.6853,-5.6569,-5.5735,-5.5166,-5.4901,-5.4901,-5.4901,-5.4901,-5.4901,0.0,0.0,0.0,0.0,0.0,-5.7232,-5.6493,-5.4484,-5.4484,-5.312,-5.1058,-5.0122,-4.9297,-4.8605,-4.8382,-4.8111,-4.7886,-4.7741,-4.7717,-4.7717,-4.7717,-4.7515,-4.7331,-4.7374,-4.7272,-4.7196,-4.7088,-4.7043,-4.6998,-4.6998,-4.6708,-4.6453,-4.6453,-4.602,-4.5425,-4.4855,-4.4642,-4.4305,-4.37,-4.34,-4.3069,-4.2572,-4.2291,-4.174,-4.0558,-4.0409,-4.0127,-3.9381,-3.9514,-3.99,-4.0571,-4.0259,-4.0126,-4.0254,-3.9671,-3.9299,-3.9299,-3.9325,-3.9342,-3.9291,-3.9368,-3.9404,-3.9344,-3.9016,-3.8469,-3.7745,-3.7205,-3.6764,-3.6211,-3.8966,-4.0588,-4.0075,-3.8005,0.0,0.0,-3.2534,-3.1046,-3.1627,-3.1907,-3.2282,-3.2999,-3.487,-3.67,-3.7952,-4.1325,-4.4056,0.0,0.0,0.0,0.0,0.0,0.0,0.0,0.0,0.0,0.0,0.0,0.0,0.0,0.0,-5.8066,-5.7763,-5.6739,-5.619,-5.619,-5.5337,-5.4901,-5.4901,-5.4901,-5.4901,-5.4901,0.0,0.0,0.0,0.0,0.0,0.0,-5.6967,-5.6034,-5.3958,-5.3958,-5.251,-5.0331,-4.9674,-4.8954,-4.8287,-4.813,-4.7909,-4.7717,-4.7717,-4.7675,-4.7636,-4.7636,-4.7593,-4.7511,-4.7316,-4.7201,-4.7066,-4.6772,-4.6684,-4.6637,-4.6411,-4.6102,-4.5852,-4.5852,-4.5416,-4.491,-4.4541,-4.4321,-4.4035,-4.3671,-4.3598,-4.3433,-4.2969,-4.2903,-4.2489,-4.1342,-4.1193,-4.0796,-3.9829,-3.9713,-3.9796,-3.9978,-3.9995,-3.9995,-3.9995,-3.9547,-3.9299,-3.9299,-3.9299,-3.9379,-3.9547,-3.9616,-3.972,-3.9884,-3.9396,-3.8791,-3.81,-3.7605,-3.7155,0.0,-3.3823,-3.6663,-3.6789,0.0,0.0,-3.3282,-3.2174,0.0,-3.1612,-3.2332,-3.3032,-3.3477,-3.5556,-3.7266,-3.7531,-4.0974,0.0,0.0,0.0,0.0,0.0,0.0,0.0,0.0,0.0,0.0,0.0,0.0,0.0,0.0,0.0,0.0,-5.6209,-5.6133,-5.6114,-5.6114,-5.5299,-5.4901,-5.4901,-5.4901,-5.4901,-5.4901,0.0,0.0,0.0,0.0,0.0,0.0,-5.7349,-5.6134,-5.4215,-5.4182,-5.2443,-4.9933,-4.9544,-4.893,-4.8209,-4.7845,-4.7717,-4.7717,-4.7717,-4.7615,-4.7511,-4.749,-4.7385,-4.7276,-4.7223,-4.7066,-4.6842,-4.6332,-4.6161,-4.5995,-4.5433,-4.5276,-4.525,-4.525,-4.4828,-4.4446,-4.4446,-4.3977,-4.3598,-4.3598,-4.3598,-4.3598,-4.3598,-4.3598,-4.3317,-4.2589,-4.2489,-4.1972,-4.0558,-4.0409,-4.0111,-3.9365,-3.9299,-3.9299,-3.9299,-3.9299,-3.9299,-3.9299,-3.9299,-3.9299,-3.9299,-3.9448,-3.9528,-3.9501,-3.9642,-3.9394,-3.8866,-3.8816,-3.8132,-2.6577,0.0,-2.9374,-2.9993,-3.0092,-2.9873,0.0,-2.9769,-3.0416,-3.0599,-3.1284,-3.2303,-3.3771,-3.5193,-3.6825,-3.8907,-4.1777,0.0,0.0,0.0,0.0,0.0,0.0,0.0,0.0,0.0,0.0,0.0,0.0,0.0,0.0,0.0,0.0,-5.6209,-5.5546,-5.5204,-5.5204,-5.4996,-5.4901,-5.4901,-5.4901,-5.4901,-5.492,0.0,0.0,0.0,0.0,0.0,-5.6516,-5.6807,-5.5187,-5.2456,-5.2094,-5.062,-4.8715,-4.862,-4.8276,-4.7824,-4.772,-4.7717,-4.7717,-4.7717,-4.7615,-4.749,-4.7385,-4.7294,-4.7223,-4.7201,-4.6819,-4.6357,-4.6235,-4.5852,-4.5477,-4.5329,-4.4991,-4.468,-4.468,-4.4219,-4.3818,-4.3818,-4.3717,-4.3598,-4.3598,-4.3598,-4.3598,-4.3598,-4.3598,-4.3317,-4.2589,-4.2489,-4.1972,-4.0558,-4.0409,-4.0111,-3.9365,-3.9299,-3.9299,-3.9299,-3.9299,-3.9299,-3.9299,-3.9299,-3.9352,-3.9432,-3.9573,-3.9616,-3.9501,-3.9511,-3.9532,-3.9461,-3.8908,-3.8597,-2.5191,-2.6504,-2.7868,-2.8338,-2.8981,-2.9378,-2.8984,-2.9796,-3.0725,-3.0986,-3.1976,-3.3142,-3.4269,-3.5851,-3.7592,-3.9412,-4.1835,0.0,0.0,0.0,0.0,0.0,0.0,0.0,0.0,0.0,0.0,0.0,0.0,0.0,0.0,0.0,0.0,0.0,-5.5148,-5.4901,-5.4901,-5.4901,-5.4901,-5.4901,-5.4901,-5.511,-5.5508,-5.5564,0.0,0.0,0.0,0.0,-5.6175,-5.5837,-5.4095,-5.153,-5.075,-4.9449,-4.803,-4.803,-4.7907,-4.7717,-4.7717,-4.7717,-4.7717,-4.7717,-4.7615,-4.7472,-4.7341,-4.7249,-4.7151,-4.6842,-4.6495,-4.6087,-4.5563,-4.5178,-4.4865,-4.4608,-4.4288,-4.4093,-4.4093,-4.3848,-4.3598,-4.3598,-4.3598,-4.3598,-4.3598,-4.3598,-4.3598,-4.3598,-4.3598,-4.3449,-4.3052,-4.2986,-4.244,-4.1011,-4.0862,-4.0431,-3.9398,-3.9299,-3.9299,-3.9299,-3.9299,-3.9299,-3.9299,-3.9299,-3.9325,-3.9422,-3.9484,-3.9484,-3.9422,-3.9422,-3.9484,-3.9599,-3.9189,-3.8975,-2.5164,-2.7338,-2.9329,-2.9127,-2.9748,-3.0421,-3.0513,-3.1138,-3.1806,-3.2163,-3.3427,-3.4585,-3.5006,-3.7005,0.0,0.0,0.0,0.0,0.0,0.0,0.0,0.0,0.0,0.0,0.0,0.0,0.0,0.0,0.0,0.0,0.0,0.0,0.0,0.0,-5.4807,-5.4833,-5.49,-5.4913,-5.4928,-5.4996,-5.5061,-5.5489,-5.6171,-5.5564,0.0,0.0,0.0,0.0,-5.5715,-5.4518,-5.284,-5.0916,-4.9817,-4.8705,-4.7717,-4.7717,-4.7717,-4.7717,-4.7717,-4.7717,-4.7717,-4.7717,-4.7593,-4.745,-4.7323,-4.7249,-4.7043,-4.6381,-4.6137,-4.5819,-4.4763,-4.4418,-4.4219,-4.373,-4.3598,-4.3598,-4.3598,-4.3598,-4.3598,-4.3598,-4.3598,-4.3598,-4.3598,-4.3598,-4.3598,-4.3598,-4.3598,-4.3598,-4.3598,-4.3598,-4.3069,-4.1695,-4.1475,-4.0878,-3.958,-3.9365,-3.9299,-3.9299,-3.9299,-3.9299,-3.9299,-3.9299,-3.9299,-3.9299,-3.9299,-3.9299,-3.9299,-3.9299,-3.9352,-3.9501,-3.9501,-3.9298,-2.5982,-2.8566,-3.0723,-2.9347,-3.017,-3.1359,-3.1515,-3.2556,-3.3555,-3.3737,-3.4503,-3.5411,-3.6242,-3.8058,-3.9708,0.0,0.0,0.0,0.0,0.0,0.0,0.0,0.0,0.0,0.0,0.0,0.0,0.0,0.0,0.0,0.0,0.0,0.0,0.0,0.0,-5.4548,-5.4895,-5.4888,-5.5067,-5.5414,-5.5804,-5.6076,-5.6209,-5.6758,-5.6563,0.0,0.0,-5.5088,-5.3981,-5.2786,-5.1297,-4.9725,-4.9209,-4.8469,-4.7717,-4.7717,-4.7717,-4.7717,-4.7717,-4.7717,-4.7717,-4.7717,-4.7533,-4.7341,-4.732,-4.7165,-4.6911,-4.6374,-4.5827,-4.5294,-4.4652,-4.4121,-4.37,-4.3628,-4.3598,-4.3598,-4.3598,-4.3598,-4.3598,-4.3598,-4.3598,-4.3598,-4.3598,-4.3598,-4.3598,-4.3598,-4.3598,-4.3598,-4.3598,-4.3598,-4.3267,-4.2406,-4.1761,-4.1077,-4.031,-3.9663,-3.9299,-3.9299,-3.9299,-3.9299,-3.9299,-3.9299,-3.9299,-3.9299,-3.9299,-3.9299,-3.9299,-3.9299,-3.9352,-3.9501,-3.9501,-3.954,-2.5418,-2.7685,-2.9919,-3.0233,-3.2052,-3.371,-3.3418,-3.4332,-3.5333,-3.5724,-3.6467,-3.7142,0.0,0.0,0.0,0.0,0.0,0.0,0.0,0.0,0.0,0.0,0.0,0.0,0.0,0.0,0.0,0.0,0.0,0.0,0.0,0.0,0.0,0.0,0.0,-5.3516,-5.3922,-5.4148,-5.4675,-5.5499,-5.5708,-5.5699,-5.5489,-5.5205,-5.4762,-5.4182,0.0,-5.2694,-5.1695,-5.091,-4.9924,-4.8799,-4.8411,-4.8022,-4.7717,-4.7717,-4.7717,-4.7678,-4.7615,-4.7593,-4.7593,-4.7511,-4.7407,-4.737,-4.7716,-4.7483,-4.7069,-4.6832,-4.6072,-4.5188,-4.4625,-4.4064,-4.3598,-4.3598,-4.3598,-4.3598,-4.3598,-4.3598,-4.3598,-4.3598,-4.3598,-4.3598,-4.3598,-4.3598,-4.3598,-4.3598,-4.3598,-4.3598,-4.3598,-4.3598,-4.3317,-4.2572,-4.2191,-4.1723,-4.0994,-4.063,-4.01,-3.9348,-3.9299,-3.9299,-3.9299,-3.9299,-3.9299,-3.9299,-3.9299,-3.9299,-3.9299,-3.9299,-3.9325,-3.9379,-3.9379,-3.9458,-2.4991,-2.7026,-2.925,-3.0925,-3.3168,-3.5078,-3.5579,-3.6248,-3.7132,-3.8428,-3.9035,0.0,0.0,0.0,0.0,0.0,0.0,0.0,0.0,0.0,0.0,0.0,0.0,0.0,0.0,0.0,0.0,0.0,0.0,0.0,0.0,0.0,0.0,0.0,0.0,0.0,-5.2673,-5.2991,-5.3829,-5.523,-5.5509,-5.5272,-5.4594,-5.3672,-5.2978,-5.2482,-5.136,-5.0491,-4.9788,-4.928,-4.8719,-4.8131,-4.7824,-4.7678,-4.7657,-4.7615,-4.7762,-4.7889,-4.7583,-4.7616,-4.7742,-4.7395,-4.7298,-4.7361,-4.7882,-4.7621,-4.715,-4.7214,-4.6296,-4.5222,-4.4845,-4.4315,-4.3876,-4.3876,-4.3876,-4.3797,-4.3631,-4.3598,-4.3598,-4.3598,-4.3598,-4.3598,-4.3598,-4.3598,-4.3598,-4.3598,-4.3598,-4.3598,-4.3598,-4.3598,-4.3367,-4.2804,-4.2589,-4.2191,-4.1446,-4.1276,-4.0713,-3.963,-3.9398,-3.9299,-3.9299,-3.9299,-3.9299,-3.9299,-3.9299,-3.9299,-3.9299,-3.9299,-3.9299,-3.9299,-3.9299,-3.9369,-2.5675,-2.7948,-3.0109,-3.1,-3.1979,-3.3789,-3.7774,-3.8405,-3.9031,-4.2136,-4.2278,-4.1867,0.0,0.0,0.0,0.0,0.0,0.0,0.0,0.0,0.0,0.0,0.0,0.0,0.0,0.0,0.0,0.0,0.0,0.0,0.0,0.0,0.0,0.0,0.0,0.0,-5.1425,-5.1447,-5.2463,-5.4402,-5.5532,-5.5265,-5.3777,-5.3702,-5.264,-5.083,-5.0001,-4.9376,-4.8926,-4.8161,-4.7795,-4.7741,-4.7699,-4.7636,-4.7511,-4.7385,-4.7875,-4.85,-4.7615,-4.7871,-4.8482,-4.7575,-4.7272,-4.7219,-4.725,-4.7165,-4.7038,-4.7028,-4.6186,-4.5343,-4.549,-4.5085,-4.4605,-4.4605,-4.4605,-4.4423,-4.3731,-4.3598,-4.3598,-4.3598,-4.3598,-4.3598,-4.3598,-4.3598,-4.3598,-4.3598,-4.3598,-4.3598,-4.3598,-4.3598,-4.3582,-4.3515,-4.2903,-4.2191,-4.1446,-4.0829,-4.0442,-4.0326,-3.968,-3.9299,-3.9299,-3.9299,-3.9299,-3.9299,-3.9299,-3.9299,-3.9299,-3.9299,-3.9299,-3.9299,-3.9299,-3.9299,-2.495,-2.7261,-2.9534,-3.096,-3.2732,-3.4868,-3.7734,-3.9816,-4.157,-4.3091,-4.4162,-4.4992,0.0,0.0,0.0,0.0,0.0,0.0,0.0,0.0,0.0,0.0,0.0,0.0,0.0,0.0,0.0,0.0,0.0,0.0,0.0,0.0,0.0,0.0,0.0,0.0,0.0,-5.0565,-5.0943,-5.1704,-5.3416,-5.3265,-5.1472,-5.173,-5.0871,-4.9187,-4.8616,-4.8302,-4.8113,-4.7844,-4.7717,-4.7678,-4.7615,-4.749,-4.7363,-4.7302,-4.7521,-4.7849,-4.79,-4.8147,-4.8456,-4.8517,-4.8238,-4.8018,-4.896,-4.8204,-4.7301,-4.8764,-4.7633,-4.6016,-4.6062,-4.5382,-4.4835,-4.5268,-4.5019,-4.4605,-4.434,-4.3913,-4.3598,-4.3598,-4.3598,-4.3598,-4.3598,-4.3598,-4.3598,-4.3598,-4.3598,-4.3598,-4.3598,-4.3598,-4.3598,-4.3598,-4.335,-4.3069,-4.2787,-4.2137,-4.1508,-4.1044,-3.9945,-3.9299,-3.9299,-3.9299,-3.9299,-3.9299,-3.9299,-3.9299,-3.9299,-3.9299,-3.9299,-3.9299,-3.9299,-3.9299,-2.4224,-2.646,-2.8844,-3.0647,-3.3275,-3.6043,-3.842,-4.0972,-4.3301,-4.4998,-4.6161,-4.7066,-4.7643,0.0,0.0,0.0,0.0,0.0,0.0,0.0,0.0,0.0,0.0,0.0,0.0,0.0,0.0,0.0,0.0,0.0,0.0,0.0,0.0,0.0,0.0,0.0,0.0,-4.9329,-4.9329,-4.9369,-5.1,-5.1055,-4.9731,-5.0008,-4.9391,-4.811,-4.7824,-4.7717,-4.7717,-4.7717,-4.7696,-4.7636,-4.749,-4.7507,-4.7613,-4.7586,-4.7913,-4.8403,-4.8552,-4.8798,-4.9072,-4.9252,-4.896,-4.8728,-4.9799,-4.9014,-4.8015,-4.9388,-4.8336,-4.6766,-4.6766,-4.608,-4.5516,-4.6013,-4.5748,-4.5317,-4.5086,-4.4655,-4.4241,-4.4009,-4.3959,-4.3863,-4.3631,-4.3598,-4.3598,-4.3598,-4.3598,-4.3598,-4.3598,-4.3598,-4.3598,-4.3598,-4.3598,-4.3598,-4.3598,-4.292,-4.2274,-4.1761,-4.0613,-3.9779,-3.9315,-3.9299,-3.9299,-3.9299,-3.9299,-3.9299,-3.9299,-3.9299,-3.9299,-3.9299,-3.9299,-3.9299,-2.3752,-2.5831,-2.8243,-3.0003,-3.3309,-3.7,-4.0339,-4.1936,-4.3966,-4.8413,-4.8458,-4.7817,-4.8235,0.0,0.0,0.0,0.0,0.0,0.0,0.0,0.0,0.0,0.0,0.0,0.0,0.0,0.0,0.0,0.0,0.0,0.0,0.0,0.0,0.0,0.0,0.0,-4.7717,-4.7717,-4.7717,-4.7717,-4.8511,-4.8891,-4.8891,-4.8891,-4.8456,-4.7717,-4.7717,-4.7717,-4.7717,-4.7717,-4.7615,-4.749,-4.7363,-4.7698,-4.8266,-4.8227,-4.9234,-5.0564,-4.9627,-4.9907,-5.0564,-4.9609,-4.9311,-4.9311,-4.9311,-4.9311,-4.9133,-4.8431,-4.7914,-4.7614,-4.753,-4.7216,-4.6908,-4.6908,-4.6891,-4.6692,-4.5947,-4.5781,-4.5566,-4.4821,-4.4702,-4.4456,-4.3714,-4.3598,-4.3598,-4.3598,-4.3598,-4.3598,-4.3598,-4.3598,-4.3598,-4.3598,-4.3598,-4.3598,-4.3598,-4.292,-4.2489,-4.2489,-4.1794,-4.0779,-3.9381,-3.9315,-3.9315,-3.9299,-3.9299,-3.9299,-3.9299,-3.9299,-3.9299,-3.9299,-3.9299,-3.9299,-2.5346,-2.7222,-2.9655,-3.2326,-3.5413,-3.859,-4.1606,-4.3268,-4.5236,-4.9011,-4.8439,-4.7629,-4.8716,0.0,0.0,0.0,0.0,0.0,0.0,0.0,0.0,0.0,0.0,0.0,0.0,0.0,0.0,0.0,0.0,0.0,0.0,0.0,0.0,0.0,0.0,0.0,-4.7717,-4.7717,-4.7717,-4.7717,-4.7932,-4.8058,-4.8076,-4.8637,-4.8456,-4.7717,-4.7717,-4.7717,-4.7678,-4.7615,-4.749,-4.7341,-4.7249,-4.7281,-4.7459,-4.7984,-4.8508,-4.9067,-4.9852,-5.0341,-5.0597,-5.0887,-5.062,-5.0263,-5.0816,-5.0209,-4.9364,-4.9727,-4.9126,-4.8379,-4.8351,-4.8024,-4.7669,-4.7669,-4.6874,-4.6063,-4.5847,-4.5384,-4.4804,-4.4075,-4.3943,-4.3876,-4.3631,-4.3598,-4.3598,-4.3598,-4.3598,-4.3598,-4.3598,-4.3598,-4.3598,-4.3598,-4.3598,-4.3598,-4.3598,-4.34,-4.3035,-4.2522,-4.2274,-4.1541,-4.0144,-4.0078,-3.9829,-3.9315,-3.9299,-3.9299,-3.9299,-3.9299,-3.9299,-3.9299,-3.9299,-3.9299,-2.5911,-2.8181,-3.1042,-3.3658,-3.6499,-3.9491,-4.274,0.0,0.0,0.0,-4.8568,-4.7883,0.0,0.0,0.0,0.0,0.0,0.0,0.0,0.0,0.0,0.0,0.0,0.0,0.0,0.0,0.0,0.0,0.0,0.0,0.0,0.0,0.0,0.0,0.0,0.0,-4.7228,-4.7228,-4.7391,-4.7717,-4.7717,-4.7717,-4.7735,-4.8185,-4.8149,-4.7696,-4.7636,-4.7615,-4.7615,-4.749,-4.7359,-4.7272,-4.7223,-4.7308,-4.7574,-4.8336,-4.8835,-4.9281,-5.053,-5.0976,-5.1066,-5.153,-5.1369,-5.1066,-5.1547,-5.103,-5.0298,-5.0459,-5.0039,-4.9413,-4.8849,-4.8307,-4.7925,-4.8,-4.7322,-4.6676,-4.6676,-4.6311,-4.5698,-4.4688,-4.4489,-4.4277,-4.3698,-4.3598,-4.3598,-4.3598,-4.3598,-4.3598,-4.3598,-4.3598,-4.3598,-4.3598,-4.3598,-4.3598,-4.3598,-4.3598,-4.34,-4.2969,-4.2936,-4.2274,-4.0862,-4.0558,-4.0061,-3.9315,-3.9299,-3.9299,-3.9299,-3.9299,-3.9299,-3.9299,-3.9299,-3.9299,-2.5869,-2.875,-3.2155,-3.4349,-3.714,0.0,-4.3761,-4.6511,-4.8522,-4.9074,0.0,0.0,0.0,0.0,0.0,0.0,0.0,0.0,0.0,0.0,0.0,0.0,0.0,0.0,0.0,0.0,0.0,0.0,0.0,0.0,0.0,0.0,0.0,0.0,0.0,0.0,-4.6377,-4.6468,-4.6866,0.0,-4.7642,-4.7717,-4.7717,-4.7717,-4.7717,-4.7678,-4.7554,-4.7511,-4.749,-4.7341,-4.7249,-4.7196,-4.7196,-4.7558,-4.8181,-4.8942,-4.9674,-5.0405,-5.1191,-5.153,-5.1583,-5.1583,-5.1637,-5.169,-5.169,-5.169,-5.153,-5.0727,-5.0643,-5.0492,-4.9054,-4.8246,-4.7835,-4.7881,-4.7901,-4.7885,-4.7819,-4.7802,-4.7355,-4.5881,-4.5599,-4.5168,-4.383,-4.3598,-4.3598,-4.3598,-4.3598,-4.3598,-4.3598,-4.3598,-4.3598,-4.3598,-4.3598,-4.3598,-4.3598,-4.3598,-4.3598,-4.3598,-4.3598,-4.2936,-4.1446,-4.0812,-4.0127,-3.9315,-3.9299,-3.9299,-3.9299,-3.9299,-3.9299,-3.9299,-3.9299,-3.9299,-2.7031,-2.8815,-3.1438,-3.61,-4.004,-4.3113,-4.4568,-4.5273,-4.6167,-4.8037,0.0,0.0,0.0,0.0,0.0,0.0,0.0,0.0,0.0,0.0,0.0,0.0,0.0,0.0,0.0,0.0,0.0,0.0,0.0,0.0,0.0,0.0,0.0,0.0,0.0,-4.5381,-4.5562,-4.6178,-4.6595,0.0,-4.7409,-4.7717,-4.7717,-4.7717,-4.7717,-4.7678,-4.7554,-4.7511,-4.749,-4.7312,-4.7201,-4.7196,-4.7088,-4.7132,-4.7359,-4.8163,-4.8556,-4.8805,-4.9567,-5.0245,-5.0762,-5.0762,-5.1191,-5.169,-5.169,-5.169,-5.153,-5.0727,-5.0643,-5.0492,-4.9054,-4.8246,-4.77,-4.7233,-4.7139,-4.6974,-4.6394,-4.6262,-4.5831,-4.4373,-4.4062,-4.3962,-4.3648,-4.3598,-4.3598,-4.3598,-4.3598,-4.3598,-4.3598,-4.3598,-4.3598,-4.3598,-4.3598,-4.3598,-4.3598,-4.3598,-4.3598,-4.3598,-4.3598,-4.2936,-4.1446,-4.1276,-4.058,-3.9332,-3.9299,-3.9299,-3.9299,-3.9299,-3.9299,-3.9299,-3.9299,-3.9299,-2.6988,-2.9042,-3.2058,-3.7262,0.0,-4.3412,-4.4225,-4.4629,-4.5156,0.0,0.0,0.0,0.0,0.0,0.0,0.0,0.0,0.0,0.0,0.0,0.0,0.0,0.0,0.0,0.0,0.0,0.0,0.0,0.0,0.0,0.0,0.0,0.0,0.0,-4.415,-4.4331,-4.4711,-4.5146,-4.5544,-4.5943,-4.6739,-4.7138,-4.7156,-4.7515,-4.7657,-4.7593,-4.7468,-4.7403,-4.7338,-4.7178,-4.7111,-4.7088,-4.702,-4.6998,-4.7087,-4.7913,-4.8199,-4.8323,-4.9049,-4.981,-5.0513,-5.0513,-5.1048,-5.169,-5.169,-5.169,-5.153,-5.0727,-5.0403,-4.9958,-4.8529,-4.7728,-4.7127,-4.6502,-4.6361,-4.6262,-4.5864,-4.5798,-4.5467,-4.434,-4.4141,-4.4026,-4.3648,-4.3598,-4.3598,-4.3598,-4.3598,-4.3598,-4.3598,-4.3598,-4.3598,-4.3598,-4.3598,-4.3598,-4.3598,-4.3598,-4.3598,-4.3598,-4.3598,-4.3085,-4.196,-4.1579,-4.0746,-3.9332,-3.9299,-3.9299,-3.9299,-3.9299,-3.9299,-3.9299,-3.9299,-3.9299,-2.6454,-2.9476,-3.3239,-3.75,-4.0253,0.0,-4.2965,-4.3566,-4.4026,0.0,0.0,0.0,0.0,0.0,0.0,0.0,0.0,0.0,0.0,0.0,0.0,0.0,0.0,0.0,0.0,0.0,0.0,0.0,0.0,0.0,0.0,0.0,-4.2882,-4.2881,-4.2881,-4.3189,-4.3877,-4.3984,-4.4382,-4.509,-4.5884,-4.6243,-4.6261,-4.6931,-4.7196,-4.7093,-4.6967,-4.6948,-4.6981,-4.6851,-4.6855,-4.6998,-4.6998,-4.6998,-4.7092,-4.7752,-4.7984,-4.8091,-4.8693,-4.9442,-5.0102,-5.0102,-5.0727,-5.1458,-5.1333,-5.1476,-5.153,-5.0727,-5.0285,-4.9688,-4.8186,-4.7347,-4.665,-4.5801,-4.55,-4.545,-4.5566,-4.5599,-4.5384,-4.4638,-4.4506,-4.4324,-4.3698,-4.3598,-4.3598,-4.3598,-4.3598,-4.3598,-4.3598,-4.3598,-4.3598,-4.3598,-4.3598,-4.3598,-4.3598,-4.3598,-4.3598,-4.3598,-4.3598,-4.3267,-4.2522,-4.1778,-4.0796,-3.9514,-3.9365,-3.9299,-3.9299,-3.9299,-3.9299,-3.9299,-3.9299,-3.9299,-2.6083,0.0,-3.4237,0.0,-3.7843,-3.975,0.0,0.0,0.0,0.0,0.0,0.0,0.0,0.0,0.0,0.0,0.0,0.0,0.0,0.0,0.0,0.0,0.0,0.0,0.0,0.0,0.0,0.0,0.0,0.0,0.0,-4.2901,-4.2862,-4.2822,-4.2822,-4.2876,-4.2985,-4.3554,-4.3951,-4.4175,-4.4867,-4.5204,-4.5204,-4.5312,-4.5407,-4.5508,-4.5366,-4.5638,-4.6157,-4.6025,-4.6373,-4.6998,-4.6998,-4.6998,-4.6998,-4.7105,-4.7158,-4.7181,-4.7265,-4.7818,-4.852,-4.852,-4.9478,-5.053,-4.981,-5.0602,-5.153,-5.0727,-5.0945,-5.0986,-4.9122,-4.8124,-4.7118,-4.5287,-4.4357,-4.4092,-4.4705,-4.4868,-4.4622,-4.388,-4.3731,-4.3714,-4.3615,-4.3598,-4.3598,-4.3598,-4.3598,-4.3598,-4.3598,-4.3598,-4.3598,-4.3598,-4.3598,-4.3598,-4.3598,-4.3598,-4.3598,-4.3598,-4.3598,-4.3267,-4.2522,-4.1778,-4.1044,-4.0276,-3.963,-3.9299,-3.9299,-3.9299,-3.9299,-3.9299,-3.9299,-3.9299,-2.6076,-2.8947,-3.1839,0.0,-3.5534,-3.7363,-3.899,0.0,0.0,0.0,0.0,0.0,0.0,0.0,0.0,0.0,0.0,0.0,0.0,0.0,0.0,0.0,0.0,0.0,0.0,0.0,0.0,0.0,0.0,0.0,-4.2728,-4.2728,-4.2727,-4.2688,-4.2688,0.0,-4.2688,-4.2989,-4.3384,-4.3895,-4.3726,-4.3886,-4.4317,-4.3868,-4.4155,-4.4979,-4.4899,-4.5011,-4.5207,-4.5164,-4.5606,-4.632,-4.632,-4.6587,-4.6998,-4.6998,-4.6998,-4.6998,-4.6998,-4.7538,-4.8199,-4.8199,-4.8925,-4.9757,-4.94,-4.9775,-5.0209,-4.9424,-4.9212,-4.8942,-4.7683,-4.6633,-4.5676,-4.4803,-4.4064,-4.3681,-4.4026,-4.4092,-4.3992,-4.3648,-4.3598,-4.3598,-4.3598,-4.3598,-4.3598,-4.3598,-4.3598,-4.3598,-4.3598,-4.3598,-4.3598,-4.3598,-4.3598,-4.3598,-4.3598,-4.3598,-4.3598,-4.3598,-4.3598,-4.3449,-4.3118,-4.2406,-4.169,-4.0961,-3.9879,-3.9299,-3.9299,-3.9299,-3.9299,-3.9299,-3.9299,-3.9299,0.0,0.0,-2.9837,-3.1395,-3.3218,-3.5114,0.0,0.0,0.0,0.0,0.0,0.0,0.0,0.0,0.0,0.0,0.0,0.0,0.0,0.0,0.0,0.0,0.0,0.0,0.0,0.0,0.0,0.0,0.0,0.0,-4.2609,-4.2609,-4.2589,-4.2588,-4.257,-4.257,-4.257,-4.257,-4.2855,-4.3409,-4.2817,-4.2835,-4.3391,-4.2799,-4.3135,-4.4163,-4.4202,-4.4246,-4.4317,-4.4317,-4.4763,-4.5517,-4.5731,-4.6159,-4.6712,-4.6908,-4.6998,-4.6998,-4.6998,-4.7395,-4.7895,-4.7895,-4.8407,-4.9032,-4.9032,-4.9133,-4.9186,-4.8621,-4.8287,-4.7914,-4.7026,-4.6056,-4.5218,-4.4863,-4.4169,-4.3598,-4.3598,-4.3598,-4.3598,-4.3598,-4.3598,-4.3598,-4.3598,-4.3598,-4.3598,-4.3598,-4.3598,-4.3598,-4.3598,-4.3598,-4.3598,-4.3598,-4.3598,-4.3598,-4.3598,-4.3598,-4.3598,-4.3598,-4.3598,-4.3598,-4.3598,-4.2886,-4.2142,-4.1397,-4.0365,-3.9663,-3.9299,-3.9497,-3.9481,-3.9299,-3.9497,-3.958,0.0,-2.8341,0.0,-2.8756,-3.0805,0.0,0.0,0.0,0.0,0.0,0.0,0.0,0.0,0.0,0.0,0.0,0.0,0.0,0.0,0.0,0.0,0.0,0.0,0.0,0.0,0.0,0.0,0.0,0.0,0.0,-4.2609,-4.2609,-4.2568,-4.2503,-4.2503,-4.2503,-4.2503,-4.2503,-4.2463,-4.2379,-4.2325,-4.2325,-4.2379,-4.2325,-4.2361,-4.2433,-4.257,-4.2997,-4.3551,-4.3551,-4.3979,-4.4728,-4.5517,-4.5838,-4.5945,-4.6712,-4.6998,-4.6998,-4.6998,-4.7015,-4.7051,-4.7051,-4.7609,-4.827,-4.827,-4.8746,-4.9293,-4.924,-4.9775,-5.0026,-4.8727,-4.7962,-4.7203,-4.5852,-4.4549,-4.3598,-4.3598,-4.3598,-4.3598,-4.3598,-4.3598,-4.3598,-4.3598,-4.3598,-4.3598,-4.3598,-4.3598,-4.3598,-4.3598,-4.3598,-4.3598,-4.3598,-4.3598,-4.3598,-4.3598,-4.3598,-4.3598,-4.3598,-4.3598,-4.3598,-4.3598,-4.2886,-4.2142,-4.1397,-4.1342,-4.063,-3.9299,-4.0011,-3.9978,-3.9315,-4.0028,-4.0343,0.0,0.0,0.0,-2.8126,-2.902,-3.0139,0.0,0.0,0.0,0.0,0.0,0.0,0.0,0.0,0.0,0.0,0.0,0.0,0.0,0.0,0.0,0.0,0.0,0.0,0.0,0.0,0.0,0.0,0.0,0.0,-4.2374,-4.2409,-4.2389,-4.2366,-4.2366,-4.2366,-4.2366,-4.2366,-4.2346,-4.2308,-4.2308,-4.2308,-4.2308,-4.2308,-4.2308,-4.2308,-4.2346,-4.2507,-4.2769,-4.3304,-4.3925,-4.4674,-4.5499,-4.5802,-4.5909,-4.6694,-4.6659,-4.6302,-4.6819,-4.6998,-4.6998,-4.6998,-4.7556,-4.8199,-4.8199,-4.871,-4.9293,-4.9293,-4.9507,-4.9626,-4.9128,-4.7979,-4.6622,-4.5333,-4.4304,-4.3714,-4.4208,-4.3943,-4.3598,-4.3598,-4.3598,-4.3598,-4.3598,-4.3598,-4.3598,-4.3598,-4.3598,-4.3598,-4.3598,-4.3598,-4.3598,-4.3598,-4.3598,-4.3598,-4.3598,-4.3598,-4.3598,-4.3598,-4.3598,-4.3598,-4.3598,-4.335,-4.2853,-4.2109,-4.2092,-4.1409,-4.0011,-4.0696,-4.0912,-4.0647,-4.0928,-4.1044,-2.667,0.0,0.0,0.0,0.0,-2.8745,0.0,0.0,0.0,0.0,0.0,0.0,0.0,0.0,0.0,0.0,0.0,0.0,0.0,0.0,0.0,0.0,0.0,0.0,0.0,0.0,0.0,0.0,0.0,0.0,-4.1859,-4.2144,-4.2308,-4.2308,-4.2308,-4.2308,-4.2308,-4.2308,-4.2308,-4.2308,-4.2308,-4.2308,-4.2308,-4.2308,-4.2308,-4.2308,-4.2308,-4.2308,-4.2343,-4.2876,-4.3554,-4.4264,-4.4821,-4.5178,-4.5499,-4.6302,-4.6266,-4.5927,-4.6712,-4.6998,-4.6998,-4.6998,-4.7377,-4.7895,-4.8407,-4.8728,-4.9049,-4.9543,-4.9685,-4.9661,-4.9447,-4.798,-4.6175,-4.4693,-4.4158,-4.4042,-4.4274,-4.3959,-4.3598,-4.3598,-4.3598,-4.3664,-4.3943,-4.3976,-4.3976,-4.3976,-4.3976,-4.3893,-4.3631,-4.3598,-4.3598,-4.3598,-4.3598,-4.3598,-4.3598,-4.3598,-4.3598,-4.3598,-4.3598,-4.3598,-4.3598,-4.3598,-4.3251,-4.2506,-4.2738,-4.2171,-4.0766,-4.1444,-4.1657,-4.1425,-4.1645,-4.1789,0.0,0.0,0.0,0.0,0.0,0.0,0.0,0.0,0.0,0.0,0.0,0.0,0.0,0.0,0.0,0.0,0.0,0.0,0.0,0.0,0.0,0.0,0.0,0.0,0.0,0.0,0.0,0.0,0.0,-4.1056,-4.1092,-4.1859,-4.2308,-4.2308,-4.2308,-4.2308,-4.2308,-4.2308,-4.2308,-4.2308,-4.2308,-4.2308,-4.2308,-4.2308,-4.2308,-4.2308,-4.2308,-4.2308,-4.2308,-4.2343,-4.2804,-4.3497,-4.3515,-4.3961,-4.4656,-4.5481,-4.5766,-4.5873,-4.6676,-4.6962,-4.6998,-4.6998,-4.7015,-4.7319,-4.8829,-4.88,-4.8556,-5.0066,-5.0477,-5.0318,-4.967,-4.8107,-4.6132,-4.4125,-4.4191,-4.4489,-4.378,-4.3631,-4.3615,-4.3598,-4.3615,-4.3876,-4.4572,-4.4735,-4.4721,-4.4688,-4.4688,-4.4423,-4.3681,-4.3598,-4.3598,-4.3598,-4.3598,-4.3598,-4.3598,-4.3598,-4.3598,-4.3598,-4.3598,-4.3598,-4.3598,-4.3598,-4.3251,-4.2539,-4.3234,-4.292,-4.1563,-4.2213,-4.2142,-4.1463,-4.2191,-4.2522,-2.7568,0.0,0.0,0.0,0.0,0.0,0.0,0.0,0.0,0.0,0.0,0.0,0.0,0.0,0.0,0.0,0.0,0.0,0.0,0.0,0.0,0.0,0.0,0.0,0.0,0.0,0.0,0.0,-3.8986,-3.9932,-4.1038,-4.1859,-4.2308,-4.2308,-4.2308,-4.2308,-4.2308,-4.2308,-4.2308,-4.2308,-4.2308,-4.2308,-4.2308,-4.2308,-4.2308,-4.2308,-4.2308,-4.2308,-4.2361,-4.2929,-4.3304,-4.3533,-4.4086,-4.4086,-4.3889,-4.4638,-4.4924,-4.5049,-4.5856,-4.6516,-4.6998,-4.6998,-4.7395,-4.8056,-4.9014,-4.915,-4.921,-5.0227,-5.006,-4.9277,-4.7753,-4.6632,-4.5655,-4.4654,-4.4539,-4.4622,-4.444,-4.439,-4.4241,-4.3698,-4.4042,-4.4456,-4.4655,-4.5135,-4.5301,-4.4771,-4.4688,-4.4423,-4.3681,-4.3598,-4.3598,-4.3598,-4.3598,-4.3598,-4.3598,-4.3598,-4.3598,-4.3598,-4.3598,-4.3598,-4.3598,-4.3598,-4.3499,-4.33,-4.3499,-4.3393,-4.3029,-4.3224,-4.293,-4.2278,-4.296,-4.33,0.0,0.0,0.0,0.0,0.0,0.0,0.0,-2.7188,0.0,0.0,0.0,0.0,0.0,0.0,0.0,0.0,0.0,0.0,0.0,0.0,0.0,0.0,0.0,0.0,0.0,0.0,0.0,0.0,-3.7844,-3.9129,-4.1002,-4.1859,-4.2308,-4.2308,-4.2308,-4.2308,-4.2308,-4.2308,-4.2308,-4.2308,-4.2308,-4.2308,-4.2308,-4.2308,-4.2308,-4.2308,-4.2308,-4.2308,-4.2343,-4.2804,-4.3197,-4.3518,-4.3607,-4.359,-4.3586,-4.4317,-4.4603,-4.4745,-4.5909,-4.6605,-4.6998,-4.6998,-4.7324,-4.7841,-4.8603,-4.8835,-4.9014,-4.9781,-4.932,-4.8294,-4.6945,-4.614,-4.5587,-4.5227,-4.5384,-4.5516,-4.5218,-4.5152,-4.4854,-4.3797,-4.3959,-4.444,-4.5036,-4.5516,-4.5649,-4.5202,-4.5417,-4.5135,-4.3764,-4.3863,-4.3959,-4.3631,-4.3598,-4.3598,-4.3598,-4.3598,-4.3598,-4.3598,-4.3598,-4.3598,-4.3598,-4.3598,-4.3598,-4.3598,-4.3598,-4.3598,-4.3598,-4.3598,-4.3402,-4.3035,-4.3432,-4.3598,0.0,0.0,0.0,0.0,0.0,0.0,-2.9547,-2.7691,0.0,0.0,0.0,0.0,0.0,0.0,0.0,0.0,0.0,0.0,0.0,0.0,0.0,0.0,0.0,0.0,0.0,0.0,-3.5239,-3.5953,-3.7006,-3.854,-4.0735,-4.168,-4.2183,-4.2183,-4.2254,-4.2308,-4.2308,-4.2308,-4.2308,-4.2308,-4.2308,-4.2308,-4.2308,-4.2308,-4.2308,-4.2308,-4.2308,-4.2308,-4.2308,-4.2308,-4.2715,-4.3304,-4.2573,-4.2733,-4.3465,-4.4086,-4.4389,-4.4674,-4.6123,-4.6659,-4.6748,-4.6837,-4.6855,-4.7015,-4.7931,-4.8145,-4.8193,-4.88,-4.8179,-4.7217,-4.6707,-4.6136,-4.5698,-4.5765,-4.6361,-4.6692,-4.5947,-4.5847,-4.5483,-4.3995,-4.3714,-4.4144,-4.5549,-4.5864,-4.5914,-4.5914,-4.6477,-4.6129,-4.3979,-4.4291,-4.4423,-4.3664,-4.3598,-4.3598,-4.3598,-4.3598,-4.3598,-4.3598,-4.3598,-4.3598,-4.3598,-4.3598,-4.3598,-4.3598,-4.3598,-4.3598,-4.3598,-4.3539,-4.3539,-4.3598,-4.3598,-4.3598,0.0,0.0,0.0,0.0,0.0,0.0,-2.9311,-2.8706,0.0,0.0,0.0,0.0,0.0,0.0,0.0,0.0,0.0,0.0,0.0,0.0,0.0,0.0,0.0,0.0,0.0,0.0,-3.3418,-3.3578,-3.6077,-3.8076,-3.92,-4.0574,-4.1324,-4.1324,-4.1948,-4.2308,-4.2308,-4.2308,-4.2308,-4.2308,-4.2308,-4.2308,-4.2308,-4.2308,-4.2308,-4.2308,-4.2308,-4.2308,-4.2308,-4.2308,-4.2376,-4.2519,-4.2361,-4.2415,-4.2537,-4.2697,-4.3161,-4.3747,-4.4089,-4.4571,-4.5195,-4.582,-4.6034,-4.6302,-4.777,-4.7752,-4.7178,-4.6901,-4.6288,-4.5772,-4.5812,-4.5369,-4.5052,-4.5649,-4.6361,-4.6692,-4.5947,-4.6262,-4.6245,-4.4771,-4.4473,-4.4771,-4.5649,-4.6278,-4.6676,-4.6676,-4.6808,-4.6311,-4.4688,-4.4605,-4.4423,-4.3664,-4.3598,-4.3598,-4.3598,-4.3598,-4.3598,-4.3598,-4.3598,-4.3598,-4.3598,-4.3598,-4.3598,-4.3598,-4.3598,-4.3598,-4.3598,-4.3066,-4.3066,-4.3598,-4.3598,-4.3598,0.0,0.0,0.0,-3.1148,0.0,0.0,0.0,-2.9578,-2.8772,0.0,0.0,0.0,0.0,0.0,0.0,0.0,0.0,0.0,0.0,0.0,0.0,0.0,0.0,0.0,0.0,0.0,-3.2043,-3.2829,-3.5828,-3.7791,-3.8183,-3.9664,-4.0503,-4.0503,-4.0895,-4.1306,-4.1698,-4.1698,-4.1895,-4.2308,-4.2308,-4.2308,-4.2308,-4.2308,-4.2308,-4.2308,-4.2308,-4.2308,-4.2308,-4.2308,-4.2308,-4.2308,-4.2308,-4.2308,-4.2361,-4.2751,-4.3161,-4.3533,-4.3907,-4.4282,-4.4656,-4.5066,-4.5481,-4.5945,-4.6748,-4.6998,-4.6842,-4.5978,-4.5528,-4.528,-4.5185,-4.5196,-4.5417,-4.6162,-4.6908,-4.7355,-4.6974,-4.6891,-4.6676,-4.593,-4.5185,-4.4835,-4.5185,-4.5847,-4.6344,-4.6344,-4.6974,-4.6924,-4.5433,-4.5235,-4.4953,-4.4241,-4.3813,-4.3598,-4.3598,-4.3598,-4.3598,-4.3598,-4.3598,-4.3598,-4.3598,-4.3598,-4.3598,-4.3598,-4.3598,-4.3598,-4.3598,-4.3265,-4.3265,-4.3598,-4.3598,-4.3598,0.0,0.0,0.0,0.0,0.0,-3.2301,0.0,0.0,0.0,-2.9222,0.0,0.0,0.0,0.0,0.0,0.0,0.0,0.0,0.0,0.0,0.0,0.0,0.0,0.0,0.0,0.0,-3.1141,-3.2775,-3.5365,-3.7023,-3.7363,-3.8701,-3.9539,-3.9681,-3.9823,-4.0307,-4.1092,-4.1092,-4.1502,-4.2308,-4.2308,-4.2308,-4.2308,-4.2308,-4.2308,-4.2308,-4.2308,-4.2308,-4.2308,-4.2308,-4.2308,-4.2308,-4.2308,-4.2308,-4.2397,-4.3036,-4.3268,-4.3358,-4.3964,-4.4096,-4.4027,-4.4169,-4.4885,-4.5708,-4.5958,-4.6412,-4.6619,-4.5588,-4.5241,-4.5125,-4.494,-4.5235,-4.5847,-4.6874,-4.7454,-4.7835,-4.7968,-4.7421,-4.6858,-4.6709,-4.5599,-4.4738,-4.487,-4.54,-4.5847,-4.598,-4.7156,-4.7471,-4.598,-4.5798,-4.5516,-4.4771,-4.4042,-4.3648,-4.378,-4.3664,-4.3598,-4.3598,-4.3598,-4.3598,-4.3598,-4.3598,-4.3598,-4.3598,-4.3598,-4.3598,-4.3598,-4.3731,-4.3731,-4.3598,-4.3598,-4.3598,0.0,0.0,0.0,0.0,-3.3643,0.0,0.0,0.0,-3.1444,-2.9997,0.0,0.0,0.0,0.0,0.0,0.0,0.0,0.0,0.0,0.0,0.0,0.0,0.0,0.0,0.0,0.0,0.0,-3.2759,-3.3715,-3.4906,-3.6453,-3.738,-3.8183,-3.8896,-3.9556,-4.0307,-4.1092,-4.1092,-4.1502,-4.2308,-4.2308,-4.2308,-4.2308,-4.2308,-4.2308,-4.2308,-4.2308,-4.2308,-4.2308,-4.2308,-4.2308,-4.2308,-4.2308,-4.2308,-4.2305,-4.2415,-4.243,-4.2468,-4.2519,-4.2246,-4.1969,-4.2678,-4.3932,-4.5388,-4.6509,-4.659,-4.6144,-4.5503,-4.4947,-4.4767,-4.5485,-4.5235,-4.5334,-4.7388,-4.7438,-4.7206,-4.7868,-4.7421,-4.6709,-4.6046,-4.5251,-4.4903,-4.5549,-4.5732,-4.6013,-4.6676,-4.7471,-4.7471,-4.598,-4.5798,-4.5516,-4.4771,-4.4042,-4.3876,-4.4506,-4.3992,-4.3598,-4.3598,-4.3598,-4.3598,-4.3598,-4.3598,-4.3598,-4.3598,-4.3598,-4.3598,-4.3598,-4.4257,-4.4241,-4.3598,-4.3598,-4.3598,0.0,0.0,0.0,0.0,0.0,0.0,0.0,0.0,-3.1463,0.0,0.0,0.0,0.0,0.0,0.0,0.0,0.0,0.0,0.0,0.0,0.0,0.0,0.0,0.0,0.0,0.0,0.0,0.0,0.0,-3.3799,-3.5007,-3.6221,-3.7059,-3.7398,-3.8165,-3.9165,-4.0396,-4.0414,-4.1038,-4.2308,-4.2308,-4.2308,-4.2308,-4.2308,-4.2308,-4.2308,-4.2308,-4.2308,-4.2308,-4.2308,-4.2308,-4.2308,-4.2308,-4.2308,-4.2308,-4.2308,-4.2308,-4.2308,-4.2308,-4.2145,-4.2175,-4.3416,-4.3845,-4.4223,-4.6011,-4.6144,-4.5554,-4.4991,-4.468,-4.4513,-4.4507,-4.492,-4.5566,-4.6493,-4.7139,-4.762,-4.7934,-4.7769,-4.7322,-4.6576,-4.5831,-4.5433,-4.5748,-4.5433,-4.54,-4.6146,-4.6891,-4.7289,-4.7106,-4.6328,-4.5665,-4.5367,-4.4307,-4.3714,-4.4042,-4.3764,-4.3598,-4.3598,-4.3598,-4.3598,-4.3598,-4.3598,-4.3598,-4.3598,-4.4026,-4.4241,-4.4241,-4.497,-4.4953,-4.4241,-4.4241,-4.4026,-3.7997,0.0,0.0,0.0,0.0,0.0,0.0,0.0,0.0,0.0,0.0,0.0,0.0,0.0,0.0,0.0,0.0,0.0,0.0,0.0,0.0,0.0,0.0,0.0,0.0,0.0,0.0,0.0,-3.1428,0.0,-3.3723,-3.4829,-3.5739,-3.6381,-3.697,-3.8023,-3.9574,-3.9788,-4.061,-4.1966,-4.218,-4.2308,-4.2308,-4.2308,-4.2308,-4.2308,-4.2308,-4.2308,-4.2308,-4.2308,-4.2308,-4.2308,-4.2308,-4.2308,-4.2308,-4.2308,-4.2308,-4.2308,-4.2308,-4.2124,-4.2143,-4.3678,-4.3539,-4.3219,-4.5306,-4.5528,-4.5001,-4.4597,-4.439,-4.4184,-4.3979,-4.4705,-4.5582,-4.5997,-4.6924,-4.7752,-4.7968,-4.7835,-4.7487,-4.6742,-4.6162,-4.5732,-4.5516,-4.5202,-4.5235,-4.598,-4.656,-4.7023,-4.7355,-4.646,-4.5715,-4.5516,-4.4539,-4.391,-4.391,-4.3714,-4.3598,-4.3598,-4.3598,-4.3598,-4.3598,-4.378,-4.391,-4.391,-4.4622,-4.4986,-4.4986,-4.5732,-4.5616,-4.4688,-4.4688,-4.4307,0.0,0.0,0.0,-3.7717,0.0,0.0,0.0,0.0,-3.3116,0.0,0.0,0.0,0.0,0.0,0.0,-2.7223,0.0,0.0,0.0,0.0,0.0,0.0,0.0,0.0,0.0,0.0,0.0,0.0,-2.9996,0.0,-3.2864,-3.2989,-3.406,-3.6328,-3.6435,-3.722,-3.8807,-3.9538,-4.0324,-4.1145,-4.1933,-4.2308,-4.2308,-4.2308,-4.2308,-4.2308,-4.2308,-4.2308,-4.2308,-4.2308,-4.2308,-4.2308,-4.2308,-4.2308,-4.2308,-4.2308,-4.2308,-4.2308,-4.2308,-4.1661,-4.1091,-4.2575,-4.2723,-4.2709,-4.4724,-4.4947,-4.453,-4.4502,-4.4093,-4.3777,-4.4473,-4.4688,-4.5086,-4.6527,-4.6891,-4.7123,-4.7852,-4.7438,-4.6709,-4.5963,-4.5814,-4.5566,-4.4854,-4.5301,-4.6013,-4.6742,-4.6874,-4.6643,-4.5947,-4.5814,-4.5516,-4.4804,-4.4671,-4.4655,-4.4655,-4.4026,-4.3598,-4.3598,-4.3598,-4.3598,-4.3598,-4.4291,-4.4655,-4.4655,-4.5384,-4.5748,-4.5765,-4.651,-4.6113,-4.4688,-4.4688,-4.4307,0.0,0.0,-3.7705,-3.8947,0.0,0.0,0.0,0.0,0.0,0.0,0.0,0.0,0.0,0.0,-2.8998,-2.7879,0.0,0.0,0.0,0.0,0.0,0.0,0.0,0.0,0.0,0.0,0.0,-2.8792,-2.9167,-3.009,0.0,-3.2485,-3.3739,-3.556,-3.6114,-3.7166,-3.879,-3.952,-4.0287,-4.1109,-4.1912,-4.2308,-4.2308,-4.2308,-4.2308,-4.2308,-4.2308,-4.2308,-4.2308,-4.2308,-4.2308,-4.2308,-4.2308,-4.2308,-4.2308,-4.2308,-4.2308,-4.2308,-4.2308,-4.164,-4.1091,-4.2925,-4.2715,-4.2077,-4.4166,-4.4361,-4.3889,-4.3889,-4.3759,-4.3648,-4.3926,-4.4324,-4.4937,-4.593,-4.6527,-4.7106,-4.7835,-4.7802,-4.7404,-4.6659,-4.6527,-4.6444,-4.6195,-4.6361,-4.6609,-4.6858,-4.6891,-4.699,-4.7222,-4.6825,-4.6245,-4.55,-4.4986,-4.4489,-4.4026,-4.4191,-4.4539,-4.5036,-4.5069,-4.4837,-4.4357,-4.5036,-4.5185,-4.4705,-4.5897,-4.6527,-4.6527,-4.7272,-4.6874,-4.5417,-4.5417,-4.4771,-3.8643,-3.8005,0.0,0.0,-3.7233,0.0,-3.74,0.0,0.0,0.0,0.0,0.0,0.0,0.0,0.0,-2.8164,-2.686,0.0,0.0,-2.5615,0.0,0.0,0.0,0.0,0.0,0.0,-2.7731,-2.8045,-2.827,-2.9092,0.0,0.0,-3.2896,-3.5133,-3.5703,-3.6756,-3.8362,-3.9129,-3.9914,-4.0681,-4.1484,-4.2022,-4.2308,-4.2308,-4.2308,-4.2308,-4.2308,-4.2308,-4.2308,-4.2308,-4.2308,-4.2308,-4.2308,-4.2308,-4.2308,-4.2308,-4.2308,-4.2308,-4.2308,-4.1816,-4.1447,-4.3006,-4.2722,-4.2079,-4.3679,-4.3906,-4.3598,-4.3598,-4.378,-4.3943,-4.3664,-4.434,-4.5202,-4.5682,-4.6361,-4.7106,-4.7835,-4.8001,-4.7785,-4.704,-4.7106,-4.7206,-4.6941,-4.7123,-4.7289,-4.7289,-4.7073,-4.7073,-4.7554,-4.7189,-4.6609,-4.5864,-4.5599,-4.5185,-4.4456,-4.4821,-4.5284,-4.5765,-4.5798,-4.5582,-4.5102,-4.5798,-4.6079,-4.5864,-4.6808,-4.7421,-4.7686,-4.7901,-4.7371,-4.6179,-4.5914,-4.5152]},{"header":{"parameterUnit":"m.s-1","parameterCategory":1,"la1":30.6,"la2":29.2853,"lo1":-89.7004,"lo2":-87.6739,"dy":0.0162,"dx":0.0183,"nx":112,"ny":82,"refTime":"2023-05-07T12:00:00:Z","depth":0,"parameterNumber":3,"parameterNumberName":"V-component_of_WINDS"},"data":[0.0,0.0,0.0,0.0,0.0,0.0,0.0,0.0,0.0,0.0,0.0,0.0,0.0,0.0,0.0,0.0,0.0,0.0,0.0,0.0,0.0,0.0,0.0,0.0,0.0,0.0,0.0,0.0,0.0,0.0,0.0,0.0,0.0,0.0,0.0,0.0,0.0,0.0,0.0,0.0,0.0,0.0,0.0,0.0,0.0,0.0,0.0,0.0,0.0,0.0,0.0,0.0,0.0,0.0,0.0,0.0,0.0,0.0,0.0,0.0,0.0,0.0,0.0,0.0,0.0,0.0,0.0,0.0,0.0,0.0,0.0,0.0,0.0,0.0,0.0,0.0,0.0,0.0,0.0,0.0,0.0,0.0,0.0,0.0,0.0,0.0,0.0,0.0,0.0,0.0,0.0,1.3441,1.4628,1.4834,1.3953,1.4908,1.5026,1.3787,0.0,0.0,0.0,0.0,0.0,0.0,0.0,0.0,0.0,0.0,0.0,0.0,0.0,0.0,0.0,0.0,0.0,0.0,0.0,0.0,0.0,0.0,0.0,0.0,0.0,0.0,0.0,0.0,0.0,0.0,0.0,0.0,0.0,0.0,0.0,0.0,0.0,0.0,0.0,0.0,0.0,0.0,0.0,0.0,0.0,0.0,0.0,0.0,0.0,0.0,0.0,0.0,0.0,0.0,0.0,0.0,0.0,0.0,0.0,0.0,0.0,0.0,0.0,0.0,0.0,0.0,0.0,0.0,0.0,0.0,0.0,0.0,0.0,0.0,0.0,0.0,0.0,0.0,0.0,0.0,0.0,0.0,0.0,0.0,0.0,0.0,0.0,0.0,0.0,0.0,0.0,0.0,0.0,0.0,0.0,0.0,0.0,0.0,0.0,0.0,0.0,0.0,0.0,0.0,1.1307,1.2862,1.3788,1.4542,1.5162,1.4779,1.4436,1.421,0.0,0.0,0.0,0.0,0.0,0.0,0.0,0.0,0.0,0.0,0.0,0.0,0.0,0.0,0.0,0.0,0.0,0.0,0.0,0.0,0.0,0.0,0.0,0.0,0.0,0.0,0.0,0.0,0.0,0.0,0.0,0.0,0.0,0.0,0.0,0.0,0.0,0.0,0.0,0.0,0.0,0.0,0.0,0.0,0.0,0.0,0.0,0.0,0.0,0.0,0.0,0.0,0.0,0.0,0.0,0.0,0.0,0.0,0.0,0.0,0.0,0.0,0.0,0.0,0.0,0.0,0.0,0.0,0.0,0.0,0.0,0.0,0.0,0.0,0.0,0.0,0.0,0.0,0.0,0.0,0.0,0.0,0.0,0.0,0.0,0.0,0.0,0.0,0.0,0.0,0.0,0.0,0.0,0.0,0.0,0.0,0.0,0.0,0.0,0.0,0.0,0.0,0.0,1.1958,1.2727,1.279,1.3568,1.4198,1.4413,1.4278,1.4232,1.4294,1.3479,0.0,0.0,0.0,0.0,0.0,0.0,0.0,0.0,0.0,0.0,0.0,0.0,0.0,0.0,0.0,0.0,0.0,0.0,0.0,0.0,0.0,0.0,0.0,0.0,0.0,0.0,0.0,0.0,0.0,0.0,0.0,0.0,0.0,0.0,0.0,0.0,0.0,0.0,0.0,0.0,0.0,0.0,0.0,0.0,0.0,0.0,0.0,0.0,0.0,0.0,0.0,0.0,0.0,0.0,0.0,0.0,0.0,0.0,0.0,0.0,0.0,0.0,0.0,0.0,0.0,0.0,0.0,0.0,0.0,0.0,0.0,0.0,0.0,0.0,0.0,0.0,0.0,0.0,0.0,0.0,0.0,0.0,0.0,0.0,0.0,0.0,0.0,0.0,0.0,0.0,0.0,0.0,0.0,0.0,0.0,0.0,0.0,0.0,0.0,0.0,0.0,0.0,1.2932,1.3461,1.2861,1.3574,1.4048,1.3859,1.3926,1.4091,1.4302,1.3242,0.0,0.0,0.0,0.0,0.0,0.0,0.0,0.0,0.0,0.0,0.0,0.0,0.0,0.0,0.0,0.0,0.0,0.0,0.0,0.0,0.0,0.0,0.0,0.0,0.0,0.0,0.0,0.0,0.0,0.0,0.0,0.0,0.0,0.0,0.0,0.0,0.0,0.0,0.0,0.0,0.0,0.0,0.0,0.0,0.0,0.0,0.0,0.0,0.0,0.0,0.0,0.0,0.0,0.0,0.0,0.0,0.0,0.0,0.0,0.0,0.0,0.0,0.0,0.0,0.0,0.0,0.0,0.0,0.0,0.0,0.0,0.0,0.0,0.0,0.0,0.0,0.0,0.0,0.0,0.0,0.0,0.0,0.0,0.0,0.0,0.0,0.0,0.0,0.0,0.0,0.0,0.0,0.0,0.0,0.0,0.0,0.0,0.0,0.0,0.0,0.0,0.0,1.2097,1.2407,1.3074,1.372,1.4289,1.4753,1.414,1.3901,1.4285,1.3107,0.0,0.0,0.0,0.0,0.0,0.0,0.0,0.0,0.0,0.0,0.0,0.0,0.0,0.0,0.0,0.0,0.0,0.0,0.0,0.0,0.0,0.0,0.0,0.0,0.0,0.0,0.0,0.0,0.0,0.0,0.0,0.0,0.0,0.0,0.0,0.0,0.0,0.0,0.0,0.0,0.0,0.0,0.0,0.0,0.0,0.0,0.0,0.0,0.0,0.0,0.0,0.0,0.0,0.0,0.0,0.0,0.0,0.0,0.0,0.0,0.0,0.0,0.0,0.0,0.0,0.0,0.0,0.0,0.0,0.0,0.0,0.0,0.0,0.0,0.0,0.0,0.0,0.0,0.0,0.0,0.0,0.0,0.0,0.0,0.0,0.0,0.0,0.0,0.0,0.0,0.0,0.0,0.0,0.0,0.0,0.0,0.0,0.0,0.0,0.0,0.0,0.0,1.2427,1.2678,0.0,1.319,1.3456,1.4149,1.3816,1.3588,1.3608,0.0,0.0,0.0,0.0,0.0,0.0,0.0,0.0,0.0,0.0,0.0,0.0,0.0,0.0,0.0,0.0,0.0,0.0,0.0,0.0,0.0,0.0,0.0,0.0,0.0,0.0,0.0,0.0,0.0,0.0,0.0,0.0,0.0,0.0,0.0,0.0,0.0,0.0,0.0,0.0,0.0,0.0,0.0,0.0,0.0,0.0,0.0,0.0,0.0,0.0,0.0,0.0,0.0,0.0,0.0,0.0,0.0,0.0,0.0,0.0,0.0,0.0,0.0,0.0,0.0,0.0,0.0,0.0,0.0,0.0,0.0,0.0,0.0,0.0,0.0,0.0,0.0,0.0,0.0,0.0,0.0,0.0,0.0,0.0,0.0,0.0,0.0,0.0,0.0,0.0,0.0,0.0,0.0,0.0,0.0,0.0,0.0,0.0,0.0,0.0,0.0,0.0,1.2115,1.2342,1.2587,0.0,1.2736,1.2889,1.3338,1.3324,1.3187,1.2912,0.0,0.0,0.0,0.0,0.0,0.0,0.0,0.0,0.0,0.0,0.0,0.0,0.0,0.0,0.0,0.0,0.0,0.0,0.0,0.0,0.0,0.0,0.0,0.0,0.0,0.0,0.0,0.0,0.0,0.0,0.0,0.0,0.0,0.0,0.0,0.0,0.0,0.0,0.0,0.0,0.0,0.0,0.0,0.0,0.0,0.0,0.0,0.0,0.0,0.0,0.0,0.0,0.0,0.0,0.0,0.0,0.0,0.0,0.0,0.0,0.0,0.0,0.0,0.0,0.0,0.0,0.0,0.0,0.0,0.0,0.0,0.0,0.0,0.0,0.0,0.0,0.0,0.0,0.0,0.0,0.0,0.0,0.0,0.0,0.0,0.0,0.0,0.0,0.0,0.0,0.0,0.0,0.0,0.0,0.0,0.0,0.0,0.0,0.0,0.0,0.0,0.0,1.1297,1.165,1.1899,1.1899,1.2547,1.2849,1.2437,1.2632,1.2671,0.0,0.0,0.0,0.0,0.0,0.0,0.0,0.0,0.0,0.0,0.0,0.0,0.0,0.0,0.0,0.0,0.0,0.0,0.0,0.0,0.0,0.0,0.0,0.0,0.0,0.0,0.0,0.0,0.0,0.0,0.0,0.0,0.0,0.0,0.0,0.0,0.0,0.0,0.0,0.0,0.0,0.0,0.0,0.0,0.0,0.0,0.0,0.0,0.0,0.0,0.0,0.0,0.0,0.0,0.0,0.0,0.0,0.0,0.0,0.0,0.0,0.0,0.0,0.0,0.0,0.0,0.0,0.0,0.0,0.0,0.0,0.0,0.0,0.0,0.0,0.0,0.0,0.0,0.0,0.0,0.0,0.0,0.0,0.0,0.0,0.0,0.0,0.0,0.0,0.0,0.0,0.0,0.0,0.0,0.0,0.0,0.0,0.0,0.0,0.0,0.0,0.0,0.0,1.1741,1.149,1.1397,1.1709,1.2074,1.2367,1.2583,1.2677,1.2988,1.3608,0.0,0.0,0.0,0.0,0.0,0.0,0.0,0.0,0.0,0.0,0.0,0.0,0.0,0.0,0.0,0.0,0.0,0.0,0.0,0.0,0.0,0.0,0.0,0.0,0.0,0.0,0.0,0.0,0.0,0.0,0.0,0.0,0.0,0.0,0.0,0.0,0.0,0.0,0.0,0.0,0.0,0.0,0.0,0.0,0.0,0.0,0.0,0.0,0.0,0.0,0.0,0.0,0.0,0.0,0.0,0.0,0.0,0.0,0.0,0.0,0.0,0.0,0.0,0.0,0.0,0.0,0.0,0.0,0.0,0.0,0.0,0.0,0.0,0.0,0.0,0.0,0.0,0.0,0.0,0.0,0.0,0.0,0.0,0.0,0.0,0.0,0.0,0.0,0.0,0.0,0.0,0.0,0.0,0.0,0.0,0.0,0.0,0.0,0.0,0.0,0.0,0.0,1.1968,1.1391,1.1081,1.1308,1.1617,1.19,1.2123,1.2365,1.2772,1.3355,0.0,0.0,0.0,0.0,0.0,0.0,0.0,0.0,0.0,0.0,0.0,0.0,0.0,0.0,0.0,0.0,0.0,0.0,0.0,0.0,0.0,0.0,0.0,0.0,0.0,0.0,0.0,0.0,0.0,0.0,0.0,0.0,0.0,0.0,0.0,0.0,0.0,0.0,0.0,0.0,0.0,0.0,0.0,0.0,0.0,0.0,0.0,0.0,0.0,0.0,0.0,0.0,0.0,0.0,0.0,0.0,0.0,0.0,0.0,0.0,0.0,0.0,0.0,0.0,0.0,0.0,0.0,0.0,0.0,0.0,0.0,0.0,0.0,0.0,0.0,0.0,0.0,0.0,0.0,0.0,0.0,0.0,0.0,0.0,0.0,0.0,0.0,0.0,0.0,0.0,0.0,0.0,0.0,0.0,0.0,0.0,0.0,0.0,0.0,0.0,0.0,0.0,1.2053,1.1466,1.0993,1.0876,1.1249,1.1453,1.1331,1.1842,1.2227,1.2337,0.0,0.0,0.0,0.0,0.0,0.0,0.0,0.0,0.0,0.0,0.0,0.0,0.0,0.0,0.0,0.0,0.0,0.0,0.0,0.0,0.0,0.0,0.0,0.0,0.0,0.0,0.0,0.0,0.0,0.0,0.0,0.0,0.0,0.0,0.0,0.0,0.0,0.0,0.0,0.0,0.0,0.0,0.0,0.0,0.0,0.0,0.0,0.0,0.0,0.0,0.0,0.0,0.0,0.0,0.0,0.0,0.0,0.0,0.0,0.0,0.7342,0.0,0.0,0.0,0.0,0.0,0.0,0.0,0.0,0.0,0.0,0.0,0.0,0.0,0.0,0.0,0.0,0.0,0.0,0.0,0.0,0.0,0.0,0.0,0.0,0.0,0.0,0.0,0.0,0.0,0.0,0.0,0.0,0.0,0.0,0.0,0.0,0.0,0.0,0.0,0.0,0.0,1.2862,1.1937,1.1264,1.1326,1.1577,1.1686,1.1558,1.1811,1.2375,1.3319,0.0,0.0,0.0,0.0,0.0,0.0,0.0,0.0,0.0,0.0,0.0,0.0,0.0,0.0,0.0,0.0,0.0,0.0,0.0,0.0,0.0,0.0,0.0,0.0,0.0,0.0,0.0,0.0,0.0,0.0,0.0,0.0,0.0,0.0,0.0,0.0,0.0,0.0,0.0,0.0,0.0,0.0,0.0,0.0,0.0,0.0,0.0,0.0,0.0,0.0,0.0,0.0,0.0,0.0,0.0,0.0,0.0,0.0,0.0,0.0,0.0,0.7838,0.0,0.0,0.0,0.0,0.0,0.0,0.0,0.0,0.0,0.0,0.0,0.0,0.0,0.0,0.0,0.0,0.0,0.0,0.0,0.0,0.0,0.0,0.0,0.0,0.0,0.0,0.0,0.0,0.0,0.0,0.0,0.0,0.0,0.0,0.0,0.0,0.0,0.0,0.0,0.0,1.3374,1.226,1.1455,1.1612,1.175,1.175,1.1621,1.179,1.2222,1.2942,1.2986,0.0,0.0,0.0,0.0,0.0,0.0,0.0,0.0,0.0,0.0,0.0,0.0,0.0,0.0,0.0,0.0,0.0,0.0,0.0,0.0,0.0,0.0,0.0,0.0,0.0,0.0,0.0,0.0,0.0,0.0,0.0,0.0,0.0,0.0,0.0,0.0,0.0,0.0,0.0,0.0,0.0,0.0,0.0,0.0,0.0,0.0,0.0,0.0,0.0,0.0,0.0,0.0,0.0,0.0,0.8808,0.9639,0.9624,0.8938,0.7675,0.8006,0.7489,0.6669,0.0,0.0,0.0,0.0,0.0,0.0,0.0,0.0,0.0,0.0,0.0,0.0,0.0,0.0,0.0,0.0,0.0,0.0,0.0,0.0,0.0,0.0,0.0,0.0,0.0,1.3587,1.3521,0.0,0.0,0.0,0.0,0.0,0.0,0.0,0.0,0.0,0.0,0.0,0.0,1.3564,1.2529,1.176,1.1868,1.1894,1.184,1.1628,1.176,1.194,1.2139,1.3199,1.3579,0.0,0.0,0.0,0.0,0.0,0.0,0.0,0.0,0.0,0.0,0.0,0.0,0.0,0.0,0.0,0.0,0.0,0.0,0.0,0.0,0.0,0.0,0.0,0.0,0.0,0.0,0.0,0.0,0.0,0.0,0.0,0.0,0.884,0.8379,0.0,0.0,0.0,0.0,0.0,0.0,0.0,0.0,0.0,0.0,0.0,0.0,0.0,0.0,0.7439,0.7607,0.7529,0.72,0.7162,0.6932,0.6481,0.6596,0.6938,0.7423,0.7435,0.0,0.7632,0.8295,0.0,0.0,0.0,0.0,0.0,0.0,0.0,0.0,0.0,0.0,0.0,0.0,0.0,0.0,0.0,0.0,0.0,0.0,0.0,0.0,0.0,0.0,1.2503,1.2623,1.2652,1.2827,0.0,1.4026,1.4469,1.4083,0.0,0.0,0.0,0.0,0.0,0.0,0.0,0.0,1.3164,1.2846,1.2498,1.2178,1.2284,1.2178,1.1643,1.1609,1.1745,1.1927,1.2634,1.3492,1.4496,1.4202,0.0,0.0,0.0,0.0,0.0,0.0,0.0,0.0,0.0,0.0,0.0,0.0,0.0,0.0,0.0,0.0,0.0,0.0,0.0,0.0,0.0,0.0,0.0,0.0,0.0,0.0,0.0,0.0,0.0,0.9106,0.8737,0.8482,0.8684,0.9055,0.0,0.0,0.0,0.0,0.0,0.0,0.0,0.0,0.0,0.6182,0.6122,0.6043,0.599,0.6253,0.6828,0.7596,0.7245,0.7078,0.7146,0.7206,0.7431,0.7829,0.8735,0.9103,0.9063,0.947,1.0258,1.1165,0.0,0.0,0.0,0.0,0.0,1.1663,1.074,0.0,0.0,0.0,0.0,0.0,0.0,0.0,0.0,0.0,0.0,0.0,0.0,0.0,0.0,1.3575,1.41,1.4674,1.4576,1.4878,1.4991,0.0,1.4787,1.5318,1.576,0.0,0.0,0.0,0.0,0.0,1.3523,1.3194,1.278,1.2419,1.2451,1.2262,1.165,1.1591,1.1691,1.188,1.218,1.2632,1.3297,1.3459,1.379,0.0,0.0,0.0,0.0,0.0,0.0,0.0,0.0,0.0,0.0,0.0,0.0,0.0,0.0,0.0,0.0,0.0,0.0,0.0,0.0,0.0,0.0,0.0,0.0,0.0,0.0,0.0,0.0,0.8885,0.8295,0.8305,0.794,0.8036,0.0,0.0,0.0,0.0,0.0,0.0,0.6712,0.6807,0.6144,0.457,0.4793,0.4905,0.4838,0.5651,0.677,0.8153,0.7995,0.8105,0.8477,0.8514,0.8617,0.8895,1.0112,1.0561,1.0468,1.0641,1.0775,1.1029,1.1596,1.18,1.1717,1.1381,1.1446,1.1581,1.0904,1.0804,1.1167,1.2507,0.0,1.2516,1.339,0.0,0.0,0.0,0.0,1.3142,1.3083,0.0,1.5118,1.4833,1.5612,1.6243,1.5774,1.5819,1.5711,0.0,1.5393,1.6235,1.6566,0.0,0.0,0.0,0.0,1.3404,1.3769,1.3397,1.3009,1.2645,1.2536,1.2292,1.176,1.1643,1.1666,1.1796,1.196,1.2129,1.2285,1.2717,1.3003,1.3099,0.0,0.0,0.0,0.0,0.0,0.0,0.0,0.0,0.0,0.0,0.0,0.0,0.0,0.0,0.0,0.0,0.0,0.0,0.0,0.0,0.0,0.0,0.0,0.0,0.0,0.0,0.0,0.0,0.0,0.7432,0.6774,0.0,0.0,0.0,0.0,0.6935,0.6759,0.6118,0.4922,0.4943,0.4493,0.3314,0.4266,0.4951,0.5168,0.715,0.8212,0.8394,0.9369,0.9754,0.9502,0.965,1.0124,1.0777,1.0773,1.1138,1.1671,1.091,1.1,1.1598,1.1187,1.1856,1.2879,1.1786,1.1543,1.1536,1.0441,0.9871,1.0062,1.2277,1.3755,1.4374,1.249,1.2734,0.0,0.0,1.158,1.2009,1.2451,1.2924,1.3831,1.5803,1.6345,1.6404,1.6375,1.7047,1.7062,0.0,1.4296,1.4204,1.4433,0.0,1.4064,1.4229,1.4072,1.3798,1.3294,1.3382,1.3345,1.3023,1.2674,1.2353,1.2003,1.1736,1.1584,1.16,1.2158,1.2472,1.2487,1.2226,1.2734,1.4177,1.3361,0.0,0.0,0.0,0.0,0.0,0.0,0.0,0.0,0.0,0.0,0.0,0.0,0.0,0.0,0.0,0.0,0.0,0.0,0.0,0.0,0.0,0.0,0.0,0.0,0.0,0.0,0.0,0.0,0.8222,0.6678,0.0,0.0,0.6328,0.5643,0.5591,0.5165,0.4783,0.4416,0.4836,0.5143,0.5313,0.5676,0.6628,0.8072,0.898,0.9861,1.0745,1.0699,1.0649,1.0595,1.0601,1.0761,1.1079,1.1621,1.1889,1.194,1.1553,1.1358,1.1351,1.1065,1.1226,1.1647,1.1213,1.102,1.0939,1.0699,1.0419,1.0357,1.1061,1.1583,1.1801,1.0918,1.1047,1.1399,1.0813,1.1113,1.1965,1.3138,1.3907,1.4801,1.6577,1.6982,1.6982,1.6982,1.726,1.7143,1.5971,1.5641,1.571,1.6164,1.4816,1.416,1.561,1.4791,1.4018,1.403,1.39,1.3682,1.336,1.3031,1.2701,1.2339,1.205,1.1867,1.1867,1.1914,1.1919,1.1919,1.1601,1.1783,1.2544,1.2406,1.3045,0.0,0.0,0.0,0.0,0.0,0.0,0.0,0.0,0.0,0.0,0.0,0.0,0.0,0.0,0.0,0.0,0.0,0.0,0.0,0.0,0.0,0.0,0.0,0.0,0.0,0.0,0.6897,0.879,0.6912,0.5922,0.7213,0.6068,0.5077,0.4777,0.4407,0.4154,0.3989,0.4895,0.5676,0.6261,0.697,0.8128,0.9738,1.0172,1.0936,1.2005,1.1564,1.1455,1.1564,1.1564,1.1564,1.1564,1.2169,1.2269,1.2076,1.1987,1.1761,1.1487,1.1212,1.1104,1.1123,1.1264,1.1137,1.0901,1.0972,1.0905,1.0749,1.0551,1.0485,1.0442,1.027,1.0308,1.0462,1.082,1.1363,1.2303,1.4069,1.4813,1.547,1.6961,1.7245,1.7201,1.7257,1.7279,1.7165,1.6675,1.6492,1.6419,1.6483,1.5091,1.4678,1.671,1.5372,1.4499,1.5386,1.4594,1.3901,1.3682,1.3265,1.2877,1.2514,1.2594,1.2426,1.1911,1.2087,1.2046,1.1606,1.1796,1.1983,1.2205,1.2476,1.3115,1.4095,0.0,0.0,0.0,0.0,0.0,0.0,0.0,0.0,0.0,0.0,0.0,0.0,0.0,0.0,0.0,0.0,0.0,0.0,0.0,0.0,0.0,0.0,0.0,0.8919,0.8248,0.7944,0.8856,0.724,0.6342,0.704,0.6404,0.5587,0.4644,0.4666,0.443,0.3813,0.515,0.5929,0.5982,0.8067,0.9425,0.9915,1.058,1.1334,1.2005,1.2005,1.2169,1.2387,1.2387,1.2387,1.2387,1.2387,1.2274,1.2095,1.209,1.2085,1.2048,1.1694,1.1534,1.1576,1.193,1.1813,1.1477,1.1269,1.1194,1.1161,1.0967,1.0905,1.0868,1.0702,1.064,1.082,1.1819,1.2303,1.2905,1.4962,1.5417,1.5662,1.6965,1.7091,1.6998,1.726,1.7279,1.723,1.6961,1.6646,1.6082,1.509,1.4922,1.5462,1.7071,1.5747,0.0,1.7108,1.542,1.4064,1.4108,1.3535,1.3015,1.2658,1.3513,1.3352,1.1723,1.2787,1.2904,1.1643,1.2714,1.3354,1.3388,1.3743,1.3385,1.2367,0.0,0.0,0.0,0.0,0.0,0.0,0.0,0.0,0.0,0.0,0.0,0.0,0.0,0.0,0.0,0.0,0.0,0.0,0.0,0.0,0.0,0.0,0.8069,0.8207,0.6894,0.6379,0.758,0.6564,0.6022,0.6569,0.6096,0.5961,0.6436,0.6869,0.7306,0.7669,0.8606,0.9351,0.9857,1.0429,1.1155,1.1946,1.1969,1.2113,1.2278,1.2278,1.2332,1.2387,1.2387,1.2387,1.2387,1.2387,1.2354,1.2292,1.2147,1.2085,1.2076,1.1958,1.1874,1.1751,1.1865,1.1642,1.1274,1.1217,1.1194,1.1184,1.1132,1.1113,1.1104,1.1042,1.1023,1.126,1.2252,1.2978,1.3772,1.5343,1.6088,1.6603,1.7159,1.726,1.7223,1.7264,1.7279,1.723,1.6961,1.6829,1.6536,1.5774,1.5411,1.5416,1.5895,0.0,0.0,1.5895,1.5193,1.519,1.6601,1.6412,1.6055,1.5717,1.5487,1.4494,0.0,1.2153,1.1965,1.1606,1.1683,1.2158,1.3097,1.3719,1.4079,0.0,0.0,0.0,0.0,0.0,0.0,0.0,0.0,0.0,0.0,0.0,0.0,0.0,0.0,0.0,0.0,0.0,0.0,0.0,0.0,0.0,0.0,0.8296,0.8176,0.8416,0.7185,0.6505,0.7304,0.663,0.6344,0.6972,0.6867,0.7012,0.759,0.8369,0.8829,0.8974,1.0037,1.0819,1.1171,1.1624,1.2163,1.2767,1.2529,1.2366,1.2387,1.2387,1.2387,1.2387,1.2387,1.2387,0.0,1.2387,1.2387,1.2372,1.226,1.2212,0.0,0.0,0.0,0.0,0.0,1.1609,1.1316,1.1227,1.1194,1.1194,1.1194,1.1194,1.1194,1.1194,1.1482,1.2058,1.3065,1.3963,1.4916,1.6135,1.6761,1.7099,1.7235,1.7279,1.7279,1.7279,1.7279,1.723,1.6961,0.0,0.0,1.6023,1.576,1.581,1.6344,1.581,1.5621,0.0,1.5516,1.5349,1.6438,1.6361,1.6008,1.5528,1.5602,0.0,0.0,0.0,1.252,1.2372,1.2178,0.0,0.0,0.0,1.4705,0.0,0.0,0.0,0.0,1.2971,1.2972,0.0,0.0,0.0,0.0,0.0,0.0,0.0,0.0,0.0,0.0,0.0,0.0,0.0,0.0,0.0,0.0,0.8629,0.8385,0.913,0.8449,0.7887,0.7985,0.741,0.7328,0.8146,0.8362,0.8588,0.8708,0.9503,0.9773,0.9271,0.0,0.0,0.0,0.0,1.2728,1.2894,1.2529,1.2409,1.2479,1.2479,1.241,1.2387,1.2387,1.2387,1.2387,1.2387,1.2387,1.2387,1.2387,1.2387,1.2363,1.2165,1.2085,1.2057,1.1869,1.1671,0.0,0.0,0.0,0.0,1.1194,1.1194,1.1194,1.1194,1.1917,1.292,1.398,1.5032,1.6035,1.7044,1.7279,1.7279,1.7279,1.7279,1.7279,1.7279,1.7279,1.7245,1.7005,1.6954,1.6763,1.6126,1.5965,1.6279,1.7363,1.6322,0.0,1.734,1.6005,1.505,1.5278,0.0,0.0,1.3984,1.4918,1.4695,1.2667,1.336,1.3667,1.3314,1.3292,1.3497,1.3978,1.5107,1.5103,1.3792,1.4337,1.4263,1.3646,1.4183,1.4262,0.0,0.0,0.0,0.0,0.0,0.0,0.0,0.0,0.0,0.0,0.0,0.0,0.0,0.0,0.0,0.8176,0.86,0.9036,0.9265,0.9811,1.0116,1.0076,0.9283,0.9137,1.0,1.0197,1.0631,1.1382,1.1595,1.1937,1.2438,1.2899,0.0,1.2916,1.315,1.3252,1.3268,1.3036,1.2848,1.2706,0.0,0.0,1.2387,1.2387,1.2387,1.2387,1.2387,1.2387,1.2387,1.2387,1.2387,1.2363,1.2165,1.2085,1.2043,1.1713,1.1548,1.1487,1.1269,1.1194,1.1194,1.1194,1.1194,1.1194,1.1194,1.1917,0.0,1.398,1.5032,1.6035,1.7044,1.7279,1.7279,1.7279,1.7279,1.7279,1.7279,1.7279,1.7264,1.7252,1.7238,1.7121,1.6785,1.625,1.5884,1.5854,1.5584,1.5518,1.581,1.5526,1.59,1.7484,1.759,1.732,1.668,1.6611,1.5534,1.3073,1.2848,1.2745,1.2689,1.2682,1.324,1.4447,1.4145,1.4139,1.4436,1.4526,1.4088,1.3123,1.2972,1.2765,0.0,0.0,0.0,0.0,0.0,0.0,0.0,0.0,0.0,0.0,0.0,0.8285,0.0,0.0,0.8906,0.9774,0.9973,1.0208,1.0714,1.0856,1.0906,1.0741,1.0009,0.9845,1.0613,1.0914,1.1386,1.2113,1.2659,1.3103,1.3547,1.3636,1.3646,1.3542,1.3537,1.349,1.3391,1.3282,1.3121,1.2975,1.2975,1.2857,1.2753,1.2753,1.2753,1.2748,1.2649,1.2602,1.2597,1.2484,1.2387,1.2372,1.2274,1.2175,1.2048,1.1784,1.1605,1.1487,1.1269,1.1194,1.1194,1.1194,1.1194,1.1292,1.1819,1.2684,1.374,1.4746,1.5751,1.6662,1.7185,1.7279,1.7279,1.7279,1.7279,1.7279,1.7279,1.7279,1.7279,1.7279,1.7279,1.7223,1.6954,1.6639,1.6221,1.5745,1.5491,1.5389,1.5389,1.5389,1.5757,1.6748,1.6867,1.6664,1.6201,1.5703,1.4733,1.3089,1.2855,1.266,1.2499,1.2485,1.2897,1.3771,1.4202,1.4664,1.5155,1.5553,1.5274,1.4355,1.3797,1.3164,0.0,0.0,0.0,0.0,0.0,0.0,0.0,0.0,0.8371,0.9082,0.8492,0.8319,0.9839,0.9653,0.982,1.1421,1.1435,1.1433,1.2168,1.1894,1.1531,1.1306,1.0699,1.0536,1.1269,1.1627,1.1985,1.2479,1.3264,1.3688,1.3688,1.3688,1.3688,1.3688,1.3688,1.3613,1.3447,1.3447,1.3339,1.3188,1.3188,1.3188,1.3184,1.3103,1.3089,1.3112,1.281,1.2706,1.2691,1.2512,1.2387,1.2387,1.2387,1.2283,1.2114,1.1912,1.1713,1.1539,1.1283,1.1194,1.1203,1.1246,1.1255,1.1452,1.2461,1.3525,1.4575,1.5527,1.6513,1.7279,1.7279,1.7279,1.7279,1.7279,1.7279,1.7279,1.7279,1.7279,1.7279,1.7279,1.7279,1.7245,1.6989,1.6939,1.6705,1.6089,1.5731,1.5484,1.5484,1.5425,1.5389,1.5389,1.5389,1.5228,1.4842,1.4318,1.3733,1.314,1.3104,1.2987,1.2723,1.2674,1.2902,1.3301,1.4543,1.5342,1.571,1.6515,1.6411,1.549,1.5029,1.4143,0.9279,0.9357,0.9638,0.9928,0.934,0.8947,0.0,0.0,0.7939,0.8477,0.8012,0.7815,0.867,0.9187,0.9808,1.0861,1.174,1.2348,1.2475,1.3024,1.3347,1.3148,1.2439,1.2294,1.3264,1.3384,1.3444,1.3504,1.3629,1.3688,1.3688,1.3688,1.3688,1.3688,1.3688,1.3679,1.3655,1.3655,1.3556,1.3353,1.3353,1.3353,1.3339,1.3027,1.2956,1.3103,1.2649,1.2424,1.2419,1.2396,1.2387,1.2387,1.2387,1.2368,1.2302,1.1959,1.1803,1.1728,1.1331,1.1194,1.1227,1.142,1.1482,1.1628,1.2662,1.3694,1.4728,1.5586,1.6513,1.7279,1.7279,1.7279,1.7279,1.7279,1.7279,1.7279,1.7279,1.7279,1.7279,1.7279,1.7279,1.7271,1.7282,1.704,1.6778,1.6419,1.606,1.5819,1.5819,1.5564,1.5389,1.5389,1.5389,1.5182,1.4575,1.4225,1.3828,1.3462,1.344,1.3426,1.3389,1.3389,1.3714,1.4403,1.4581,1.5032,1.571,1.6515,1.6158,1.4744,1.5313,1.4638,1.0524,1.007,0.9724,0.0,0.9376,0.9152,0.9457,0.875,0.8086,0.8453,0.849,0.8704,0.9626,1.061,1.1593,0.0,1.3274,1.3649,1.3414,1.3681,1.3707,1.3254,1.2924,1.2903,1.344,1.3514,1.3566,1.3679,1.3688,1.3688,1.3688,1.3688,1.3688,1.3688,1.3688,1.3688,1.3688,1.3688,1.3646,1.3566,1.3688,1.3684,1.3561,1.3514,1.3334,1.3108,1.2758,1.2559,1.2387,1.2387,1.2387,1.2387,1.2387,1.2387,1.2349,1.2062,1.1874,1.1775,1.1482,1.1298,1.1208,1.1298,1.1331,1.1623,1.3274,1.4049,1.4751,1.6265,1.6998,1.7279,1.7279,1.7279,1.7279,1.7279,1.7279,1.7279,1.7279,1.7279,1.7279,1.7279,1.7279,1.7279,1.7279,1.7216,1.7084,1.6945,1.6499,1.6177,1.6177,1.5906,1.5643,1.5411,1.5389,1.5206,1.4787,1.4618,1.4318,1.3814,1.3777,1.3697,1.3506,1.3912,1.4294,1.4601,1.549,1.6088,1.6411,1.7157,1.6975,1.5948,1.5781,1.5062,1.1189,1.0486,0.0,0.9364,0.9376,0.9454,0.8974,0.8692,0.8571,0.8676,0.8886,0.9473,1.0713,1.1732,1.276,1.3816,1.4312,1.444,1.4137,1.3996,1.3712,1.3193,1.3074,1.3046,1.3202,1.332,1.3471,1.3674,1.3745,1.3778,1.3778,1.383,1.3859,1.3859,1.3859,1.3859,1.3859,1.3859,1.3835,1.3783,1.3991,1.3981,1.3783,1.3877,1.358,1.3032,1.2885,1.2644,1.2387,1.2387,1.2387,1.2387,1.2387,1.2387,1.2368,1.2222,1.1996,1.1789,1.1586,1.1378,1.1203,1.1264,1.1519,1.2137,1.3868,1.4624,1.5284,1.6852,1.7279,1.7279,1.7279,1.7279,1.7308,1.7443,1.7465,1.7439,1.7574,1.7476,1.7465,1.7465,1.7344,1.7279,1.7279,1.7279,1.7315,1.7403,1.7069,1.6667,1.6448,1.6023,1.5652,1.5411,1.5389,1.525,1.4929,1.49,1.4666,1.415,1.4152,1.4005,1.3638,1.4158,1.4387,1.4294,1.5807,1.6585,1.6585,1.7624,1.7728,1.6897,1.6422,1.5627,1.0715,0.0,1.0112,0.9097,0.9387,0.9645,0.8245,0.8754,0.9425,0.9316,0.915,0.9588,1.1535,1.2052,1.2608,1.3788,1.4185,1.4317,1.4303,1.3953,1.3542,1.3174,1.2951,1.2837,0.0,1.3154,1.3471,1.3674,1.3882,1.4,1.4,1.4185,1.4288,1.4288,1.4288,1.4288,1.4288,1.4288,1.4194,1.4005,1.4203,1.4194,1.3996,1.3792,1.3362,1.2832,1.2828,1.2644,1.2387,1.2387,1.2387,1.2387,1.2387,1.2387,1.2387,1.2377,1.2118,1.1789,1.1586,1.1378,1.1231,1.1439,1.2344,1.3592,1.4348,1.5494,1.6646,1.717,1.7279,1.7279,1.7279,1.7279,1.7359,1.7728,1.7801,1.7889,1.8203,1.8021,1.7801,1.7801,1.7545,1.7279,1.7279,1.7279,1.7388,1.7757,1.7786,1.7435,1.6536,1.5826,1.5396,1.5389,1.5389,1.525,1.4929,1.49,1.4761,1.4518,1.4489,1.4342,1.3982,1.4005,1.3858,1.3535,1.4974,1.5745,1.5745,1.7654,1.8005,1.6906,1.7284,1.642,1.0651,0.0,0.9064,0.8723,0.9205,0.9593,0.9066,0.9773,1.0451,1.0187,1.0428,1.0863,1.1428,1.2201,1.3034,1.368,1.4085,1.4312,1.4312,1.4189,1.3797,1.3022,1.2984,0.0,0.0,0.0,0.0,1.3476,1.3816,1.401,1.401,1.4199,1.4312,1.4312,1.4312,1.4312,1.4312,1.418,1.4081,1.401,1.3934,1.3939,1.4,1.3651,1.3296,1.3017,1.288,1.2644,1.2387,1.2387,1.2387,1.2372,1.2236,1.2184,1.217,1.2024,1.1935,1.1808,1.1742,1.1487,1.1208,1.1279,1.2228,1.3463,1.4193,1.5327,1.6508,1.7112,1.7279,1.7279,1.7279,1.7279,1.7308,1.7417,1.7655,1.7786,1.7677,1.7911,1.8013,1.7527,1.7582,1.7582,1.7315,1.7279,1.7315,1.7425,1.7494,1.7377,1.7047,1.6272,1.571,1.571,1.5513,1.5345,1.5236,1.5228,1.5082,1.4809,1.4787,1.4545,1.4004,1.4668,1.5174,1.5405,1.6617,1.7515,1.8076,1.8742,1.8695,1.8034,1.7996,1.7461,1.0576,0.9693,0.8828,0.8972,0.96,1.018,1.0176,1.0838,1.1376,1.0907,1.1314,1.1785,1.1746,1.2467,1.3172,1.3442,1.352,1.3705,1.4073,1.3933,1.3695,1.3372,1.324,0.0,0.0,0.0,0.0,1.3485,1.3882,1.4118,1.4118,1.4383,1.4534,1.4534,1.4534,1.4501,1.4426,1.4298,1.4194,1.4114,1.3906,1.3877,1.4,1.3731,1.3414,1.3117,1.2984,1.271,1.2387,1.2387,1.2387,1.2372,1.2245,1.2194,1.217,1.1958,1.1883,1.1808,1.1737,1.1534,1.1298,1.1222,1.2415,1.3945,1.4232,1.559,1.7058,1.7261,1.7279,1.7279,1.7279,1.7366,1.753,1.7647,1.7925,1.8138,1.8043,1.8262,1.835,1.7933,1.783,1.775,1.7538,1.7359,1.7323,1.7439,1.7399,1.7198,1.7018,1.6455,1.5994,1.5767,1.5513,1.5389,1.5389,1.5389,1.5301,1.509,1.5075,1.4842,1.4348,1.5273,1.5904,1.6146,1.7418,1.8341,1.8922,1.9323,1.9141,1.8392,1.8674,1.8239,1.0481,0.9876,0.9429,0.9754,1.0584,1.14,1.1392,1.1856,1.209,1.1521,1.1895,1.2379,1.2601,0.0,1.3054,1.3117,1.2711,1.276,1.3812,1.3406,1.3315,0.0,0.0,0.0,0.0,0.0,0.0,1.3717,0.0,1.4317,1.4326,1.4714,1.4866,1.4866,1.4866,1.4772,1.4574,1.461,1.4492,1.4274,1.4095,1.401,1.401,1.401,1.367,1.3084,1.3069,1.2828,1.2387,1.2387,1.2387,1.2387,1.2372,1.2368,1.2344,1.2142,1.1949,1.1803,1.1641,1.1561,1.1468,1.126,1.2995,1.5094,1.4473,1.6151,1.8145,1.7476,1.7355,1.7308,1.7377,1.7611,1.7918,1.8225,1.8547,1.8869,1.9162,1.9008,1.8796,1.8752,1.8225,1.7794,1.7856,1.7592,1.7435,1.779,1.7545,1.7135,1.6565,1.6455,1.6162,1.5498,1.5418,1.5403,1.5389,1.5389,1.5389,1.5389,1.5389,1.5284,1.4995,1.5768,1.6102,1.5865,1.7455,1.8276,1.8313,1.9409,1.9268,1.8063,1.9362,1.8873,1.0542,1.0098,0.9725,0.9919,1.1175,1.2314,1.2121,1.2903,1.3349,1.2539,1.3118,1.3624,1.3142,0.0,0.0,1.3793,1.3539,0.0,1.4323,1.4416,0.0,1.4331,0.0,1.4038,1.3939,1.3929,0.0,0.0,1.4251,1.4378,1.4544,1.4729,1.4866,1.4866,1.4866,1.4772,1.4574,1.4326,1.4062,1.3849,1.3958,1.401,1.401,1.401,1.3755,1.3296,1.3193,1.2828,1.2387,1.2387,1.2387,1.2368,1.2222,1.2165,1.2137,1.1926,1.1964,1.2054,1.2491,1.2049,1.1269,1.1212,1.2887,1.4857,1.4419,1.6011,1.7904,1.7735,1.7691,1.7743,1.7991,1.8116,1.8196,1.8284,1.8547,1.8745,1.8584,1.8869,1.8935,1.8203,1.7735,1.7759,1.8759,1.8159,1.783,1.8458,1.8204,1.783,1.7472,1.7026,1.6617,1.617,1.5928,1.5652,1.5411,1.5389,1.5389,1.5389,1.5389,1.5558,1.584,1.6307,1.7037,1.7997,1.8679,1.9349,2.0005,2.0275,1.9745,1.8464,1.9803,1.9621,1.068,1.0355,0.9999,1.0535,1.1599,1.2559,1.255,1.3148,1.3362,1.2469,1.3297,0.0,1.328,1.3104,0.0,0.0,0.0,0.0,1.4045,1.4269,1.4482,0.0,1.4619,0.0,1.4544,1.4388,1.4369,0.0,1.4501,1.4506,1.456,1.4758,1.4866,1.4866,1.4866,1.4789,1.4496,1.4081,1.3807,1.3693,1.3906,1.3962,1.3873,1.3967,1.3731,1.324,0.0,1.2828,1.2387,1.2387,1.2387,1.2372,1.226,1.2217,1.2189,1.2035,1.2345,1.2863,1.3129,1.2767,1.2228,1.2466,1.3573,1.4814,1.4929,1.6388,1.7999,1.7852,1.7918,1.8072,1.8255,1.8408,1.8518,1.8518,1.8767,1.895,1.8767,1.9016,1.9118,1.852,1.8663,1.9064,1.9773,1.9802,1.9662,1.9453,1.9146,1.8617,1.7863,1.7336,1.6887,1.6463,1.6096,1.5739,1.5418,1.5389,1.5389,1.5389,1.5748,1.6096,1.6412,1.7315,1.8223,1.9001,1.9575,2.0128,2.0605,2.0605,2.0013,1.8923,2.0062,2.0004,1.1135,1.0913,1.0644,1.1466,1.2109,1.253,1.273,1.2929,1.2795,1.203,0.0,1.405,1.3437,1.3226,1.3165,1.3228,0.0,1.2487,1.3789,1.3867,1.4238,1.5446,1.5082,1.4893,1.5243,1.4936,1.472,1.4959,1.472,1.4607,1.4607,1.4837,1.4866,1.4866,1.4842,1.4704,1.4317,1.3925,1.3717,1.3693,1.3906,1.391,1.374,1.3925,1.3698,1.3203,0.0,0.0,1.2424,1.2396,1.2387,1.2387,1.2387,1.2387,1.2363,1.2189,1.2752,1.3651,1.3732,1.365,1.362,1.4205,1.4528,1.4912,1.5599,1.6925,1.8189,1.7947,1.8116,1.8379,1.8423,1.8642,1.8855,1.8855,1.9067,1.9279,1.9279,1.9294,1.9295,1.9443,2.0161,2.0835,2.1088,2.1808,2.1934,2.056,2.0088,1.9428,1.8186,1.768,1.7189,1.6543,1.6242,1.5934,1.5484,1.5411,1.5389,1.5389,1.6105,1.6617,1.6862,1.8318,1.9222,1.946,2.0206,2.0605,2.0605,2.0605,2.0167,1.9301,2.0206,2.0128,1.2525,1.2706,1.2739,1.2726,1.2878,1.2926,1.2767,1.2901,0.0,0.0,1.3804,1.5014,1.4424,1.4405,1.4792,1.578,0.0,0.0,0.0,0.0,1.4903,0.0,0.0,0.0,0.0,0.0,0.0,0.0,0.0,0.0,1.4879,1.4847,1.4866,1.4866,1.477,1.4563,1.4312,1.4076,1.3863,1.3693,1.3906,1.3991,1.3958,1.3996,1.3854,1.3561,0.0,0.0,1.2696,1.2517,1.2387,1.2387,1.2387,1.2387,1.2382,1.2344,1.2493,1.2886,1.4496,1.4509,1.386,1.4521,1.4679,1.4771,1.5551,1.6772,1.7947,1.8152,1.8452,1.8767,1.9038,1.9147,1.9191,1.9191,1.9235,1.9279,1.9279,1.9067,1.9285,2.0648,2.0661,2.105,2.3231,2.305,2.2357,2.149,2.0843,2.0229,1.9686,1.8705,1.7715,1.6881,1.6959,1.6736,1.5884,1.5542,1.5389,1.5389,1.5548,1.627,1.7715,1.8078,1.8886,2.0372,2.0527,2.0605,2.0605,2.0605,2.0167,1.9301,2.0206,2.0128,1.291,1.3141,1.3213,1.2931,1.2966,1.3011,1.2653,0.0,0.0,0.0,1.3957,1.4909,1.467,1.4564,0.0,0.0,0.0,0.0,0.0,0.0,0.0,0.0,0.0,0.0,0.0,0.0,0.0,0.0,0.0,0.0,1.4866,1.4866,1.4866,1.4866,1.4673,1.4529,1.4312,1.4109,1.3901,1.3693,1.3792,1.3844,1.3849,1.3958,1.3892,1.3679,1.3476,0.0,1.3065,1.2743,1.2611,1.2597,1.2429,1.2387,1.2387,1.2387,1.2817,1.3555,1.5135,1.5299,1.513,1.6436,1.6246,1.5628,1.656,1.7416,1.8101,1.8255,1.8657,1.9074,1.9235,1.9279,1.9279,1.9279,1.9428,1.9532,1.968,1.9604,1.9939,2.1405,2.1894,2.2682,2.4649,2.4858,2.4375,2.325,2.2502,2.1733,2.0789,2.0336,1.9611,1.8377,1.7773,1.7138,1.6309,1.6515,1.6422,1.5805,1.7129,1.7999,1.8135,1.9133,1.9951,2.0576,2.0605,2.0605,2.0605,2.0605,2.0411,1.9971,2.0401,2.0372,1.3337,1.357,1.3583,1.3134,1.298,1.2793,1.2537,1.2631,0.0,0.0,1.3977,1.4641,1.4605,1.4546,1.4584,0.0,1.4002,0.0,0.0,0.0,0.0,0.0,0.0,0.0,0.0,0.0,0.0,0.0,0.0,0.0,0.0,1.4866,1.4866,1.4866,1.478,1.4572,1.4312,1.4151,1.3944,1.3688,1.3688,1.3688,1.3693,1.3863,1.3873,1.3755,1.3707,0.0,0.0,1.3117,1.2998,1.288,1.2658,1.2545,1.2502,1.2401,1.298,1.4002,1.5435,1.5914,1.6249,1.8238,1.7739,1.6584,1.7572,1.8101,1.8321,1.8386,1.8825,1.9324,1.9376,1.9376,1.9376,1.948,1.9628,1.9828,2.0027,2.0078,2.0585,2.2139,2.3135,2.4187,2.5781,2.634,2.6126,2.4694,2.3933,2.3038,2.1837,2.1753,2.1381,2.0365,1.9175,1.8087,1.7341,1.794,1.7853,1.6727,1.8841,1.9779,1.8994,2.0357,2.1032,2.083,2.0752,2.0703,2.0605,2.0703,2.0693,2.0605,2.0703,2.0693,1.4863,1.4889,1.4637,1.4222,1.3142,1.2307,1.2587,0.0,0.0,1.308,1.4101,1.4828,1.4641,1.4983,1.5431,1.5848,1.5509,1.532,0.0,0.0,0.0,0.0,0.0,0.0,0.0,0.0,0.0,0.0,0.0,0.0,0.0,1.4866,1.4866,1.4866,1.4852,1.4714,1.4317,1.4293,1.4085,1.3688,1.3688,1.3688,1.3688,1.3707,1.3816,1.3972,0.0,0.0,0.0,1.3703,1.3495,1.331,1.3093,1.2895,1.271,1.2512,1.2491,1.2866,1.5114,1.5914,1.628,1.8544,1.8018,1.6803,1.7909,1.8277,1.8364,1.8657,1.9001,1.9376,1.9576,1.968,1.9732,1.9983,2.0034,2.0086,2.0078,2.0078,2.0783,2.3085,2.3633,2.4433,2.6764,2.6832,2.6126,2.4694,2.4069,2.3539,2.3013,2.2201,2.1998,2.2702,2.1728,2.0613,1.9525,1.967,1.9382,1.8435,1.9424,2.0309,2.1008,2.0953,2.1113,2.1511,2.1282,2.0977,2.0605,2.0977,2.0967,2.0615,2.0986,2.0957,1.5371,1.5235,1.4588,1.4237,1.3126,1.2248,1.292,0.0,1.2763,1.3725,1.4533,1.5034,1.4828,1.4997,1.5184,1.5245,1.4673,0.0,1.5349,0.0,0.0,0.0,0.0,0.0,0.0,0.0,0.0,0.0,0.0,0.0,0.0,1.4866,1.4866,1.4866,1.4753,1.461,1.4312,1.4189,1.3981,1.3688,1.3688,1.3688,1.3693,1.3825,1.3929,1.4005,0.0,0.0,0.0,1.3778,1.357,1.3367,1.315,1.3003,1.2794,1.2521,1.2871,1.3732,1.5328,1.6346,1.7199,1.8795,1.8657,1.8031,1.8441,1.8591,1.8621,1.8752,1.9177,1.9583,1.968,1.9828,1.9983,2.03,2.0351,2.0403,2.0557,2.0557,2.1251,2.3493,2.3939,2.4679,2.6907,2.6926,2.6311,2.5483,2.4956,2.4466,2.4011,2.3604,2.3616,2.4291,2.2961,2.1726,2.1024,2.1505,2.1392,2.0293,2.1396,2.1923,2.1495,2.1997,2.2197,2.1988,2.1866,2.1655,2.1398,2.1279,2.1103,2.0967,2.0869,2.0732,1.5738,1.585,1.5484,1.5159,1.4039,1.3185,0.0,0.0,1.3296,1.4248,1.4848,1.5133,1.4864,1.4906,1.489,1.4531,1.4163,1.4151,1.4719,0.0,0.0,0.0,0.0,0.0,0.0,0.0,0.0,0.0,0.0,0.0,0.0,1.4809,1.487,1.4931,1.4673,1.4529,1.4312,1.4109,1.3901,1.3688,1.3688,1.3688,1.3693,1.3849,1.3953,0.0,0.0,0.0,0.0,1.4005,1.3811,1.3561,1.3405,1.3145,1.2885,1.2992,1.3524,1.4433,1.5867,1.6935,1.7793,1.8907,1.9118,1.8935,1.8935,1.8869,1.8862,1.9008,1.95,1.9939,1.9939,2.0145,2.0395,2.0565,2.0617,2.0668,2.0873,2.1173,2.1912,2.3741,2.4344,2.5129,2.6965,2.6926,2.6501,2.6179,2.5709,2.5264,2.4766,2.4704,2.4776,2.4962,2.3915,2.2995,2.2415,2.3086,2.3012,2.1915,2.305,2.3395,2.251,2.3123,2.3219,2.261,2.2476,2.2251,2.2009,2.1699,2.1512,2.1416,2.1103,2.086,1.6008,1.6936,1.7817,1.7608,1.6306,1.522,0.0,0.0,1.4091,1.4525,1.4919,1.5098,1.4677,1.4832,1.4766,1.4114,1.4677,1.4924,1.4229,0.0,0.0,0.0,0.0,0.0,0.0,0.0,0.0,0.0,0.0,0.0,0.0,0.0,1.4663,1.4861,1.4673,1.4529,1.4312,1.4109,1.3901,1.3688,1.3688,1.3688,1.3688,1.3693,0.0,0.0,0.0,0.0,0.0,1.4539,1.4378,1.4005,1.4,1.3618,1.3207,1.4155,1.4363,1.4541,1.6783,1.7582,1.7793,1.8907,1.9324,1.9272,1.9272,1.9045,1.8906,1.9531,2.0094,2.047,2.047,2.0668,2.0865,2.0925,2.0925,2.0925,2.0925,2.1725,2.282,2.3899,2.4943,2.6032,2.7109,2.6926,2.6615,2.6604,2.621,2.572,2.523,2.5179,2.5003,2.4559,2.491,2.4815,2.3875,2.4213,2.409,2.3139,2.395,2.4487,2.4487,2.4282,2.3982,2.3481,2.3102,2.2641,2.2205,2.2379,2.2285,2.1875,2.1875,2.1406,1.5194,1.5284,1.4964,1.4796,1.4093,1.3583,1.3974,1.3651,1.3435,1.4115,1.4571,1.4819,1.4629,1.4697,1.4626,1.4159,1.4449,1.455,0.0,0.0,0.0,0.0,0.0,0.0,0.0,0.0,0.0,0.0,0.0,0.0,0.0,0.0,1.4598,1.4663,1.4388,1.4175,1.4104,1.3896,1.3755,1.3688,1.3688,1.3688,1.3688,1.3688,0.0,0.0,0.0,0.0,0.0,1.427,1.4085,1.3584,1.3584,1.3799,1.41,1.4254,1.5248,1.6617,1.7371,1.8108,1.8803,1.9168,1.9279,1.9279,1.9279,1.9258,1.9243,1.9805,2.0248,2.0522,2.0719,2.0822,2.0925,2.0925,2.1471,2.1971,2.1971,2.282,2.3899,2.4992,2.545,2.6032,2.7109,2.7185,2.6978,2.6667,2.649,2.6082,2.5282,2.5189,2.5013,2.4549,2.4631,2.4751,2.474,2.4913,2.4831,2.4547,2.4489,2.4497,2.4497,2.4454,2.4168,2.3725,2.3596,2.3269,2.283,2.2811,2.2547,2.2122,2.1806,2.144,1.4493,1.4958,1.4974,1.4784,1.4352,0.0,0.0,1.3978,1.3823,1.3958,1.429,1.4457,1.4135,1.4266,1.4318,1.4048,1.4482,1.4581,0.0,0.0,0.0,0.0,0.0,0.0,0.0,0.0,0.0,0.0,0.0,0.0,0.0,0.0,1.4477,1.4402,1.4147,1.401,1.401,1.3797,1.3688,1.3688,1.3688,1.3688,1.3688,0.0,0.0,0.0,0.0,0.0,0.0,1.4203,1.4231,1.4143,1.4143,1.4562,1.5208,1.5484,1.6439,1.7635,1.8115,1.8691,1.9279,1.9279,1.9383,1.9428,1.9428,1.9532,1.968,2.0145,2.0462,2.0771,2.1377,2.1522,2.1623,2.2013,2.261,2.3111,2.3111,2.3958,2.4894,2.5586,2.6042,2.6524,2.7156,2.7309,2.7206,2.6915,2.6874,2.6615,2.5834,2.574,2.5492,2.4828,2.4755,2.4807,2.4921,2.4931,2.4931,2.4931,2.4652,2.4497,2.4497,2.4497,2.4368,2.4057,2.398,2.3807,2.3493,2.3322,2.2964,2.2443,2.2206,2.1777,0.0,1.5503,1.6854,1.6766,0.0,0.0,1.5741,1.5432,0.0,1.3992,1.41,1.4106,1.3441,1.3649,1.3933,1.3892,1.4711,0.0,0.0,0.0,0.0,0.0,0.0,0.0,0.0,0.0,0.0,0.0,0.0,0.0,0.0,0.0,0.0,1.4014,1.3996,1.3991,1.3991,1.3788,1.3688,1.3688,1.3688,1.3688,1.3688,0.0,0.0,0.0,0.0,0.0,0.0,1.4365,1.4779,1.5354,1.5472,1.5846,1.6405,1.7484,1.7809,1.7845,1.8907,1.9279,1.9279,1.9279,1.948,1.968,1.9732,1.9931,2.0189,2.0411,2.0771,2.1224,2.2224,2.2577,2.287,2.384,2.4137,2.4187,2.4187,2.5041,2.579,2.579,2.662,2.7309,2.7309,2.7309,2.7309,2.7309,2.7309,2.7133,2.6677,2.6615,2.6227,2.5282,2.5189,2.5003,2.4538,2.4497,2.4497,2.4497,2.4497,2.4497,2.4497,2.4497,2.4497,2.4497,2.4292,2.4163,2.4206,2.3937,2.3553,2.2951,2.2921,2.235,1.2784,0.0,1.3815,1.4106,1.4353,1.4449,0.0,1.4439,1.4671,1.4147,1.434,1.4552,1.4465,1.4353,1.4321,1.445,1.4845,0.0,0.0,0.0,0.0,0.0,0.0,0.0,0.0,0.0,0.0,0.0,0.0,0.0,0.0,0.0,0.0,1.4014,1.3849,1.3764,1.3764,1.3712,1.3688,1.3688,1.3688,1.3688,1.3693,0.0,0.0,0.0,0.0,0.0,1.4156,1.5288,1.5434,1.5042,1.5989,1.6753,1.7311,1.7576,1.817,1.8959,1.922,1.9279,1.9279,1.9279,1.948,1.9732,1.9931,2.0197,2.0411,2.0462,2.1275,2.2173,2.2426,2.3111,2.38,2.4038,2.4747,2.5343,2.5343,2.6177,2.6918,2.6918,2.7119,2.7309,2.7309,2.7309,2.7309,2.7309,2.7309,2.7133,2.6677,2.6615,2.6227,2.5282,2.5189,2.5003,2.4538,2.4497,2.4497,2.4497,2.4497,2.4497,2.4497,2.4497,2.4411,2.4282,2.4013,2.398,2.4206,2.4153,2.393,2.3594,2.3263,2.2792,1.2594,1.2891,1.3255,1.3403,1.3823,1.417,1.3863,1.4292,1.4614,1.3958,1.4279,1.454,1.4239,1.4394,1.4666,1.4883,1.5486,0.0,0.0,0.0,0.0,0.0,0.0,0.0,0.0,0.0,0.0,0.0,0.0,0.0,0.0,0.0,0.0,0.0,1.375,1.3688,1.3688,1.3688,1.3688,1.3688,1.3688,1.374,1.384,1.3854,0.0,0.0,0.0,0.0,1.4071,1.5354,1.5703,1.5693,1.6796,1.7693,1.8377,1.8377,1.875,1.9279,1.9279,1.9279,1.9279,1.9279,1.948,1.9724,2.0034,2.03,2.0624,2.1224,2.1928,2.2728,2.3719,2.4402,2.4933,2.5431,2.6022,2.6428,2.6428,2.687,2.7309,2.7309,2.7309,2.7309,2.7309,2.7309,2.7309,2.7309,2.7309,2.7216,2.6967,2.6926,2.6584,2.5627,2.5533,2.5264,2.4559,2.4497,2.4497,2.4497,2.4497,2.4497,2.4497,2.4497,2.4454,2.4335,2.4196,2.4196,2.4335,2.4335,2.4196,2.397,2.378,2.3303,1.2822,1.3408,1.3911,1.3698,1.403,1.4388,1.4147,1.4561,1.4747,1.3902,1.4275,1.4547,1.3877,1.4344,0.0,0.0,0.0,0.0,0.0,0.0,0.0,0.0,0.0,0.0,0.0,0.0,0.0,0.0,0.0,0.0,0.0,0.0,0.0,0.0,1.3983,1.4117,1.4326,1.3882,1.3822,1.4031,1.3856,1.3835,1.4005,1.3854,0.0,0.0,0.0,0.0,1.4604,1.5504,1.6218,1.679,1.7825,1.8635,1.9279,1.9279,1.9279,1.9279,1.9279,1.9279,1.9279,1.9279,1.9532,1.9776,2.0027,2.03,2.0822,2.2123,2.2627,2.322,2.5197,2.5839,2.6177,2.7061,2.7309,2.7309,2.7309,2.7309,2.7309,2.7309,2.7309,2.7309,2.7309,2.7309,2.7309,2.7309,2.7309,2.7309,2.7309,2.7309,2.6978,2.6117,2.5916,2.5544,2.4673,2.4538,2.4497,2.4497,2.4497,2.4497,2.4497,2.4497,2.4497,2.4497,2.4497,2.4497,2.4497,2.4497,2.4411,2.4206,2.4206,2.3788,1.3238,1.401,1.4572,1.3919,1.4189,1.4457,1.4114,1.4751,1.5292,1.4933,1.5182,1.5397,1.5291,1.5135,1.5094,0.0,0.0,0.0,0.0,0.0,0.0,0.0,0.0,0.0,0.0,0.0,0.0,0.0,0.0,0.0,0.0,0.0,0.0,0.0,0.0,1.5964,1.7242,1.49,1.4305,1.5563,1.4497,1.3981,1.4014,1.4151,1.476,0.0,0.0,1.5926,1.6891,1.779,1.7976,1.7792,1.9013,1.9399,1.9279,1.9279,1.9279,1.9279,1.9279,1.9279,1.9279,1.9279,1.9628,2.0034,2.0086,2.0447,2.107,2.2182,2.3161,2.4146,2.5392,2.638,2.7109,2.7262,2.7309,2.7309,2.7309,2.7309,2.7309,2.7309,2.7309,2.7309,2.7309,2.7309,2.7309,2.7309,2.7309,2.7309,2.7309,2.7309,2.7102,2.6563,2.6159,2.5668,2.5127,2.4724,2.4497,2.4497,2.4497,2.4497,2.4497,2.4497,2.4497,2.4497,2.4497,2.4497,2.4497,2.4497,2.4411,2.4206,2.4206,2.3993,1.3267,1.4068,1.4754,1.442,1.4396,1.4309,1.3842,1.3827,1.4007,1.4343,1.4641,1.5006,0.0,0.0,0.0,0.0,0.0,0.0,0.0,0.0,0.0,0.0,0.0,0.0,0.0,0.0,0.0,0.0,0.0,0.0,0.0,0.0,0.0,0.0,0.0,1.7131,1.8633,1.6684,1.5807,1.598,1.5384,1.4664,1.3835,1.447,1.4994,1.5472,0.0,1.6362,1.6797,1.7841,1.8048,1.7882,1.9069,1.9463,1.9279,1.9279,1.9279,1.9324,1.948,1.9532,1.9532,1.968,1.9879,2.0168,2.05,2.0646,2.0956,2.2401,2.3412,2.4344,2.5441,2.6476,2.7309,2.7309,2.7309,2.7309,2.7309,2.7309,2.7309,2.7309,2.7309,2.7309,2.7309,2.7309,2.7309,2.7309,2.7309,2.7309,2.7309,2.7309,2.7133,2.6667,2.6428,2.6072,2.5616,2.5388,2.5057,2.4528,2.4497,2.4497,2.4497,2.4497,2.4497,2.4497,2.4497,2.4497,2.4497,2.4497,2.4454,2.4368,2.4368,2.4239,1.3323,1.4069,1.4783,1.4875,1.4724,1.453,1.4285,1.3643,1.3332,1.4225,1.4498,0.0,0.0,0.0,0.0,0.0,0.0,0.0,0.0,0.0,0.0,0.0,0.0,0.0,0.0,0.0,0.0,0.0,0.0,0.0,0.0,0.0,0.0,0.0,0.0,0.0,1.9628,1.8635,1.775,1.682,1.664,1.5849,1.4565,1.5264,1.5693,1.592,1.6564,1.6894,1.7082,1.7876,1.8155,1.8055,1.8959,1.9324,1.9376,1.948,1.9479,1.9531,1.971,1.9784,1.9836,2.0057,2.0138,2.0287,2.0757,2.0768,2.0869,2.2142,2.3272,2.4362,2.5566,2.6627,2.7417,2.7417,2.7417,2.7434,2.733,2.7309,2.7309,2.7309,2.7309,2.7309,2.7309,2.7309,2.7309,2.7309,2.7309,2.7309,2.7309,2.7309,2.7164,2.6812,2.6677,2.6428,2.5962,2.5792,2.544,2.4704,2.4559,2.4497,2.4497,2.4497,2.4497,2.4497,2.4497,2.4497,2.4497,2.4497,2.4497,2.4497,2.4497,2.4421,1.3616,1.424,1.4767,1.5078,1.5296,1.5577,1.6229,1.5371,1.4787,1.5964,1.5807,1.5342,0.0,0.0,0.0,0.0,0.0,0.0,0.0,0.0,0.0,0.0,0.0,0.0,0.0,0.0,0.0,0.0,0.0,0.0,0.0,0.0,0.0,0.0,0.0,0.0,2.0581,2.0525,2.0073,1.9331,1.8446,1.769,1.702,1.7126,1.7549,1.8125,1.7891,1.8461,1.9519,1.9275,1.9189,1.9168,1.9272,1.9428,1.968,1.9931,2.0076,2.0151,2.0089,2.0135,2.0144,2.0133,2.0248,2.047,2.0545,2.0692,2.0881,2.1,2.2526,2.4427,2.5934,2.709,2.7872,2.7872,2.7872,2.7759,2.7392,2.7309,2.7309,2.7309,2.7309,2.7309,2.7309,2.7309,2.7309,2.7309,2.7309,2.7309,2.7309,2.7309,2.7299,2.7258,2.6874,2.6428,2.5962,2.5513,2.521,2.5137,2.4735,2.4497,2.4497,2.4497,2.4497,2.4497,2.4497,2.4497,2.4497,2.4497,2.4497,2.4497,2.4497,2.4497,1.3441,1.404,1.4564,1.4892,1.535,1.5753,1.5775,1.4639,1.401,1.5577,1.5422,1.5109,0.0,0.0,0.0,0.0,0.0,0.0,0.0,0.0,0.0,0.0,0.0,0.0,0.0,0.0,0.0,0.0,0.0,0.0,0.0,0.0,0.0,0.0,0.0,0.0,0.0,2.0365,2.026,1.9977,1.9244,1.8081,1.6662,1.756,1.7952,1.7903,1.854,1.9027,1.95,1.933,1.9279,1.9324,1.948,1.9732,1.9983,2.0078,2.011,2.0188,2.0518,2.0685,2.0756,2.1159,2.1162,2.1128,2.1607,2.1336,2.106,2.1711,2.3168,2.466,2.5271,2.6666,2.7948,2.8286,2.8131,2.7872,2.7707,2.7506,2.7309,2.7309,2.7309,2.7309,2.7309,2.7309,2.7309,2.7309,2.7309,2.7309,2.7309,2.7309,2.7309,2.7309,2.7154,2.6978,2.6801,2.633,2.5937,2.5647,2.49,2.4497,2.4497,2.4497,2.4497,2.4497,2.4497,2.4497,2.4497,2.4497,2.4497,2.4497,2.4497,2.4497,1.3016,1.3591,1.4107,1.4413,1.534,1.6189,1.6259,1.466,1.3809,1.6045,1.5614,1.5179,1.6231,0.0,0.0,0.0,0.0,0.0,0.0,0.0,0.0,0.0,0.0,0.0,0.0,0.0,0.0,0.0,0.0,0.0,0.0,0.0,0.0,0.0,0.0,0.0,0.0,1.993,1.993,1.9884,1.9577,1.8709,1.7367,1.8387,1.8589,1.8167,1.8959,1.9279,1.9279,1.9279,1.9331,1.9428,1.9732,2.0043,2.0395,2.0506,2.0585,2.0733,2.1174,2.1345,2.1401,2.1864,2.1798,2.1695,2.2172,2.1822,2.1377,2.1989,2.351,2.4997,2.4997,2.6671,2.8442,2.8752,2.8587,2.8317,2.8173,2.7903,2.7645,2.75,2.7469,2.7475,2.733,2.7309,2.7309,2.7309,2.7309,2.7309,2.7309,2.7309,2.7309,2.7309,2.7309,2.7309,2.7309,2.6884,2.648,2.6159,2.5378,2.4797,2.4507,2.4497,2.4497,2.4497,2.4497,2.4497,2.4497,2.4497,2.4497,2.4497,2.4497,2.4497,1.2364,1.2844,1.3283,1.3713,1.5312,1.7057,1.8065,1.594,1.4604,1.7801,1.6745,1.571,1.7318,0.0,0.0,0.0,0.0,0.0,0.0,0.0,0.0,0.0,0.0,0.0,0.0,0.0,0.0,0.0,0.0,0.0,0.0,0.0,0.0,0.0,0.0,0.0,1.9279,1.9279,1.9279,1.9279,1.9661,1.9815,1.9815,1.9815,1.9639,1.9279,1.9279,1.9279,1.9279,1.9279,1.948,1.9732,1.9983,2.0493,2.1049,2.1283,2.1663,2.1986,2.203,2.2025,2.1986,2.2022,2.2019,2.2019,2.2019,2.2019,2.1939,2.1499,2.3305,2.5317,2.5472,2.7398,2.9311,2.9311,2.9301,2.9177,2.8711,2.8607,2.8473,2.8007,2.7865,2.7779,2.7382,2.7309,2.7309,2.7309,2.7309,2.7309,2.7309,2.7309,2.7309,2.7309,2.7309,2.7309,2.7309,2.6884,2.6615,2.6615,2.6179,2.5482,2.4549,2.4507,2.4507,2.4497,2.4497,2.4497,2.4497,2.4497,2.4497,2.4497,2.4497,2.4497,1.3194,1.3021,1.301,1.4308,1.4895,1.5592,1.75,1.6393,1.5301,1.6697,1.6679,1.6808,1.8275,0.0,0.0,0.0,0.0,0.0,0.0,0.0,0.0,0.0,0.0,0.0,0.0,0.0,0.0,0.0,0.0,0.0,0.0,0.0,0.0,0.0,0.0,0.0,1.9279,1.9279,1.9279,1.9279,1.9426,1.9478,1.9485,1.9713,1.9639,1.9279,1.9279,1.9279,1.9324,1.948,1.9732,2.0034,2.03,2.062,2.0944,2.1301,2.147,2.1654,2.2196,2.2347,2.2395,2.2656,2.2537,2.2378,2.2625,2.2355,2.2043,2.214,2.3894,2.5791,2.5844,2.7796,2.9787,2.9787,2.929,2.8783,2.8649,2.8359,2.7997,2.7541,2.7458,2.7417,2.733,2.7309,2.7309,2.7309,2.7309,2.7309,2.7309,2.7309,2.7309,2.7309,2.7309,2.7309,2.7309,2.7185,2.6957,2.6635,2.648,2.5958,2.5024,2.4983,2.4828,2.4507,2.4497,2.4497,2.4497,2.4497,2.4497,2.4497,2.4497,2.4497,1.2813,1.2954,1.3296,1.433,1.4979,1.5706,1.7051,0.0,0.0,0.0,1.7199,1.7487,0.0,0.0,0.0,0.0,0.0,0.0,0.0,0.0,0.0,0.0,0.0,0.0,0.0,0.0,0.0,0.0,0.0,0.0,0.0,0.0,0.0,0.0,0.0,0.0,1.9081,1.9081,1.9147,1.9279,1.9279,1.9279,1.9286,1.9529,1.9514,1.9331,1.9428,1.948,1.948,1.9732,2.0042,2.0248,2.0411,2.0754,2.1119,2.152,2.1743,2.1941,2.2498,2.2696,2.2736,2.2942,2.2871,2.2736,2.295,2.272,2.2394,2.2466,2.3934,2.5586,2.5905,2.754,2.9225,2.9848,2.957,2.9166,2.9166,2.8938,2.8556,2.7924,2.78,2.7734,2.7372,2.7309,2.7309,2.7309,2.7309,2.7309,2.7309,2.7309,2.7309,2.7309,2.7309,2.7309,2.7309,2.7309,2.7185,2.6915,2.6895,2.648,2.5533,2.5282,2.4972,2.4507,2.4497,2.4497,2.4497,2.4497,2.4497,2.4497,2.4497,2.4497,1.1857,1.2688,1.3773,1.4096,1.5574,0.0,1.6908,1.8615,1.9789,1.8654,0.0,0.0,0.0,0.0,0.0,0.0,0.0,0.0,0.0,0.0,0.0,0.0,0.0,0.0,0.0,0.0,0.0,0.0,0.0,0.0,0.0,0.0,0.0,0.0,0.0,0.0,1.8738,1.8774,1.8935,0.0,1.9309,1.9279,1.9279,1.9279,1.9279,1.9324,1.9576,1.968,1.9732,2.0034,2.03,2.0522,2.0522,2.0864,2.1388,2.1791,2.2116,2.2442,2.2791,2.2942,2.2966,2.2966,2.299,2.3014,2.3014,2.3014,2.2942,2.2585,2.3615,2.4968,2.5809,2.6812,2.7966,2.9558,2.9932,2.9922,2.988,2.987,2.9591,2.8669,2.8493,2.8224,2.7455,2.7309,2.7309,2.7309,2.7309,2.7309,2.7309,2.7309,2.7309,2.7309,2.7309,2.7309,2.7309,2.7309,2.7309,2.7309,2.7309,2.6895,2.5962,2.5502,2.5013,2.4507,2.4497,2.4497,2.4497,2.4497,2.4497,2.4497,2.4497,2.4497,1.2785,1.2492,1.2542,1.4769,1.679,1.83,1.8518,1.9159,1.93,1.814,0.0,0.0,0.0,0.0,0.0,0.0,0.0,0.0,0.0,0.0,0.0,0.0,0.0,0.0,0.0,0.0,0.0,0.0,0.0,0.0,0.0,0.0,0.0,0.0,0.0,1.8335,1.8408,1.8657,1.8825,0.0,1.9155,1.9279,1.9279,1.9279,1.9279,1.9324,1.9576,1.968,1.9732,2.0205,2.0462,2.0522,2.0719,2.0862,2.1024,2.1381,2.1555,2.1666,2.2069,2.237,2.2601,2.2601,2.2791,2.3014,2.3014,2.3014,2.2942,2.2585,2.3615,2.4968,2.5809,2.6812,2.7887,2.9157,2.9456,2.9352,2.899,2.8907,2.8638,2.7728,2.76,2.7537,2.734,2.7309,2.7309,2.7309,2.7309,2.7309,2.7309,2.7309,2.7309,2.7309,2.7309,2.7309,2.7309,2.7309,2.7309,2.7309,2.7309,2.6895,2.5962,2.5792,2.5357,2.4518,2.4497,2.4497,2.4497,2.4497,2.4497,2.4497,2.4497,2.4497,1.2693,1.2703,1.3197,1.5434,0.0,1.8595,1.8829,1.9174,1.9284,0.0,0.0,0.0,0.0,0.0,0.0,0.0,0.0,0.0,0.0,0.0,0.0,0.0,0.0,0.0,0.0,0.0,0.0,0.0,0.0,0.0,0.0,0.0,0.0,0.0,1.7838,1.7911,1.8064,1.824,1.8401,1.8562,1.8884,1.9045,1.9052,1.9258,1.9376,1.9532,1.9783,1.9939,2.0094,2.0514,2.0668,2.0719,2.0873,2.0925,2.0964,2.127,2.1396,2.1452,2.1838,2.2242,2.249,2.249,2.2728,2.3014,2.3014,2.3014,2.2942,2.2585,2.3437,2.4637,2.5465,2.6456,2.7552,2.8706,2.897,2.8907,2.8659,2.8618,2.8411,2.7707,2.7583,2.751,2.734,2.7309,2.7309,2.7309,2.7309,2.7309,2.7309,2.7309,2.7309,2.7309,2.7309,2.7309,2.7309,2.7309,2.7309,2.7309,2.7309,2.6988,2.6283,2.6044,2.5461,2.4518,2.4497,2.4497,2.4497,2.4497,2.4497,2.4497,2.4497,2.4497,1.2406,1.3124,1.4367,1.5725,1.7138,0.0,1.8348,1.883,1.9143,0.0,0.0,0.0,0.0,0.0,0.0,0.0,0.0,0.0,0.0,0.0,0.0,0.0,0.0,0.0,0.0,0.0,0.0,0.0,0.0,0.0,0.0,0.0,1.7326,1.738,1.738,1.7504,1.7783,1.7882,1.8044,1.8275,1.8655,1.886,1.8867,1.914,1.9368,1.9567,1.9816,2.011,2.0428,2.0676,2.0861,2.0925,2.0925,2.0925,2.0905,2.1198,2.1301,2.1349,2.1679,2.2013,2.2307,2.2307,2.2585,2.2911,2.2855,2.2919,2.2942,2.2585,2.3182,2.4167,2.5151,2.5975,2.6934,2.8205,2.8431,2.84,2.8473,2.8493,2.8359,2.7893,2.781,2.7696,2.7372,2.7309,2.7309,2.7309,2.7309,2.7309,2.7309,2.7309,2.7309,2.7309,2.7309,2.7309,2.7309,2.7309,2.7309,2.7309,2.7309,2.7102,2.6635,2.6169,2.5492,2.4631,2.4538,2.4497,2.4497,2.4497,2.4497,2.4497,2.4497,2.4497,1.2863,0.0,1.4665,0.0,1.5918,1.6975,0.0,0.0,0.0,0.0,0.0,0.0,0.0,0.0,0.0,0.0,0.0,0.0,0.0,0.0,0.0,0.0,0.0,0.0,0.0,0.0,0.0,0.0,0.0,0.0,0.0,1.7279,1.7426,1.7628,1.7628,1.765,1.7695,1.8208,1.8374,1.8241,1.8814,1.9072,1.9072,1.9117,1.9041,1.885,1.914,1.9549,2.007,2.0371,2.0647,2.0925,2.0925,2.0925,2.0925,2.0972,2.0996,2.0945,2.1044,2.129,2.1539,2.1539,2.2029,2.2498,2.2242,2.2529,2.2942,2.2585,2.2815,2.3572,2.5299,2.5521,2.5783,2.7548,2.7717,2.7552,2.7935,2.7968,2.7883,2.7486,2.7392,2.7382,2.732,2.7309,2.7309,2.7309,2.7309,2.7309,2.7309,2.7309,2.7309,2.7309,2.7309,2.7309,2.7309,2.7309,2.7309,2.7309,2.7309,2.7102,2.6635,2.6169,2.5647,2.5106,2.4704,2.4497,2.4497,2.4497,2.4497,2.4497,2.4497,2.4497,1.2788,1.3345,1.401,0.0,1.5358,1.6294,1.7156,0.0,0.0,0.0,0.0,0.0,0.0,0.0,0.0,0.0,0.0,0.0,0.0,0.0,0.0,0.0,0.0,0.0,0.0,0.0,0.0,0.0,0.0,0.0,1.7753,1.7753,1.7807,1.79,1.79,0.0,1.79,1.8192,1.836,1.8406,1.8504,1.8628,1.8812,1.8621,1.8743,1.9151,1.929,1.9571,1.9951,2.0049,2.0305,2.0623,2.0623,2.0742,2.0925,2.0925,2.0925,2.0925,2.0925,2.1103,2.1396,2.1396,2.1783,2.2218,2.2059,2.2226,2.2355,2.2005,2.2427,2.3148,2.3774,2.4665,2.5645,2.6457,2.7002,2.7361,2.751,2.7552,2.7489,2.734,2.7309,2.7309,2.7309,2.7309,2.7309,2.7309,2.7309,2.7309,2.7309,2.7309,2.7309,2.7309,2.7309,2.7309,2.7309,2.7309,2.7309,2.7309,2.7309,2.7216,2.7009,2.6563,2.6051,2.5595,2.4859,2.4497,2.4497,2.4497,2.4497,2.4497,2.4497,2.4497,0.0,0.0,1.3558,1.3855,1.4659,1.5588,0.0,0.0,0.0,0.0,0.0,0.0,0.0,0.0,0.0,0.0,0.0,0.0,0.0,0.0,0.0,0.0,0.0,0.0,0.0,0.0,0.0,0.0,0.0,0.0,1.8087,1.8087,1.8133,1.8187,1.8179,1.8179,1.8179,1.8179,1.8357,1.865,1.8396,1.8403,1.8642,1.8388,1.8644,1.9317,1.9277,1.9469,1.9789,1.9789,1.9988,2.0265,2.0361,2.0551,2.0798,2.0885,2.0925,2.0925,2.0925,2.104,2.1262,2.1262,2.1552,2.183,2.183,2.1939,2.1963,2.1648,2.2197,2.2854,2.2809,2.4167,2.5583,2.5771,2.6605,2.7309,2.7309,2.7309,2.7309,2.7309,2.7309,2.7309,2.7309,2.7309,2.7309,2.7309,2.7309,2.7309,2.7309,2.7309,2.7309,2.7309,2.7309,2.7309,2.7309,2.7309,2.7309,2.7309,2.7309,2.7309,2.7309,2.6864,2.6397,2.593,2.5223,2.4724,2.4497,2.4621,2.4611,2.4497,2.4621,2.4673,0.0,1.3442,0.0,1.2916,1.3595,0.0,0.0,0.0,0.0,0.0,0.0,0.0,0.0,0.0,0.0,0.0,0.0,0.0,0.0,0.0,0.0,0.0,0.0,0.0,0.0,0.0,0.0,0.0,0.0,0.0,1.8087,1.8087,1.8234,1.8481,1.8481,1.8481,1.8481,1.8481,1.8574,1.8813,1.8789,1.8789,1.8813,1.8789,1.8805,1.8837,1.8621,1.8863,1.9447,1.9447,1.9638,1.9972,2.0265,2.0408,2.0456,2.0798,2.0925,2.0925,2.0925,2.0933,2.0948,2.0948,2.1135,2.1428,2.1428,2.1703,2.2011,2.1987,2.2226,2.2667,2.3372,2.4306,2.5297,2.6008,2.6768,2.7309,2.7309,2.7309,2.7309,2.7309,2.7309,2.7309,2.7309,2.7309,2.7309,2.7309,2.7309,2.7309,2.7309,2.7309,2.7309,2.7309,2.7309,2.7309,2.7309,2.7309,2.7309,2.7309,2.7309,2.7309,2.7309,2.6864,2.6397,2.593,2.5834,2.5388,2.4497,2.4941,2.4921,2.4507,2.4952,2.5148,0.0,0.0,0.0,1.2744,1.2996,1.3458,0.0,0.0,0.0,0.0,0.0,0.0,0.0,0.0,0.0,0.0,0.0,0.0,0.0,0.0,0.0,0.0,0.0,0.0,0.0,0.0,0.0,0.0,0.0,0.0,1.8535,1.855,1.8596,1.8697,1.8697,1.8697,1.8697,1.8697,1.8743,1.8781,1.8781,1.8781,1.8781,1.8781,1.8781,1.8781,1.8743,1.8814,1.9042,1.928,1.9614,1.9949,2.0257,2.0392,2.044,2.079,2.0774,2.0615,2.0845,2.0925,2.0925,2.0925,2.1111,2.1396,2.1396,2.1687,2.2011,2.2011,2.2107,2.2225,2.2518,2.3661,2.5182,2.6903,2.7283,2.7382,2.7624,2.7458,2.7309,2.7309,2.7309,2.7309,2.7309,2.7309,2.7309,2.7309,2.7309,2.7309,2.7309,2.7309,2.7309,2.7309,2.7309,2.7309,2.7309,2.7309,2.7309,2.7309,2.7309,2.7309,2.7309,2.7154,2.6843,2.6376,2.6366,2.5875,2.4941,2.543,2.5564,2.5399,2.5575,2.5647,1.3479,0.0,0.0,0.0,0.0,1.2987,0.0,0.0,0.0,0.0,0.0,0.0,0.0,0.0,0.0,0.0,0.0,0.0,0.0,0.0,0.0,0.0,0.0,0.0,0.0,0.0,0.0,0.0,0.0,0.0,1.8637,1.8764,1.8781,1.8781,1.8781,1.8781,1.8781,1.8781,1.8781,1.8781,1.8781,1.8781,1.8781,1.8781,1.8781,1.8781,1.8781,1.8781,1.8797,1.909,1.9391,1.9765,1.9955,2.0114,2.0257,2.0615,2.0599,2.0448,2.0798,2.0925,2.0925,2.0925,2.1032,2.1262,2.1552,2.1695,2.1838,2.2123,2.2186,2.2241,2.2665,2.4053,2.5793,2.7321,2.7593,2.7521,2.7665,2.7469,2.7309,2.7309,2.7309,2.7351,2.7458,2.7479,2.7479,2.7479,2.7479,2.7427,2.733,2.7309,2.7309,2.7309,2.7309,2.7309,2.7309,2.7309,2.7309,2.7309,2.7309,2.7309,2.7309,2.7309,2.7092,2.6625,2.677,2.6608,2.6159,2.6149,2.603,2.5885,2.6086,2.6113,0.0,0.0,0.0,0.0,0.0,0.0,0.0,0.0,0.0,0.0,0.0,0.0,0.0,0.0,0.0,0.0,0.0,0.0,0.0,0.0,0.0,0.0,0.0,0.0,0.0,0.0,0.0,0.0,0.0,1.8279,1.8295,1.8637,1.8781,1.8781,1.8781,1.8781,1.8781,1.8781,1.8781,1.8781,1.8781,1.8781,1.8781,1.8781,1.8781,1.8781,1.8781,1.8781,1.8781,1.8797,1.9058,1.9423,1.9431,1.963,1.9941,2.0249,2.0377,2.0424,2.0782,2.0909,2.0925,2.0925,2.0933,2.1068,2.1804,2.1727,2.1555,2.2291,2.2474,2.2733,2.3891,2.5512,2.6971,2.7239,2.7614,2.78,2.7423,2.733,2.732,2.7309,2.732,2.7417,2.7852,2.7886,2.7945,2.7924,2.7924,2.7759,2.7361,2.7309,2.7309,2.7309,2.7309,2.7309,2.7309,2.7309,2.7309,2.7309,2.7309,2.7309,2.7309,2.7309,2.7092,2.6646,2.7081,2.7541,2.7969,2.7087,2.6397,2.5972,2.6428,2.6635,1.4084,0.0,0.0,0.0,0.0,0.0,0.0,0.0,0.0,0.0,0.0,0.0,0.0,0.0,0.0,0.0,0.0,0.0,0.0,0.0,0.0,0.0,0.0,0.0,0.0,0.0,0.0,0.0,1.7358,1.7779,1.8271,1.8637,1.8781,1.8781,1.8781,1.8781,1.8781,1.8781,1.8781,1.8781,1.8781,1.8781,1.8781,1.8781,1.8781,1.8781,1.8781,1.8781,1.8805,1.9113,1.928,1.9439,1.9686,1.9686,1.9598,1.9933,2.006,2.0116,2.0416,2.071,2.0925,2.0925,2.104,2.1333,2.1822,2.1947,2.191,2.2363,2.2354,2.2522,2.407,2.5451,2.6625,2.7498,2.7831,2.7883,2.7769,2.7738,2.7645,2.7372,2.7521,2.7779,2.7903,2.8204,2.8307,2.7976,2.7924,2.7759,2.7361,2.7309,2.7309,2.7309,2.7309,2.7309,2.7309,2.7309,2.7309,2.7309,2.7309,2.7309,2.7309,2.7309,2.7247,2.7123,2.7247,2.7379,2.7479,2.7207,2.7415,2.7917,2.7369,2.7123,0.0,0.0,0.0,0.0,0.0,0.0,0.0,1.2212,0.0,0.0,0.0,0.0,0.0,0.0,0.0,0.0,0.0,0.0,0.0,0.0,0.0,0.0,0.0,0.0,0.0,0.0,0.0,0.0,1.6849,1.7421,1.8255,1.8637,1.8781,1.8781,1.8781,1.8781,1.8781,1.8781,1.8781,1.8781,1.8781,1.8781,1.8781,1.8781,1.8781,1.8781,1.8781,1.8781,1.8797,1.9058,1.9233,1.9376,1.9415,1.9407,1.9463,1.9789,1.9917,1.998,2.044,2.075,2.0925,2.0925,2.1008,2.1238,2.164,2.1743,2.1822,2.2164,2.2802,2.3685,2.5159,2.6371,2.7392,2.8056,2.8359,2.8442,2.8255,2.8214,2.8028,2.7434,2.7469,2.7769,2.8142,2.8442,2.8524,2.8245,2.838,2.8204,2.7413,2.7475,2.7469,2.733,2.7309,2.7309,2.7309,2.7309,2.7309,2.7309,2.7309,2.7309,2.7309,2.7309,2.7309,2.7309,2.7309,2.7309,2.7309,2.7309,2.7584,2.8081,2.7536,2.7309,0.0,0.0,0.0,0.0,0.0,0.0,1.3155,1.2474,0.0,0.0,0.0,0.0,0.0,0.0,0.0,0.0,0.0,0.0,0.0,0.0,0.0,0.0,0.0,0.0,0.0,0.0,1.569,1.6007,1.6428,1.7159,1.8136,1.8557,1.8726,1.8726,1.8758,1.8781,1.8781,1.8781,1.8781,1.8781,1.8781,1.8781,1.8781,1.8781,1.8781,1.8781,1.8781,1.8781,1.8781,1.8781,1.9018,1.928,1.8955,1.9026,1.9352,1.9686,1.9821,1.9949,2.0535,2.0774,2.0813,2.0853,2.0861,2.0933,2.1278,2.1373,2.1457,2.1919,2.3564,2.5437,2.656,2.7653,2.8556,2.8597,2.897,2.9177,2.8711,2.8649,2.8421,2.7558,2.7382,2.7652,2.8462,2.8659,2.869,2.869,2.9042,2.8825,2.7548,2.7676,2.7759,2.7351,2.7309,2.7309,2.7309,2.7309,2.7309,2.7309,2.7309,2.7309,2.7309,2.7309,2.7309,2.7309,2.7309,2.7309,2.7309,2.7404,2.7404,2.7309,2.7309,2.7309,0.0,0.0,0.0,0.0,0.0,0.0,1.3629,1.3539,0.0,0.0,0.0,0.0,0.0,0.0,0.0,0.0,0.0,0.0,0.0,0.0,0.0,0.0,0.0,0.0,0.0,0.0,1.4835,1.4906,1.6016,1.6953,1.7453,1.8065,1.8398,1.8398,1.8676,1.8781,1.8781,1.8781,1.8781,1.8781,1.8781,1.8781,1.8781,1.8781,1.8781,1.8781,1.8781,1.8781,1.8781,1.8781,1.8867,1.8931,1.8805,1.8829,1.8939,1.901,1.9217,1.9535,1.963,1.9844,2.0122,2.04,2.0496,2.0615,2.1206,2.1198,2.119,2.212,2.3331,2.4659,2.6118,2.7261,2.8152,2.8524,2.897,2.9177,2.8711,2.8907,2.8897,2.7976,2.779,2.7976,2.8524,2.8918,2.9166,2.9166,2.9249,2.8938,2.7924,2.7872,2.7759,2.7351,2.7309,2.7309,2.7309,2.7309,2.7309,2.7309,2.7309,2.7309,2.7309,2.7309,2.7309,2.7309,2.7309,2.7309,2.7309,2.8034,2.8034,2.7309,2.7309,2.7309,0.0,0.0,0.0,1.5572,0.0,0.0,0.0,1.4069,1.3762,0.0,0.0,0.0,0.0,0.0,0.0,0.0,0.0,0.0,0.0,0.0,0.0,0.0,0.0,0.0,0.0,0.0,1.4225,1.4573,1.5905,1.6776,1.7,1.766,1.8033,1.8033,1.8208,1.839,1.8565,1.8565,1.8653,1.8781,1.8781,1.8781,1.8781,1.8781,1.8781,1.8781,1.8781,1.8781,1.8781,1.8781,1.8781,1.8781,1.8781,1.8781,1.8805,1.9034,1.9217,1.9439,1.9606,1.9773,1.9941,2.0124,2.0249,2.0456,2.0813,2.0925,2.1224,2.2861,2.3701,2.4585,2.6616,2.7696,2.838,2.8845,2.9311,2.9591,2.9352,2.9301,2.9166,2.87,2.8235,2.7948,2.8235,2.8649,2.8959,2.8959,2.9352,2.9321,2.839,2.8266,2.809,2.7645,2.7444,2.7309,2.7309,2.7309,2.7309,2.7309,2.7309,2.7309,2.7309,2.7309,2.7309,2.7309,2.7309,2.7309,2.7309,2.7762,2.7762,2.7309,2.7309,2.7309,0.0,0.0,0.0,0.0,0.0,1.6105,0.0,0.0,0.0,1.4134,0.0,0.0,0.0,0.0,0.0,0.0,0.0,0.0,0.0,0.0,0.0,0.0,0.0,0.0,0.0,0.0,1.3946,1.455,1.5792,1.6532,1.6586,1.7231,1.7604,1.7719,1.7783,1.7946,1.8295,1.8295,1.8478,1.8781,1.8781,1.8781,1.8781,1.8781,1.8781,1.8781,1.8781,1.8781,1.8781,1.8781,1.8781,1.8781,1.8781,1.8781,1.8821,1.9161,1.9264,1.9304,1.9574,1.9806,2.0006,2.0071,2.0337,2.065,2.0522,2.0846,2.1615,2.3543,2.4245,2.4949,2.7405,2.8266,2.8649,2.929,2.9653,2.9891,2.9973,2.9632,2.928,2.9187,2.8493,2.7955,2.8038,2.8369,2.8649,2.8731,2.9466,2.9663,2.8731,2.8618,2.8442,2.7976,2.7521,2.734,2.7423,2.7351,2.7309,2.7309,2.7309,2.7309,2.7309,2.7309,2.7309,2.7309,2.7309,2.7309,2.7309,2.7392,2.7392,2.7309,2.7309,2.7309,0.0,0.0,0.0,0.0,1.7003,0.0,0.0,0.0,1.5592,1.5079,0.0,0.0,0.0,0.0,0.0,0.0,0.0,0.0,0.0,0.0,0.0,0.0,0.0,0.0,0.0,0.0,0.0,1.4585,1.5365,1.5954,1.623,1.6643,1.7,1.7368,1.7663,1.7946,1.8295,1.8295,1.8478,1.8781,1.8781,1.8781,1.8781,1.8781,1.8781,1.8781,1.8781,1.8781,1.8781,1.8781,1.8781,1.8781,1.8781,1.8781,1.8835,1.8829,1.8891,1.8853,1.8931,1.9532,2.03,2.0585,2.1131,2.1527,2.1012,2.154,2.2568,2.375,2.4786,2.5977,2.801,2.8266,2.8328,2.9611,2.9642,2.9497,2.9911,2.9632,2.9187,2.8773,2.8276,2.8059,2.8462,2.8576,2.8752,2.9166,2.9663,2.9663,2.8731,2.8618,2.8442,2.7976,2.7521,2.7417,2.781,2.7489,2.7309,2.7309,2.7309,2.7309,2.7309,2.7309,2.7309,2.7309,2.7309,2.7309,2.7309,2.7655,2.7645,2.7309,2.7309,2.7309,0.0,0.0,0.0,0.0,0.0,0.0,0.0,0.0,1.5773,0.0,0.0,0.0,0.0,0.0,0.0,0.0,0.0,0.0,0.0,0.0,0.0,0.0,0.0,0.0,0.0,0.0,0.0,0.0,0.0,1.5225,1.5586,1.6126,1.65,1.6651,1.6992,1.7437,1.7985,1.7993,1.8271,1.8781,1.8781,1.8781,1.8781,1.8781,1.8781,1.8781,1.8781,1.8781,1.8781,1.8781,1.8781,1.8781,1.8781,1.8781,1.8781,1.8781,1.8781,1.8781,1.8781,1.9096,1.9499,2.0073,2.1266,2.2351,2.1946,2.2568,2.3651,2.4747,2.5343,2.6024,2.7475,2.8069,2.8473,2.9052,2.9456,2.9756,2.9953,2.9849,2.957,2.9104,2.8638,2.839,2.8587,2.839,2.8369,2.8835,2.9301,2.9549,2.9435,2.8949,2.8535,2.8349,2.7686,2.7382,2.7521,2.7413,2.7309,2.7309,2.7309,2.7309,2.7309,2.7309,2.7309,2.7309,2.751,2.7645,2.7645,2.81,2.809,2.7645,2.7645,2.751,1.9938,0.0,0.0,0.0,0.0,0.0,0.0,0.0,0.0,0.0,0.0,0.0,0.0,0.0,0.0,0.0,0.0,0.0,0.0,0.0,0.0,0.0,0.0,0.0,0.0,0.0,0.0,0.0,1.4116,0.0,1.5014,1.5507,1.5912,1.6198,1.646,1.6929,1.7671,1.7767,1.8081,1.8684,1.878,1.8781,1.8781,1.8781,1.8781,1.8781,1.8781,1.8781,1.8781,1.8781,1.8781,1.8781,1.8781,1.8781,1.8781,1.8781,1.8781,1.8781,1.8781,1.9142,1.9708,2.0483,2.1886,2.3222,2.3022,2.3701,2.4688,2.5489,2.5887,2.6352,2.7215,2.7935,2.8483,2.8742,2.9321,2.9839,2.9973,2.9891,2.9673,2.9208,2.8845,2.8576,2.8442,2.8245,2.8266,2.8731,2.9094,2.9384,2.9591,2.9032,2.8566,2.8442,2.7831,2.7438,2.7438,2.7382,2.7309,2.7309,2.7309,2.7309,2.7309,2.7423,2.7438,2.7438,2.7883,2.811,2.811,2.8576,2.8504,2.7924,2.7924,2.7686,0.0,0.0,0.0,1.9374,0.0,0.0,0.0,0.0,1.6919,0.0,0.0,0.0,0.0,0.0,0.0,1.4781,0.0,0.0,0.0,0.0,0.0,0.0,0.0,0.0,0.0,0.0,0.0,0.0,1.3868,0.0,1.4589,1.4645,1.512,1.6174,1.6222,1.6571,1.7329,1.7655,1.7954,1.8319,1.8615,1.8781,1.8781,1.8781,1.8781,1.8781,1.8781,1.8781,1.8781,1.8781,1.8781,1.8781,1.8781,1.8781,1.8781,1.8781,1.8781,1.8781,1.8781,2.0039,2.1733,2.2519,2.3439,2.4225,2.4094,2.4786,2.5645,2.5693,2.6428,2.7355,2.779,2.7924,2.8173,2.9073,2.9301,2.9446,2.9901,2.9642,2.9187,2.8721,2.8628,2.8473,2.8028,2.8307,2.8752,2.9208,2.929,2.9145,2.8711,2.8628,2.8442,2.7997,2.7914,2.7903,2.7903,2.751,2.7309,2.7309,2.7309,2.7309,2.7309,2.7676,2.7903,2.7903,2.8359,2.8587,2.8597,2.9063,2.8814,2.7924,2.7924,2.7686,0.0,0.0,1.8441,1.9844,0.0,0.0,0.0,0.0,0.0,0.0,0.0,0.0,0.0,0.0,1.6532,1.5573,0.0,0.0,0.0,0.0,0.0,0.0,0.0,0.0,0.0,0.0,0.0,1.4082,1.4069,1.4312,0.0,1.4719,1.4977,1.5833,1.6079,1.6547,1.727,1.7647,1.799,1.8303,1.8661,1.8781,1.8781,1.8781,1.8781,1.8781,1.8781,1.8781,1.8781,1.8781,1.8781,1.8781,1.8781,1.8781,1.8781,1.8781,1.8781,1.8781,1.8781,2.0085,2.1733,2.1931,2.3495,2.5345,2.5179,2.5936,2.6764,2.6764,2.7013,2.734,2.7448,2.7696,2.8079,2.87,2.9073,2.9435,2.9891,2.987,2.9622,2.9156,2.9073,2.9021,2.8866,2.897,2.9125,2.928,2.9301,2.9363,2.9508,2.9259,2.8897,2.8431,2.811,2.78,2.751,2.7614,2.7831,2.8142,2.8162,2.8017,2.7717,2.8142,2.8235,2.7935,2.868,2.9073,2.9073,2.9539,2.929,2.838,2.838,2.7976,1.8743,1.8178,0.0,0.0,1.8818,0.0,1.9938,0.0,0.0,0.0,0.0,0.0,0.0,0.0,0.0,1.6179,1.5352,0.0,0.0,1.4017,0.0,0.0,0.0,0.0,0.0,0.0,1.3978,1.4522,1.4211,1.4268,0.0,0.0,1.4948,1.5688,1.5896,1.6365,1.708,1.7421,1.7771,1.8112,1.847,1.8654,1.8781,1.8781,1.8781,1.8781,1.8781,1.8781,1.8781,1.8781,1.8781,1.8781,1.8781,1.8781,1.8781,1.8781,1.8781,1.8781,1.8781,2.0169,2.198,2.2031,2.3925,2.6166,2.6245,2.6774,2.7309,2.7309,2.7423,2.7458,2.7351,2.7707,2.8245,2.8545,2.897,2.9435,2.9891,2.9994,2.986,2.9394,2.9435,2.9497,2.9332,2.9446,2.9549,2.9549,2.9415,2.9415,2.9715,2.9487,2.9125,2.8659,2.8493,2.8235,2.7779,2.8007,2.8297,2.8597,2.8618,2.8483,2.8183,2.8618,2.8794,2.8659,2.9249,2.9632,2.9798,2.9932,2.9601,2.8856,2.869,2.8214]}]]